GFSGL_con_3kmhel_000.txt.gz
Helicity
63 59 64 60 65 63 65 68 71 71 69 71 72 80 91 110 124 132 118 110 126 141 169 201 217 226 276 303 347 325 330 334 349 297 256 290 395 490 491 371 339 360 366
63 52 42 40 37 39 36 43 50 51 50 52 65 83 88 91 90 101 120 131 133 143 134 142 145 178 201 259 326 345 347 328 286 263 222 272 365 431 473 430 361 323 418
75 61 59 50 42 38 35 29 26 23 32 35 39 50 61 66 68 73 82 109 113 97 107 118 114 118 145 190 274 340 406 376 340 268 223 254 405 454 525 452 367 320 318
86 80 78 72 63 62 55 43 28 20 20 24 40 51 58 67 78 89 99 89 71 86 106 126 126 118 111 119 155 217 301 311 326 358 245 298 569 539 490 525 432 394 380
90 78 91 89 84 72 59 49 46 45 44 36 30 33 40 51 65 72 50 67 80 83 74 85 122 128 112 102 130 126 168 272 272 318 288 388 563 579 532 537 390 481 329
86 84 93 103 92 66 52 38 34 40 41 43 45 45 46 55 62 67 105 88 39 28 40 71 96 96 80 66 77 86 117 166 133 251 419 433 464 489 462 585 494 540 445
88 92 116 93 81 67 55 39 31 28 27 22 22 16 28 36 48 85 89 37 37 32 46 57 71 99 105 86 43 63 87 135 172 183 154 295 461 502 452 542 427 458 425
87 96 83 71 55 36 21 16 15 14 17 26 30 46 48 55 40 72 80 63 53 48 44 40 55 67 73 79 87 59 89 86 171 205 196 205 247 428 434 455 382 526 504
77 67 43 23 13 3 3 11 25 26 40 39 40 40 50 69 88 95 94 66 57 60 53 57 59 57 38 67 86 97 58 106 201 264 199 220 306 466 563 643 477 456 410
58 40 18 8 4 13 19 33 39 50 67 69 85 68 54 86 82 90 87 60 62 51 58 41 39 52 56 51 71 50 7 127 239 290 336 302 441 370 384 532 537 607 610
42 22 16 13 25 22 31 34 42 52 63 81 88 103 113 84 69 78 98 82 49 61 61 44 38 61 62 71 47 -25 10 99 178 411 480 498 616 765 654 569 563 512 407
38 35 31 21 15 11 -2 22 34 50 59 78 100 127 104 85 62 74 85 79 87 57 53 61 54 66 80 69 42 13 16 3 305 440 551 578 659 694 587 517 433 342 299
55 45 31 18 16 20 40 52 57 50 60 52 81 92 84 61 66 68 55 66 61 43 49 50 56 63 67 72 54 36 16 182 342 398 488 590 603 495 555 491 385 404 302
70 52 36 34 41 79 92 86 100 79 66 76 74 68 67 77 84 74 50 51 40 16 28 50 7 -13 -35 7 38 82 146 286 318 315 428 511 514 419 402 268 339 301 178
80 69 68 84 93 103 114 111 88 82 88 83 85 81 71 72 85 74 41 18 16 15 20 -18 -65 -68 -85 -47 -13 80 149 272 236 243 328 453 501 342 400 276 234 152 130
98 101 114 123 132 137 123 114 77 60 43 36 36 44 64 24 12 28 13 43 65 47 -18 -46 -67 -76 -64 -63 -61 -13 76 196 223 195 211 282 392 300 422 266 195 97 118
107 107 126 125 139 134 128 126 109 82 34 20 20 20 37 1 4 19 37 69 68 27 -26 -51 -58 -53 -54 -70 -77 -20 67 159 161 135 248 274 329 229 185 179 115 92 117
101 69 131 152 149 145 137 120 116 97 74 59 42 20 15 17 12 21 58 73 24 3 -10 -53 -28 -19 -37 -39 -53 -5 104 197 144 192 246 263 191 156 81 91 69 87 82
122 147 139 147 145 117 124 117 104 92 86 81 50 24 21 4 24 17 49 19 23 14 7 -23 -12 -19 -19 -38 -48 37 116 135 172 210 199 140 136 109 65 58 62 52 35
149 93 92 135 137 125 114 106 98 89 81 68 59 49 24 14 15 12 19 39 10 4 19 -10 4 4 -18 -37 -36 9 63 146 190 150 82 94 101 79 48 50 41 23 27
158 160 100 132 127 115 110 109 106 98 100 94 91 76 -1 -8 -6 6 -4 25 7 23 32 15 43 28 -7 -40 -40 -7 45 116 122 133 72 73 81 61 37 34 5 10 26
169 166 153 139 122 113 110 109 110 119 117 108 84 74 10 30 29 5 -12 4 -11 9 30 47 32 36 6 -35 -26 2 48 113 144 108 48 59 50 32 30 9 8 10 16
177 165 146 135 127 93 118 129 124 121 111 99 73 57 51 36 23 3 -10 2 -1 18 46 19 56 62 8 -43 -23 25 76 112 149 7 24 47 11 19 -2 -11 -4 2 2
165 150 139 134 139 121 130 143 134 101 89 92 77 52 33 9 9 -3 -13 -0 -5 23 21 54 73 79 28 -33 -18 15 67 117 11 14 57 8 13 -13 -26 -14 -11 -6 8
152 147 141 144 149 153 150 137 133 110 99 41 6 27 21 8 -4 -14 -28 -2 3 -0 41 77 78 87 37 -19 -7 30 58 15 29 32 4 1 1 -22 -24 -14 -15 -0 15
149 147 154 157 158 154 153 144 138 127 99 90 -31 23 8 -1 -3 -12 -16 5 5 7 58 91 117 89 35 -28 -8 25 56 4 12 8 -15 -1 -18 -30 -27 -16 -8 -0 13

GFSGL_con_3kmhel_003.txt.gz
Helicity
110 96 98 88 65 61 61 70 78 74 69 68 70 80 94 108 119 133 134 134 155 182 186 182 179 166 170 171 173 204 263 319 334 319 343 285 354 289 270 267 346 361 312
97 99 95 82 58 62 70 70 61 40 26 23 31 44 56 69 82 96 107 125 169 192 195 194 188 186 182 166 172 176 195 242 285 273 277 274 318 367 278 290 315 329 354
120 107 107 104 89 84 81 77 55 42 34 30 29 28 30 42 55 66 94 107 84 79 93 108 118 119 123 133 144 152 158 150 175 223 236 271 283 444 412 364 346 345 400
116 98 108 108 87 83 68 54 54 62 68 69 60 54 61 53 47 68 72 68 88 99 100 102 89 93 107 116 130 132 140 142 131 138 177 213 302 538 480 409 426 375 431
103 103 103 99 89 69 70 72 70 70 69 63 58 64 56 66 69 68 88 111 100 65 33 32 57 76 85 91 129 124 143 162 157 138 131 130 164 368 396 358 441 453 386
106 114 112 100 81 76 73 71 65 60 55 53 55 55 61 73 67 95 177 129 73 47 13 28 44 35 45 84 92 80 107 136 134 140 127 113 111 148 213 355 460 605 376
135 126 103 79 69 63 56 51 46 42 43 55 64 58 73 73 46 82 127 121 85 55 54 57 56 54 67 74 71 86 85 71 78 106 107 87 95 90 139 208 268 494 453
127 104 81 72 62 50 39 35 34 30 31 37 42 57 70 85 67 146 139 122 71 77 84 73 75 85 87 80 79 73 50 62 71 89 109 78 66 122 131 192 333 583 761
126 106 81 63 60 49 41 29 25 23 18 11 20 32 38 105 185 208 169 110 106 113 80 75 80 74 76 94 69 71 63 47 65 81 57 46 26 62 108 379 383 605 600
109 86 66 59 49 47 41 39 41 42 26 18 20 56 58 116 147 151 93 72 111 126 103 61 64 60 67 86 78 87 89 62 62 60 20 18 21 43 96 246 310 488 638
85 74 70 72 73 66 72 68 58 32 28 44 47 57 77 98 88 71 94 110 123 131 91 47 43 68 74 103 97 121 107 85 70 41 5 38 147 155 269 378 398 396 618
80 77 78 90 100 90 72 71 50 46 47 55 63 81 104 92 63 55 61 95 128 119 82 39 48 72 75 91 88 62 66 73 26 22 5 110 159 202 171 292 369 488 464
83 81 96 108 103 75 79 69 67 72 83 86 95 110 98 81 72 57 50 59 78 53 43 50 64 68 39 55 58 76 46 5 6 7 30 75 137 175 293 362 424 440 426
82 93 108 109 81 93 85 72 88 88 97 103 105 98 89 82 75 81 59 33 -19 -20 28 44 43 45 41 34 15 1 6 -7 -32 -28 -11 99 186 237 311 321 322 311 277
99 113 121 119 110 112 99 94 93 104 96 101 94 89 86 80 55 25 39 -3 2 -5 24 -17 -13 5 26 25 11 -16 3 -15 -20 -27 51 108 188 249 295 288 205 151 122
127 131 129 123 120 111 96 103 81 64 50 42 34 45 66 33 14 23 34 35 41 63 -1 -32 -23 14 24 32 8 3 13 -39 16 10 25 105 187 241 262 202 143 85 55
131 128 135 121 127 117 115 122 124 114 44 28 18 25 23 25 13 27 42 48 42 39 -10 -38 -18 18 44 43 23 -5 -14 -14 29 29 57 145 202 169 158 133 87 62 62
129 84 144 153 133 120 126 135 139 113 95 77 34 13 18 9 12 25 53 24 0 16 -23 -40 0 34 64 55 49 5 -14 17 24 48 102 153 137 152 119 59 34 49 53
142 151 144 135 141 125 145 145 123 107 106 96 61 32 24 -1 14 22 35 -6 -10 -17 -30 -37 16 56 95 54 41 -4 -14 16 19 65 78 83 81 58 29 15 23 35 58
154 98 110 152 160 164 150 130 118 113 118 120 100 71 47 34 20 5 7 8 -18 -34 -17 -20 44 74 81 65 39 -2 -14 -8 23 35 87 76 31 -1 -1 18 40 39 9
174 163 106 151 161 147 136 125 121 117 118 117 108 105 3 19 4 13 20 13 -22 -53 -18 16 74 57 91 76 44 -3 -12 -6 33 64 90 38 0 -11 25 27 7 4 5
170 166 162 155 151 136 120 111 115 118 129 117 89 98 19 50 56 29 15 -3 -36 -53 -11 12 37 79 101 83 50 -10 -9 18 57 109 61 26 19 18 -16 -20 -16 -17 -9
163 156 160 158 143 100 116 123 131 132 128 118 84 71 34 36 39 0 -29 -29 -44 -35 12 13 59 94 95 86 39 -23 7 65 147 175 110 23 21 -42 -40 -29 -23 -20 -17
151 151 153 142 143 120 129 136 132 101 92 99 53 67 35 15 5 -19 -28 -25 -29 2 16 45 87 113 116 105 23 -6 37 108 147 128 114 -18 -48 -56 -44 -32 -34 -24 -7
141 142 140 137 139 148 146 138 127 114 107 18 18 39 36 25 28 11 -4 -5 -2 14 38 76 93 114 114 135 33 40 120 129 129 115 26 -59 -65 -51 -36 -32 -26 -18 -1
133 131 140 147 147 140 141 142 139 128 111 56 78 74 40 32 2 20 14 16 19 25 71 80 119 136 139 63 48 130 142 107 88 23 -65 -69 -56 -43 -34 -22 -13 11 16

GFSGL_con_3kmhel_006.txt.gz
Helicity
125 109 103 87 69 54 55 57 64 61 57 44 37 39 43 38 48 73 100 119 154 168 156 149 161 162 160 149 140 138 137 133 142 89 131 139 199 251 250 288 254 243 250
113 106 95 86 90 94 104 110 111 103 88 87 80 68 59 60 62 64 78 107 99 113 100 120 122 115 118 94 68 70 81 91 103 102 66 98 132 173 256 296 344 351 361
113 111 108 108 112 114 110 111 108 106 97 86 83 87 93 83 73 73 80 63 74 83 101 99 97 83 61 59 81 98 84 84 94 112 91 78 94 128 173 257 270 309 334
129 124 102 103 125 127 120 114 103 89 78 73 69 74 77 69 85 93 104 114 98 100 102 89 58 34 35 50 72 83 91 104 103 108 109 86 66 62 129 145 191 230 252
114 101 98 117 128 118 115 100 88 80 75 67 68 68 74 64 75 87 104 119 132 121 108 94 48 36 28 40 74 70 98 86 65 73 73 60 116 90 59 99 180 199 249
87 97 118 136 133 115 101 100 96 90 82 74 72 71 66 77 67 81 136 160 161 157 141 91 54 27 23 104 104 102 111 112 93 81 86 92 79 88 58 80 86 141 188
147 158 158 144 127 109 93 86 78 65 55 55 54 53 63 60 46 100 155 180 221 187 172 127 102 79 69 70 86 79 80 77 83 107 101 88 83 99 104 80 57 89 159
153 148 142 128 119 86 74 67 64 61 66 70 68 68 64 61 47 136 163 112 111 123 113 68 96 112 51 93 89 67 64 67 50 67 87 95 105 113 118 97 79 85 215
182 152 143 121 96 85 83 80 87 86 88 82 70 67 67 82 99 101 86 82 99 120 108 125 144 136 67 97 69 53 76 96 57 48 44 64 74 66 86 128 121 136 182
155 132 118 94 87 85 79 85 94 104 102 98 96 82 59 97 92 100 120 134 143 138 112 105 114 120 102 82 69 69 75 54 24 3 -7 18 57 81 92 106 90 138 178
123 109 98 88 81 66 81 97 102 103 89 97 98 89 80 94 102 87 98 124 126 116 84 78 63 21 47 61 71 80 46 48 34 4 21 16 19 28 59 69 66 67 173
116 101 87 80 80 80 92 112 108 105 102 101 80 75 95 102 84 78 78 88 102 81 82 56 47 38 56 55 51 65 78 47 28 29 55 17 4 13 58 34 57 119 207
102 87 83 91 102 91 110 116 116 97 98 89 87 98 113 117 115 66 56 70 67 63 51 38 30 41 38 33 52 82 66 32 33 44 33 6 17 1 49 45 148 254 336
105 101 104 104 90 118 117 108 111 102 95 96 108 122 121 109 92 68 54 28 28 32 16 3 18 23 23 29 29 39 30 27 29 18 -7 -31 -9 -28 17 69 171 209 292
114 109 112 127 128 124 113 116 102 103 93 124 130 127 112 98 74 46 44 47 42 15 -12 7 4 -21 -17 1 30 19 9 36 -14 -10 -47 -45 -32 11 60 133 171 147 135
125 139 152 149 132 126 124 124 79 75 86 84 63 76 88 55 48 40 43 57 39 10 -24 3 -22 -27 -19 -2 11 30 22 22 -29 -39 -51 -29 -21 25 84 143 114 71 66
152 160 163 143 137 135 133 133 134 119 75 56 34 29 28 38 44 35 20 36 18 -1 -31 -10 -44 -36 -10 -1 -9 11 16 10 -28 -54 -40 -10 -2 56 109 151 98 48 32
172 121 158 157 148 146 140 145 156 148 125 103 55 30 31 37 39 50 50 40 -14 4 -18 -48 -37 -16 -10 3 -5 18 27 -1 -41 -47 -24 -19 11 70 133 75 52 47 42
174 179 171 161 157 132 154 157 146 131 117 116 103 66 47 33 35 46 40 59 -2 -49 -61 -32 -14 -7 -3 -5 26 26 25 1 -35 -24 -8 5 69 134 102 57 40 17 31
199 126 131 158 157 157 159 148 133 121 117 122 111 92 83 78 57 38 46 46 26 -86 -71 -24 -3 -16 -13 13 43 33 25 -1 -10 30 64 130 167 147 87 49 38 8 -12
206 185 114 160 162 152 147 133 133 130 124 125 128 112 26 62 39 54 63 45 -38 -95 -43 -19 0 1 7 47 66 40 25 11 19 91 152 166 142 70 24 -17 -22 -23 -11
192 173 163 161 158 152 133 118 118 124 132 129 132 118 42 74 75 66 59 18 -77 -66 -20 -13 -1 3 46 74 88 41 36 27 91 129 165 125 78 -3 -24 -24 -32 -18 -5
174 167 163 155 142 101 131 131 133 132 134 132 126 114 85 67 67 46 -45 -63 -50 -12 0 1 -6 52 72 77 68 33 44 106 122 145 133 101 19 -30 -44 -35 -30 -20 -13
145 138 139 136 132 113 125 135 139 103 105 115 112 98 20 -38 -58 -43 -41 -32 -5 22 26 -2 38 91 104 106 50 54 83 105 97 112 113 65 -25 -45 -44 -35 -34 -36 -37
142 142 135 132 135 135 131 129 123 120 116 117 103 74 -59 -56 -41 -29 -19 6 21 34 39 40 59 102 111 113 84 133 143 82 100 95 89 34 -62 -48 -39 -44 -53 -52 -42
139 135 138 141 142 141 144 143 136 132 125 112 68 38 -21 -28 -25 -9 17 31 28 56 55 59 107 126 129 75 119 177 76 94 87 67 71 -7 -38 -38 -38 -40 -42 -45 -41

GFSGL_con_3kmhel_009.txt.gz
Helicity
120 107 103 94 90 76 66 64 86 91 94 88 86 78 73 75 71 59 73 70 95 89 78 93 110 116 116 108 98 83 70 58 113 62 79 71 77 86 86 127 173 191 176
118 106 93 75 80 96 101 101 109 98 93 84 75 67 67 65 72 75 86 86 94 74 68 88 95 99 107 87 66 60 62 73 87 103 44 30 37 54 78 89 111 126 173
112 92 88 103 101 105 107 113 109 104 91 79 70 69 64 55 44 57 69 84 81 79 81 100 103 111 89 71 56 35 30 48 75 102 116 91 53 56 53 78 114 121 123
123 117 134 128 139 131 110 114 111 95 79 75 64 54 48 43 45 47 69 86 82 74 100 122 126 109 101 82 61 68 40 49 43 70 84 77 59 36 69 50 24 81 83
115 113 106 137 118 99 104 105 95 87 84 78 74 72 69 70 68 87 94 98 92 93 99 96 88 77 69 55 108 77 60 53 48 29 36 41 36 2 18 30 52 33 31
117 99 168 136 113 123 131 129 115 98 84 75 72 70 71 78 62 93 134 143 118 82 65 49 51 40 29 59 96 89 80 97 72 44 22 20 23 32 20 25 36 26 4
84 153 152 137 138 138 127 112 98 79 60 65 74 84 92 83 60 103 134 137 101 77 77 69 61 67 85 86 79 75 82 76 83 62 35 28 37 67 59 44 47 66 70
135 162 142 147 142 129 113 96 86 78 82 86 82 82 82 79 78 118 132 123 123 120 119 117 124 110 107 115 92 81 56 27 52 71 54 48 40 31 53 72 79 104 83
163 141 138 145 138 127 119 105 93 95 89 81 81 89 87 81 71 97 130 128 118 121 117 114 87 72 50 64 59 62 48 57 43 37 31 22 30 54 45 65 87 104 87
140 130 131 136 133 124 113 103 94 95 95 105 108 84 62 77 46 72 102 121 119 117 121 63 41 46 36 34 47 62 91 71 42 -29 -47 -33 -10 25 42 62 74 78 87
132 126 126 119 125 113 113 102 104 108 105 105 103 92 78 75 89 83 99 117 117 114 81 68 59 23 21 29 20 33 41 37 15 -7 -28 -54 -33 6 51 64 88 105 80
125 123 121 120 113 98 104 123 124 125 122 118 101 101 101 109 86 89 76 75 84 110 91 78 49 15 13 9 24 30 38 35 23 8 -44 -67 -34 1 24 43 69 38 -2
120 119 122 115 109 108 147 144 139 118 121 111 112 116 130 129 127 65 55 59 61 85 110 48 11 -8 3 9 3 29 33 32 23 -34 -43 -34 -9 -1 -7 -10 -27 -47 32
122 119 114 124 115 152 162 143 144 143 132 129 126 146 168 153 128 121 125 107 87 109 100 28 -21 -20 21 -7 -14 2 8 3 -33 -49 -40 -28 -64 -75 -67 -79 -87 -24 117
124 128 134 151 161 163 157 155 145 144 126 132 150 159 159 143 124 74 89 101 106 121 35 11 -50 10 11 -5 -16 -11 14 13 -33 -50 -31 -60 -110 -87 -72 -85 -42 59 152
145 150 158 160 164 161 166 167 111 86 65 59 75 99 122 77 51 63 70 53 75 105 77 13 -1 22 -38 -47 -23 12 41 22 -27 -10 -23 -77 -90 -77 -52 -38 -30 83 74
155 152 159 158 173 181 182 176 156 115 71 55 57 57 52 55 56 59 63 63 97 77 84 51 62 -27 -58 -33 3 15 34 35 11 -24 -51 -98 -78 -40 -19 -9 58 95 67
153 116 166 182 185 183 173 164 164 158 138 129 83 54 49 49 49 44 73 78 92 84 68 48 -85 -67 -45 3 22 33 71 43 -11 -28 -46 -55 -21 -3 18 56 95 83 55
148 164 167 176 181 154 171 164 155 144 142 143 128 89 67 46 42 84 56 81 83 100 -22 -19 -79 -41 -2 23 31 73 62 32 -24 12 11 29 48 67 95 70 60 27 37
157 111 134 166 169 159 161 152 145 145 143 137 131 125 122 104 106 58 42 72 81 54 -86 -73 -43 -1 18 29 60 87 57 20 19 84 76 76 99 95 59 36 52 41 -8
161 160 113 162 159 153 157 151 153 160 157 151 149 133 60 109 108 101 71 60 44 -68 -47 -40 -6 21 27 66 89 90 45 33 95 140 94 117 122 111 61 -13 -27 -16 -21
160 152 152 152 154 155 142 135 140 151 152 150 151 136 66 115 116 49 15 27 -38 -23 -25 -3 19 31 68 94 111 80 38 99 194 129 112 139 74 26 -1 -21 -30 -30 -20
149 155 154 154 150 111 135 143 155 146 148 140 131 127 115 116 70 -7 -1 -7 -7 -1 11 22 28 79 100 109 95 41 101 220 192 131 121 70 45 -27 -36 -40 -37 -24 -19
142 140 140 148 150 133 145 146 142 119 124 129 115 100 94 67 -34 -12 -12 24 10 22 47 40 77 126 149 137 64 92 209 200 128 90 63 53 -34 -43 -42 -37 -31 -29 -32
148 150 149 151 153 149 145 145 142 138 130 126 111 95 41 11 -31 -29 11 25 18 50 65 85 106 150 152 142 130 224 249 93 65 61 49 -20 -0 -26 -37 -31 -39 -37 -21
147 145 148 149 151 149 152 151 149 142 128 116 88 92 3 -9 -4 4 27 14 35 64 86 101 162 182 166 124 205 245 129 55 58 46 42 38 8 -15 -26 -26 -22 -10 -22

GFSGL_con_3kmhel_012.txt.gz
Helicity
104 94 106 111 87 62 68 78 110 115 95 72 66 60 58 54 54 54 54 47 67 66 56 62 70 85 97 119 130 131 129 127 136 118 92 39 38 17 13 32 48 41 39
128 149 115 79 74 82 85 85 81 65 71 70 69 61 56 48 41 31 28 45 37 44 37 37 44 52 73 71 79 74 75 64 88 62 35 11 20 36 35 31 23 23 39
153 126 107 92 80 67 85 119 105 92 89 86 69 52 42 37 38 28 51 51 54 59 53 59 62 46 50 42 50 57 30 76 47 51 64 27 34 18 17 48 38 22 28
158 137 102 71 50 77 102 97 81 81 71 69 68 61 58 59 57 80 104 112 113 104 102 71 47 44 41 49 25 34 48 44 9 -10 3 22 -5 -32 8 -1 -32 10 -1
143 111 73 86 105 104 86 80 80 81 90 85 80 78 69 66 76 115 133 139 138 138 106 74 58 47 51 70 79 60 66 69 56 62 57 21 33 25 15 -33 -7 -8 21
70 54 91 127 109 83 78 91 97 98 86 75 73 64 76 95 105 135 152 149 143 126 107 78 70 58 54 86 74 88 88 99 93 87 96 95 91 85 59 42 5 -11 -54
47 26 92 111 92 88 95 100 96 86 77 83 90 107 119 128 99 113 113 128 124 111 104 105 104 106 85 43 19 29 40 47 47 66 106 113 98 103 89 47 43 44 38
-1 62 94 109 109 102 97 90 91 91 107 117 121 125 134 127 78 83 86 112 108 104 110 111 123 91 53 48 40 37 22 24 62 85 97 123 112 86 46 15 37 17 9
94 106 119 113 105 98 102 108 114 120 124 126 123 123 119 118 64 71 91 110 122 122 112 118 92 85 54 38 50 35 33 39 9 6 15 23 13 -5 19 30 32 8 -12
120 118 111 103 105 121 118 111 130 132 126 137 140 116 92 115 58 69 94 133 130 127 133 100 57 81 33 36 36 49 29 3 12 9 -7 -2 25 32 6 17 51 23 -4
111 106 111 121 122 111 127 134 129 131 131 144 147 144 122 98 93 60 72 104 110 124 121 127 145 63 46 32 18 74 37 -33 -34 -21 -11 18 28 32 24 15 44 41 8
112 115 118 122 116 118 125 127 137 146 149 151 160 154 133 106 70 65 48 44 53 102 109 147 165 139 62 19 61 -23 -18 -13 -24 -9 -13 -4 -20 -26 -25 -9 -14 11 27
120 126 128 117 122 113 123 129 150 148 170 182 169 161 156 146 134 58 39 37 50 90 114 115 91 72 25 53 34 2 -5 52 -34 -12 -5 -19 -38 -30 -31 -22 -33 -47 -92
127 126 127 127 99 128 134 149 174 179 187 158 153 166 164 153 135 126 118 106 93 112 114 140 107 58 41 51 76 97 108 -24 -23 -4 -13 -12 -23 -43 -28 -52 -84 -72 -97
135 128 117 116 119 128 143 163 167 175 144 145 155 155 147 142 130 76 89 111 114 102 98 128 117 82 82 101 111 105 26 39 36 22 -14 -25 -21 -55 -83 -71 -59 -69 -73
122 109 106 116 134 137 155 166 112 75 61 57 49 88 124 84 55 60 68 54 76 61 91 125 125 91 105 112 4 52 74 88 64 24 -3 -23 -20 -70 -47 -26 -32 -30 -29
113 107 122 132 145 151 155 155 160 131 78 61 45 50 58 63 64 66 57 83 67 58 85 108 74 92 25 19 51 70 126 123 79 23 -2 -12 14 -14 11 22 -2 -1 38
122 110 137 146 143 143 139 143 158 159 154 143 91 60 60 62 57 50 82 75 74 58 73 83 -8 8 24 57 83 109 149 119 55 14 21 90 50 44 49 33 22 40 36
133 131 129 128 132 111 144 150 151 148 149 157 149 115 88 53 44 72 57 99 100 89 93 6 13 36 60 97 114 151 148 100 25 76 148 142 71 57 49 48 23 19 41
126 73 90 124 131 142 146 142 145 151 154 149 150 139 134 115 131 99 100 105 108 85 43 37 55 63 99 123 151 161 130 83 139 182 213 131 82 67 57 45 38 6 -19
135 134 81 136 143 143 143 140 148 152 146 150 147 131 54 110 121 124 117 66 75 70 37 58 70 98 129 145 160 151 96 174 209 218 220 121 99 69 26 2 -6 -7 -10
145 133 135 142 147 145 129 129 143 139 135 136 141 129 60 122 127 117 70 89 90 43 58 67 93 125 150 175 178 132 202 254 243 244 168 78 54 43 23 -14 -33 -30 -25
141 143 149 154 144 107 130 129 141 131 130 132 133 123 118 113 114 100 42 76 75 59 68 85 113 162 174 184 148 173 249 293 285 166 87 67 44 -20 -42 -45 -39 -27 -23
141 146 149 153 147 123 136 129 129 108 111 125 119 105 95 73 97 27 27 65 68 82 101 119 144 183 219 193 184 220 266 270 129 83 67 61 46 16 -5 -21 -30 -30 -29
153 158 155 152 143 136 129 127 128 129 133 121 110 112 115 -49 -35 16 60 67 79 102 137 142 167 202 208 242 272 270 279 91 49 37 48 32 -1 -14 -20 -20 -23 -21 -14
158 156 155 146 139 134 136 139 140 144 136 120 112 107 -29 -23 7 47 65 58 90 132 143 164 203 232 256 277 282 235 90 44 31 28 49 42 41 30 11 36 40 31 46

GFSGL_con_3kmhel_015.txt.gz
Helicity
156 144 140 121 96 73 83 99 99 111 109 89 77 67 62 60 54 46 45 49 69 66 59 59 78 94 106 96 101 113 125 129 145 126 100 100 76 19 -2 24 40 50 52
158 140 129 116 106 109 94 113 128 101 83 74 69 63 58 48 40 44 58 76 84 95 107 94 103 96 83 76 73 53 48 16 55 54 82 52 25 -12 -16 -20 -1 29 62
146 146 137 114 115 121 107 104 101 101 89 76 65 56 49 54 62 65 91 113 130 130 128 131 117 109 101 95 82 69 62 70 56 76 87 47 9 -4 -14 -13 -14 23 41
154 144 110 102 94 80 86 115 105 83 67 68 61 57 59 60 61 99 125 135 130 125 123 116 109 96 87 84 79 81 80 62 52 56 72 60 36 17 17 13 -1 27 30
152 115 96 32 25 105 126 101 81 73 62 50 52 56 57 76 111 124 131 137 139 134 126 116 109 99 87 100 123 107 96 105 113 101 96 84 71 50 69 68 63 69 54
133 127 15 -6 102 113 101 86 73 61 59 57 58 61 88 110 102 124 141 146 137 128 114 104 114 99 90 70 52 40 57 89 92 93 72 71 60 71 92 63 136 111 124
126 97 83 47 108 104 89 80 82 69 59 59 73 85 96 105 97 99 96 121 133 110 103 112 120 98 69 71 51 46 68 44 57 97 105 107 55 40 33 24 105 51 -8
104 98 65 109 131 108 93 83 75 67 62 72 82 85 94 106 73 79 95 131 125 105 102 92 79 82 74 62 66 104 77 80 89 96 95 100 97 36 15 10 -22 -24 1
105 100 126 128 106 99 92 79 65 67 80 86 85 80 92 102 69 85 100 127 124 110 102 86 71 82 57 16 63 100 77 104 84 36 32 23 8 7 -8 -15 -2 -9 -18
123 124 111 99 96 87 77 68 68 80 89 103 96 99 74 97 69 68 96 133 118 119 93 76 57 56 33 66 104 87 99 100 87 55 46 37 31 7 10 -12 -13 -15 -32
120 105 98 92 89 76 76 70 83 93 99 103 111 102 93 89 93 69 73 107 111 120 108 104 114 43 64 87 42 82 90 59 49 75 51 22 7 -4 -26 -33 -32 -28 -4
98 94 98 99 94 92 79 86 94 96 100 101 109 125 127 101 83 69 51 46 46 103 107 128 122 57 38 44 42 20 11 26 93 96 -31 -13 -23 -23 -27 -25 -28 -3 45
107 109 104 95 93 75 84 92 106 101 112 118 129 161 156 138 122 58 38 41 51 100 127 104 65 37 39 70 23 4 21 104 98 -4 2 6 -17 -10 -1 -21 -26 18 -19
104 100 99 87 73 90 108 106 113 114 113 115 140 160 162 141 131 131 126 130 97 121 115 113 82 58 60 54 62 85 107 48 -8 12 7 11 -10 -29 -57 -45 -30 -37 -25
105 101 88 87 89 99 103 101 103 94 93 111 127 145 153 152 133 85 97 123 115 121 86 123 116 85 78 76 95 106 53 43 38 30 15 -16 -37 -48 -4 21 16 16 3
104 89 85 90 107 108 112 116 74 51 38 38 45 90 129 92 67 70 56 53 78 62 108 113 91 81 87 70 60 80 97 89 57 67 8 -7 29 65 100 80 37 19 4
95 90 96 100 108 110 119 113 120 107 59 45 44 47 52 69 77 53 44 84 58 64 106 101 91 25 68 76 84 102 137 135 115 64 95 120 133 160 139 101 61 27 18
91 70 116 122 122 123 106 109 121 126 126 125 88 56 50 63 53 38 68 66 106 80 97 94 50 80 85 87 112 143 165 134 121 165 154 179 216 168 112 55 26 40 51
104 121 127 123 113 89 119 120 123 123 130 136 123 84 72 44 38 59 54 107 110 108 93 62 83 93 95 114 156 183 149 182 189 195 197 213 165 79 57 54 67 71 96
127 93 99 122 116 117 118 123 129 131 128 121 116 119 100 87 99 98 103 102 100 98 92 84 100 102 121 149 192 168 223 252 255 241 241 230 149 116 77 60 46 33 23
127 124 89 128 126 127 135 127 129 127 129 122 126 106 43 91 94 104 106 95 83 95 81 103 115 128 152 182 184 236 250 301 291 257 215 147 74 54 47 38 25 16 12
138 135 132 140 144 138 122 122 132 122 123 117 122 117 48 96 103 99 92 35 82 79 74 104 142 152 184 191 257 269 309 313 251 186 146 91 64 37 12 -4 -9 -5 -4
142 145 153 155 140 110 125 123 129 115 115 114 120 128 106 104 101 -8 -4 35 72 91 109 126 154 185 188 240 262 287 287 259 220 164 110 76 -17 -31 -34 -36 -32 -32 -24
153 152 149 145 146 127 134 121 115 92 100 113 120 106 101 87 3 1 29 72 100 119 138 147 161 196 283 304 275 245 242 220 120 92 46 -31 -28 -30 -22 -25 -28 -36 -42
161 152 149 151 145 133 121 114 115 116 122 120 102 96 74 3 6 35 52 74 104 137 155 165 179 250 297 314 257 227 196 59 68 72 77 75 50 23 11 6 -7 -28 -37
156 154 154 148 138 126 124 126 124 123 120 101 91 59 8 4 34 51 61 85 121 140 159 172 236 335 320 241 207 149 54 51 48 47 60 59 56 57 55 60 42 44 33

GFSGL_con_3kmhel_018.txt.gz
Helicity
189 164 148 138 124 112 116 124 123 131 126 111 106 102 88 74 65 70 82 86 99 104 112 128 127 132 165 168 170 167 174 165 213 200 153 110 81 71 73 54 31 17 12
200 183 169 128 99 100 110 133 139 133 115 107 92 77 65 65 75 82 86 99 101 106 115 128 135 168 156 157 164 159 161 147 177 192 143 136 101 84 79 72 57 50 19
207 181 149 120 98 94 100 134 132 116 93 83 76 71 67 72 71 69 91 97 105 122 137 148 150 150 150 158 158 163 163 170 160 156 162 148 140 122 102 94 83 61 17
194 167 136 115 87 51 82 115 98 87 82 84 75 70 64 62 64 91 98 108 128 147 148 152 151 147 156 151 149 144 137 129 123 138 144 129 117 95 110 112 69 45 44
167 139 125 99 87 63 105 100 94 91 79 72 67 55 54 73 86 115 118 131 135 148 148 143 136 127 93 96 140 111 111 115 127 122 127 109 94 109 106 98 88 47 9
157 143 115 94 80 108 104 100 84 75 71 68 74 64 65 92 101 97 110 125 131 138 149 131 116 95 98 81 60 56 54 90 104 120 146 112 105 132 113 113 105 74 23
156 116 95 94 118 104 92 85 94 90 76 82 71 67 79 89 87 86 90 124 137 153 136 119 115 114 96 98 71 50 53 56 66 120 134 118 122 115 112 104 89 52 -27
101 95 104 111 109 101 101 99 100 95 84 80 75 79 82 90 85 89 107 118 146 138 117 110 107 95 94 87 84 85 103 96 108 103 103 113 117 115 82 64 23 -40 -26
121 127 114 109 112 102 104 105 92 103 90 80 83 84 84 85 95 100 98 132 134 114 114 105 95 94 64 44 71 105 99 83 50 25 34 18 20 8 31 47 -19 -66 -32
124 121 115 106 94 105 100 94 97 91 85 94 87 97 95 83 64 65 94 136 128 139 108 104 83 83 45 43 79 80 83 66 68 48 50 48 38 39 10 35 -12 -57 -57
122 118 103 100 102 87 90 93 87 86 95 91 98 106 96 72 64 79 85 127 135 137 144 140 133 61 49 35 29 73 89 58 38 62 72 76 71 65 34 -0 -51 -65 -56
120 112 107 98 100 99 99 95 92 90 96 99 101 96 95 86 84 86 80 79 78 125 133 146 124 62 36 33 46 42 15 22 78 90 77 27 -31 -44 -53 -50 -36 -25 -31
124 115 100 94 99 93 93 85 95 103 111 100 98 97 106 115 103 77 70 67 70 120 142 108 69 51 45 53 35 13 20 73 32 9 5 -0 -10 -18 -3 -17 -26 -8 -1
107 94 99 98 96 89 100 106 106 98 98 95 96 115 125 123 115 119 120 129 104 124 121 133 79 68 50 38 41 49 25 -14 -14 3 10 -1 15 9 7 5 -14 11 25
90 96 93 95 89 92 100 110 107 90 98 104 112 124 135 137 123 80 86 123 131 111 111 109 112 88 77 61 45 9 16 22 20 -10 -6 27 63 58 65 50 68 90 32
96 104 105 96 100 109 105 106 93 77 71 65 52 87 117 82 58 44 48 54 59 74 109 111 94 83 30 15 23 49 77 66 24 40 89 95 101 121 159 178 114 58 20
95 92 102 101 111 114 117 117 116 119 95 72 54 56 55 58 51 38 42 64 60 69 99 99 83 31 19 28 56 90 104 81 119 130 140 123 138 162 158 97 53 43 38
93 87 102 112 118 124 129 128 134 130 126 126 98 80 59 56 48 30 60 68 81 71 92 80 25 20 30 60 104 110 112 169 172 185 161 173 166 185 119 89 73 70 96
100 109 121 128 138 140 134 126 126 129 135 134 122 93 79 70 40 46 49 78 73 90 79 21 26 32 62 104 124 145 189 207 185 196 197 185 181 132 124 129 132 137 127
110 105 118 142 141 139 136 137 140 138 129 130 120 107 102 95 99 77 70 66 29 32 13 49 52 64 105 126 162 209 226 228 225 200 176 147 119 80 74 65 55 55 42
129 140 125 133 136 151 145 138 126 124 129 125 115 97 58 109 105 87 -83 -42 -21 5 35 57 86 111 125 167 216 217 217 217 186 166 142 119 91 84 65 59 44 34 24
136 139 142 146 151 146 138 123 126 116 118 110 112 102 61 100 89 66 -36 -15 -0 18 41 71 107 129 167 231 242 225 206 212 184 150 117 99 84 55 19 -7 -8 -4 4
137 140 145 152 147 126 129 120 123 109 109 106 108 111 96 84 20 -30 -15 9 29 47 66 81 112 176 234 229 207 193 204 203 184 144 61 35 -16 -21 -27 -27 -25 -22 -16
129 133 137 144 149 137 128 122 112 98 102 109 97 43 49 1 -27 -19 6 24 45 68 79 96 133 245 261 211 173 156 161 156 118 102 98 95 66 -14 -13 -16 -20 -27 -32
133 137 142 147 144 133 120 113 109 110 109 97 50 63 4 -29 -23 6 13 33 54 76 110 121 192 244 197 195 161 158 144 57 58 82 82 72 84 76 55 52 57 -1 -31
135 140 145 144 133 121 119 117 112 111 102 76 79 14 -28 -21 4 17 31 46 67 110 121 158 248 232 200 160 139 143 79 67 64 49 62 80 84 74 56 45 26 18 24

GFSGL_con_3kmhel_021.txt.gz
Helicity
222 223 202 188 158 136 130 103 88 86 122 124 119 108 105 106 99 102 99 91 113 109 111 131 144 144 190 218 253 241 246 234 259 230 192 159 116 95 100 109 95 97 97
244 216 203 175 155 138 102 78 64 104 130 128 121 110 101 91 96 96 98 98 117 114 122 137 149 187 190 213 218 208 221 215 198 182 160 131 120 110 104 95 75 78 90
233 216 199 183 151 124 98 76 94 128 129 122 113 97 88 92 96 89 84 128 119 123 134 155 159 173 193 201 205 221 196 181 173 163 169 155 148 138 103 83 48 35 108
242 231 215 185 149 107 75 81 114 123 115 104 94 89 81 84 93 84 147 132 125 134 143 145 137 169 170 188 169 163 165 164 151 163 178 171 151 129 112 82 22 91 103
252 231 199 144 102 78 85 102 112 108 100 89 87 78 87 101 102 160 138 136 133 126 112 105 140 137 100 97 161 169 145 162 161 161 157 152 138 94 78 87 126 110 109
244 207 145 99 76 82 98 115 115 104 83 82 83 91 106 123 101 98 132 139 119 103 85 114 141 123 126 107 110 72 90 130 129 153 197 189 132 125 113 127 132 138 93
219 165 108 76 85 109 123 116 93 81 83 92 99 113 129 132 86 102 103 134 95 86 103 139 149 162 136 144 94 77 100 74 37 107 134 149 127 93 115 126 132 136 121
184 122 69 83 113 128 108 93 93 101 101 111 118 130 131 126 87 99 87 94 103 100 118 135 145 148 129 108 122 131 119 108 95 127 148 146 119 120 122 116 96 53 101
167 87 88 117 124 112 99 101 95 109 112 119 129 119 113 128 91 78 92 101 115 113 133 145 125 124 95 83 114 124 105 105 87 64 53 26 11 10 33 55 28 -13 7
116 93 112 119 111 100 98 94 104 110 125 132 113 110 94 123 88 77 77 122 123 145 151 136 90 106 80 67 101 107 109 106 102 59 65 63 60 59 18 14 -31 -48 -24
99 119 124 100 103 97 94 101 117 121 118 112 111 118 115 103 110 84 66 113 135 153 164 151 147 82 59 62 46 104 99 74 47 78 42 32 50 33 10 -11 -36 -69 -56
132 129 114 97 96 99 109 116 114 110 115 117 121 127 126 122 120 86 70 83 89 146 156 152 148 70 74 51 73 36 13 20 55 -6 26 43 7 -4 -9 -22 -0 13 15
127 111 99 96 100 110 115 112 117 113 121 136 140 142 151 163 134 80 93 76 82 117 138 106 82 58 56 80 36 10 -21 -26 2 49 40 27 88 70 60 58 62 59 52
111 108 109 109 105 95 119 121 126 140 153 148 150 158 155 148 134 134 130 123 98 113 110 115 74 63 59 44 54 25 -4 24 45 9 -28 8 53 59 81 92 117 145 121
117 117 108 107 101 96 111 127 135 125 155 154 145 149 152 157 140 72 79 119 123 103 85 97 102 90 85 47 16 23 71 88 -11 5 41 72 93 99 120 143 190 100 29
124 116 108 108 104 119 132 141 109 100 102 104 81 99 137 83 47 44 57 57 47 40 87 98 105 38 -1 10 37 87 103 18 67 95 126 140 149 146 182 197 103 80 44
110 97 108 100 109 121 129 141 144 143 110 87 77 76 66 64 63 62 50 49 42 39 95 54 -10 -4 20 47 85 64 77 123 151 154 168 160 163 171 151 123 87 72 85
92 78 102 110 126 135 150 157 164 169 161 157 110 74 73 71 77 49 47 58 102 71 61 3 10 23 49 84 93 104 145 175 173 171 152 164 162 165 148 95 96 112 114
105 107 117 129 128 132 146 159 161 157 154 154 142 107 84 81 64 55 46 104 -48 10 14 25 26 47 92 95 134 154 168 179 152 174 184 172 147 124 99 89 91 96 94
101 92 109 127 145 141 147 156 153 156 153 154 140 133 129 113 124 112 102 93 -5 11 12 42 62 90 91 148 167 178 172 170 162 157 151 153 146 107 91 87 83 84 76
116 125 112 142 145 146 148 138 157 153 146 147 144 133 67 115 133 114 -18 -35 -20 -0 43 66 94 95 148 175 177 158 161 182 175 168 172 155 93 71 82 89 80 71 65
125 138 150 145 142 138 143 150 139 142 138 137 146 134 68 124 116 13 -11 -16 1 40 60 74 93 141 172 167 165 171 180 172 176 174 128 67 51 54 42 15 4 7 12
130 133 135 140 144 121 142 137 132 132 135 136 135 132 122 119 25 -18 -17 8 46 69 71 72 119 186 170 149 142 161 172 175 166 129 114 125 127 132 60 19 7 -3 -10
115 122 133 141 148 140 135 128 126 110 119 138 131 120 119 46 -19 -12 6 38 71 76 80 96 159 198 187 161 146 149 163 173 94 127 137 138 137 130 116 65 21 -8 -15
125 131 141 141 140 137 125 127 133 131 135 132 119 114 86 -16 -8 3 33 57 72 81 106 143 178 193 169 189 178 174 184 81 62 56 82 98 120 101 66 60 45 53 33
128 135 135 138 139 130 133 136 130 125 124 115 110 97 -1 -11 4 31 50 70 77 102 142 174 210 200 202 180 179 168 133 101 68 53 78 100 90 73 65 58 52 57 52

GFSGL_con_3kmhel_024.txt.gz
Helicity
220 228 228 212 183 155 139 115 96 76 77 86 94 96 97 100 105 119 126 127 132 139 129 136 139 136 154 172 178 200 217 238 270 232 201 164 142 111 104 84 118 118 124
233 236 232 209 186 166 143 111 90 86 87 96 99 100 102 110 120 131 135 131 154 160 139 138 136 149 143 149 184 183 216 218 227 204 198 181 147 113 107 105 119 120 133
252 239 233 212 189 161 129 106 97 96 94 95 104 108 115 120 126 132 130 164 161 142 139 137 127 121 123 151 165 189 193 194 203 216 229 207 177 163 162 155 111 112 96
267 260 238 205 173 138 120 101 95 88 91 98 98 108 119 122 123 116 146 158 154 156 130 120 105 109 127 130 145 153 174 205 205 216 227 229 178 170 137 168 108 91 65
262 251 225 193 155 121 92 91 84 88 87 89 105 116 116 114 119 128 142 164 159 146 125 106 109 101 62 83 149 169 178 179 186 204 197 210 170 129 132 124 121 48 46
255 242 209 162 120 85 82 75 77 78 89 102 109 112 123 132 99 78 107 153 155 135 122 112 117 100 108 108 116 77 84 133 156 173 163 154 114 128 132 164 139 102 68
258 215 169 134 75 74 72 77 81 87 95 102 108 123 137 140 69 69 81 135 148 136 116 126 133 144 125 134 95 73 121 70 73 129 147 150 140 137 128 139 133 142 130
210 182 162 76 72 74 83 81 83 97 106 115 123 128 139 128 52 62 64 132 145 137 137 135 132 137 115 89 100 127 138 130 127 126 137 131 121 97 85 62 35 -34 49
189 174 116 74 79 84 77 82 93 108 111 130 135 129 130 115 73 58 74 130 141 141 144 140 133 118 74 46 78 103 128 141 88 60 36 30 25 17 9 -21 36 10 10
184 135 75 74 79 72 87 99 104 106 121 130 124 121 97 112 75 58 107 160 161 163 151 148 88 92 48 24 79 103 108 101 98 74 83 78 65 82 29 38 -11 -32 -13
138 86 78 71 73 85 96 93 102 111 125 128 123 116 116 118 125 112 114 146 161 155 160 148 132 55 33 38 33 87 85 54 40 26 46 125 132 126 110 104 81 50 39
98 81 71 85 92 88 81 101 103 116 125 124 120 128 141 147 126 108 89 100 87 147 129 140 140 40 36 29 44 18 -2 -40 -49 114 141 123 71 100 103 107 128 144 168
84 97 112 107 81 77 95 102 117 116 123 126 131 147 157 155 149 71 57 61 83 93 125 95 48 49 34 56 23 -2 -15 53 116 112 95 92 97 124 143 147 156 161 153
121 128 103 81 82 97 103 107 122 120 126 125 133 152 169 171 150 137 116 108 82 106 100 110 84 60 41 46 30 40 101 89 32 73 103 129 134 144 150 146 173 156 160
133 98 81 95 101 99 102 111 111 110 107 116 142 161 170 168 141 65 78 110 104 91 68 111 91 90 71 42 69 116 89 100 113 120 120 146 146 143 147 149 146 103 69
101 89 96 103 101 105 118 125 91 72 63 71 61 95 136 84 53 53 61 50 42 35 89 63 64 18 34 64 84 94 161 145 139 135 153 157 159 158 150 141 134 112 123
92 97 102 104 106 118 117 116 125 114 81 74 65 67 52 64 50 55 52 46 60 54 60 37 28 36 71 98 112 161 186 159 147 164 172 172 180 191 163 185 181 143 138
108 97 106 105 118 121 115 124 133 136 143 148 107 63 60 52 39 41 51 64 88 63 65 9 34 72 95 131 181 171 162 159 159 167 162 185 192 203 195 148 130 127 124
111 104 102 113 119 99 124 132 138 149 153 152 132 101 85 47 39 63 49 102 -18 -1 8 39 74 103 125 184 181 155 149 151 110 131 155 158 157 145 107 98 111 78 76
104 84 83 116 125 131 136 137 144 148 146 135 133 128 124 100 111 96 94 70 28 7 41 79 102 105 180 190 165 161 171 149 144 148 153 156 141 88 63 86 82 77 83
116 110 69 120 130 134 137 138 146 149 141 136 136 133 43 104 122 98 25 24 0 47 89 103 119 178 201 185 179 170 144 135 158 164 177 195 115 72 53 63 63 41 33
115 114 111 121 130 135 130 138 142 136 129 135 140 141 65 114 105 15 23 15 47 79 87 110 169 198 195 189 189 165 143 149 164 175 211 229 168 119 73 64 30 15 3
110 106 114 122 126 111 141 143 134 128 127 134 142 141 115 105 5 7 16 48 79 89 100 129 188 211 188 174 164 164 167 184 207 242 243 154 120 125 125 73 17 -6 2
107 107 114 125 139 134 142 130 121 104 114 128 125 109 100 5 3 17 39 69 87 100 129 162 189 208 216 195 183 187 199 233 286 197 118 106 93 87 90 71 16 -9 5
107 114 126 137 142 140 131 122 124 125 123 120 107 79 17 6 18 28 49 69 88 115 166 182 200 211 202 214 224 219 219 213 98 54 68 92 95 92 78 67 52 46 48
113 123 132 142 144 134 124 125 130 129 128 111 61 18 9 15 23 40 65 83 103 158 179 202 234 226 230 231 229 195 165 121 54 39 49 65 70 73 74 66 58 72 70

GFSGL_con_3kmhel_027.txt.gz
Helicity
220 211 209 209 199 183 154 128 111 96 87 83 86 89 87 84 85 96 104 102 125 139 127 157 146 143 161 170 171 182 197 215 224 185 175 153 138 145 154 120 90 112 131
211 222 226 217 205 182 149 123 103 88 84 90 90 84 83 88 97 108 121 127 140 147 139 153 155 157 159 157 174 175 192 192 203 180 185 176 160 160 138 98 74 96 123
230 232 231 224 198 160 127 103 96 91 92 86 85 84 89 95 106 114 123 128 140 144 146 154 152 149 147 158 166 171 168 160 170 195 205 215 211 159 131 111 133 107 110
237 238 236 205 163 134 104 92 92 93 86 85 86 87 89 99 108 110 117 145 160 158 147 152 141 139 142 144 150 151 160 163 167 192 218 211 190 164 164 134 104 112 110
253 239 210 168 147 115 95 91 90 86 86 81 81 86 94 107 108 105 131 161 167 156 152 153 142 107 92 105 134 141 132 148 178 179 171 183 174 109 100 119 141 148 142
235 215 183 165 142 93 74 86 93 90 77 76 85 100 110 104 67 98 125 154 159 158 164 156 160 99 87 61 72 60 67 130 123 166 189 154 130 131 127 175 194 162 98
219 197 178 155 109 79 91 98 89 75 76 82 96 114 113 128 103 101 103 140 159 175 168 164 154 130 94 123 78 46 79 64 45 97 115 130 119 134 157 133 106 121 138
196 177 156 126 104 98 96 85 74 78 84 98 109 107 135 135 96 98 98 148 164 170 170 163 129 126 111 80 94 104 142 103 107 112 126 126 133 96 54 29 -33 -24 122
181 162 139 118 106 90 89 82 75 81 100 112 113 123 138 126 97 97 128 168 175 185 169 153 120 111 71 32 74 101 88 101 55 42 27 24 11 30 53 4 93 -68 12
155 139 124 104 91 89 77 64 77 97 101 117 116 114 104 122 98 105 150 176 177 172 154 114 73 81 30 31 68 92 94 61 72 46 48 54 78 88 33 26 6 21 50
143 128 105 94 79 61 64 77 93 99 110 114 116 121 115 104 108 96 119 157 142 145 143 144 137 48 41 37 11 57 44 -38 -64 75 127 137 103 83 77 79 102 117 152
127 109 99 80 63 70 84 90 95 102 109 116 129 129 114 103 64 83 83 84 59 121 133 144 135 54 20 -9 24 5 -8 -12 107 107 87 88 100 132 145 158 172 186 199
125 117 92 74 76 87 93 89 97 99 112 115 124 114 107 116 140 71 61 43 83 104 127 87 73 47 38 45 9 -2 -13 31 98 102 103 124 135 167 187 205 197 194 199
115 95 85 95 102 94 85 89 97 108 116 110 103 113 127 138 134 134 119 110 91 104 81 106 64 55 29 14 44 46 54 90 59 80 124 168 184 191 185 166 170 171 164
104 98 107 100 89 82 89 86 96 90 103 104 110 133 148 148 130 87 102 105 100 84 68 94 92 61 31 73 66 81 103 99 98 120 146 184 201 197 190 169 192 174 163
123 116 97 88 86 92 94 93 84 85 64 62 85 121 138 85 64 75 64 61 49 41 87 100 7 20 63 39 78 121 124 115 134 139 166 175 175 165 182 188 166 166 162
119 96 90 89 90 95 101 106 111 93 66 79 84 89 74 72 66 57 65 42 56 55 89 -20 25 65 62 107 132 128 151 150 140 143 168 147 147 156 118 142 142 129 153
113 88 87 89 96 106 108 111 110 111 111 126 113 80 77 66 46 51 54 60 77 74 16 19 74 71 116 142 148 152 158 154 140 165 135 137 138 142 146 112 103 125 129
95 90 93 100 109 110 115 115 122 130 143 150 135 102 82 44 48 63 44 86 88 -3 35 74 75 114 149 160 167 166 156 156 112 124 158 141 132 123 147 87 74 60 56
102 107 115 119 121 118 119 119 127 140 146 137 129 117 105 85 98 79 77 94 9 31 68 78 111 136 163 181 181 174 172 164 167 170 184 195 186 133 98 72 64 70 50
109 116 121 125 122 118 120 125 143 151 145 132 122 107 47 87 103 99 43 -5 26 63 92 120 147 165 183 184 176 167 160 177 180 190 203 191 185 212 74 36 42 39 26
127 124 122 124 118 118 123 134 145 149 131 117 113 110 42 85 97 23 -0 21 50 84 106 135 169 184 194 195 197 191 182 195 205 207 197 201 184 148 113 27 6 9 -4
125 121 119 117 120 116 142 147 149 135 115 109 106 101 88 92 -8 -8 17 47 75 98 114 139 174 206 201 205 201 190 204 231 242 245 264 243 169 95 91 54 5 -1 -12
119 119 120 122 129 142 152 147 134 100 101 105 98 94 82 -30 -12 14 33 66 91 109 141 162 194 214 223 201 191 197 212 234 260 290 172 118 99 76 82 68 51 41 -22
119 122 124 135 146 150 141 131 111 103 107 102 101 55 -41 -14 7 25 51 77 98 136 164 180 215 218 192 206 226 233 223 210 169 76 59 66 61 78 79 74 68 62 52
119 127 144 157 152 138 126 116 110 106 107 106 73 -36 -18 9 21 43 70 91 123 157 173 202 243 229 236 237 246 207 197 177 45 20 29 59 60 69 73 59 37 41 33

GFSGL_con_3kmhel_030.txt.gz
Helicity
256 252 240 212 203 191 177 151 136 128 134 137 135 136 122 107 100 103 107 102 119 108 123 139 155 156 166 179 190 208 225 224 253 205 176 145 132 123 141 139 112 118 98
241 247 226 212 199 187 174 147 128 139 139 131 132 123 113 106 103 109 113 107 105 134 148 157 160 158 163 161 185 192 205 200 209 181 173 156 154 148 114 100 98 98 121
248 238 228 208 191 185 157 142 144 140 125 133 131 123 112 103 101 105 99 110 139 151 149 161 156 170 171 171 184 185 178 175 181 194 211 207 195 147 144 125 91 69 73
240 237 212 197 187 169 155 139 128 120 134 138 129 111 103 103 98 93 111 134 143 148 158 172 181 180 164 156 156 155 172 170 169 195 215 179 189 140 149 80 32 53 122
234 213 203 190 183 165 141 124 122 138 135 125 114 108 108 100 91 104 125 132 145 163 182 187 172 140 112 131 156 167 148 151 175 163 167 189 186 63 66 87 135 148 145
200 202 190 192 168 153 130 132 141 140 128 112 113 105 97 100 99 106 126 157 166 170 166 162 171 128 121 106 99 72 77 125 113 170 152 123 108 125 128 172 162 115 7
197 194 189 171 160 146 142 143 137 129 111 103 100 105 101 111 98 117 145 174 172 161 165 176 178 168 126 123 81 55 82 68 115 129 110 131 108 127 94 99 117 152 157
196 189 178 168 162 148 140 135 126 106 105 106 101 96 100 97 120 153 150 165 160 160 169 176 173 130 110 88 103 137 152 98 88 105 118 94 97 85 62 42 21 69 177
186 185 173 161 149 139 145 147 103 103 105 100 96 98 103 112 120 136 144 153 138 140 157 172 114 103 68 39 96 105 96 98 79 38 46 42 43 36 22 -4 28 37 110
178 171 156 146 149 151 134 113 95 100 87 101 104 111 108 129 94 113 121 133 134 157 157 110 64 73 41 51 78 89 82 31 82 98 86 65 63 77 31 45 107 141 169
177 163 156 155 147 122 108 100 97 92 96 106 117 121 114 106 115 79 94 144 148 161 139 135 116 48 42 28 27 76 53 43 56 38 92 90 98 115 132 139 157 164 183
164 167 166 148 125 126 122 104 100 102 112 119 124 117 109 108 70 83 104 115 107 146 143 131 116 46 28 27 30 9 -2 -28 69 72 67 98 118 153 161 151 154 170 186
171 179 158 145 141 123 106 96 103 115 124 122 112 123 116 110 130 83 87 95 101 120 135 87 63 50 34 33 18 -2 -21 29 43 73 92 125 134 166 189 197 195 190 197
181 168 158 147 125 106 101 101 115 122 122 117 127 129 123 126 137 138 133 127 113 116 89 106 74 52 -20 37 52 24 55 48 27 66 88 122 126 125 134 149 184 184 197
171 156 135 114 107 104 110 106 115 106 113 131 131 132 138 137 132 111 112 117 116 87 69 99 85 39 83 63 53 59 74 60 68 67 84 106 111 111 143 133 164 163 172
153 128 109 111 108 112 122 125 105 106 102 102 110 135 160 114 85 86 77 87 53 53 92 90 41 88 41 69 81 107 99 79 104 97 123 124 145 142 143 152 137 154 162
131 114 112 114 117 120 124 129 135 118 86 91 109 130 109 86 78 74 84 54 61 60 91 58 86 45 73 97 116 120 131 147 148 168 186 192 164 168 116 150 154 147 161
123 120 117 113 115 119 127 130 135 131 120 121 121 101 90 70 59 83 61 71 75 69 46 72 51 87 106 131 143 146 155 156 153 166 173 179 192 90 102 134 155 131 132
125 120 117 116 120 127 135 141 142 131 130 135 134 111 87 49 61 64 52 88 54 16 78 54 91 105 132 149 149 149 148 151 120 138 184 185 177 175 88 103 113 73 54
127 127 122 127 127 132 138 136 132 138 139 137 130 118 101 84 90 73 79 83 12 53 57 81 98 113 142 158 158 157 162 163 168 181 195 194 178 163 88 79 61 51 63
130 117 116 128 131 132 128 132 144 144 141 132 120 104 57 95 92 87 -27 -20 33 55 76 96 118 147 172 173 167 173 176 195 202 210 205 197 178 156 133 127 39 26 16
116 116 119 126 126 126 132 145 147 150 136 122 114 103 53 93 76 -43 -18 12 38 60 90 113 148 174 181 172 173 183 204 216 219 200 198 209 185 161 136 92 36 21 -3
118 120 124 126 130 131 153 150 149 133 118 110 112 105 94 84 -49 -22 10 33 50 80 107 118 152 187 186 186 192 213 244 255 232 220 259 263 215 141 96 75 44 13 -0
126 129 126 130 138 151 147 144 131 102 101 107 103 100 91 -45 -14 8 27 47 72 103 120 143 164 198 216 217 216 220 234 235 242 321 222 133 87 78 91 84 66 43 -30
131 127 131 136 141 145 137 127 114 106 105 103 100 89 -41 -22 13 21 40 62 91 116 146 155 192 218 224 234 239 237 227 193 125 39 52 78 85 66 65 59 52 47 30
124 131 135 142 147 137 126 122 115 110 109 99 86 -38 -24 17 30 45 65 85 100 134 157 186 230 243 250 233 236 225 188 133 38 44 60 87 70 66 52 44 20 14 -10

GFSGL_con_3kmhel_033.txt.gz
Helicity
291 276 271 242 218 208 202 181 168 164 165 167 166 167 158 149 138 126 113 97 112 108 118 129 125 136 168 166 164 173 191 201 256 242 217 186 171 148 131 107 99 97 110
280 273 254 231 224 220 197 177 160 170 163 163 170 170 158 143 124 118 112 106 105 111 110 126 139 153 162 170 191 181 202 216 242 197 208 184 156 141 149 132 117 111 140
276 268 253 238 226 203 184 168 171 174 167 177 175 162 142 124 116 109 100 103 108 112 121 145 151 163 181 191 196 207 188 161 182 199 210 198 201 175 153 143 134 103 153
260 253 245 222 200 185 173 177 182 164 180 174 152 141 130 113 104 97 107 109 111 118 137 145 154 178 195 194 178 176 181 184 185 185 200 196 211 176 199 156 101 118 156
252 242 222 206 196 184 185 189 172 177 161 148 147 134 123 109 97 96 103 108 118 130 133 145 169 182 173 174 186 174 151 167 176 181 227 201 184 151 112 130 169 129 161
228 222 207 200 189 188 193 181 181 168 154 147 143 122 109 106 90 103 118 133 133 132 154 176 203 161 147 110 97 74 87 111 121 176 168 140 127 145 163 181 170 165 117
217 202 193 184 191 194 186 190 170 153 146 143 122 112 112 107 82 97 107 134 143 163 179 196 190 152 113 131 90 56 76 123 96 115 140 149 139 143 93 49 94 153 223
206 194 183 190 199 191 190 170 156 149 134 122 116 112 109 108 97 96 93 156 177 182 190 168 150 124 108 82 104 129 96 98 109 115 118 127 100 49 37 86 125 173 260
182 180 189 193 190 179 176 174 147 128 120 117 106 105 115 109 82 105 143 166 169 176 151 131 97 100 67 39 104 106 94 101 85 49 56 55 44 41 62 106 129 112 197
169 193 196 184 180 190 175 158 110 113 105 105 109 114 92 111 104 125 135 165 168 156 142 108 90 85 41 48 85 84 91 95 110 99 70 69 82 114 51 82 132 156 192
198 196 196 204 193 171 145 122 121 111 109 115 106 103 110 127 135 108 124 161 152 150 139 136 120 51 39 32 29 82 89 24 55 29 101 117 120 116 118 121 141 179 170
208 218 213 193 171 149 147 122 113 116 107 102 112 122 133 128 92 113 121 111 107 142 132 129 114 41 28 26 32 35 -12 6 79 103 106 105 89 102 110 120 146 172 217
219 211 195 176 164 143 134 124 112 104 102 109 120 135 137 124 138 90 88 84 93 111 137 80 56 46 39 49 33 -13 -20 104 106 114 118 110 129 133 138 139 153 155 186
219 202 177 158 149 136 122 105 97 98 108 117 127 137 140 128 129 139 135 129 104 117 96 105 74 59 46 55 62 70 90 93 78 118 142 155 161 174 158 140 156 162 169
191 166 159 147 139 123 106 90 98 95 107 126 134 142 138 132 125 121 124 121 117 96 80 104 90 77 81 84 79 91 104 97 112 136 143 154 163 160 190 159 172 173 181
176 159 142 135 121 110 107 108 101 104 99 103 111 123 141 117 114 109 76 86 58 66 94 88 90 87 88 81 97 113 130 105 140 143 151 174 169 154 103 128 141 160 173
156 143 133 125 109 105 109 113 121 112 99 101 103 111 124 116 99 71 81 57 78 68 94 95 92 97 95 109 130 140 157 168 154 163 174 189 158 160 124 73 98 94 150
144 141 119 104 101 104 111 119 126 127 123 118 104 111 113 82 57 73 66 80 75 71 86 82 96 96 111 130 147 150 161 169 152 156 167 156 155 153 136 69 80 102 112
132 117 108 108 107 112 119 127 130 131 129 131 134 119 100 51 50 69 66 88 82 66 70 90 96 108 134 151 154 154 163 173 141 158 181 169 165 147 150 118 80 62 75
122 119 118 114 115 120 126 124 129 129 132 138 139 127 99 75 102 78 77 73 47 55 76 91 104 123 143 155 157 157 165 172 172 168 167 163 161 162 155 133 82 77 77
115 111 123 126 124 122 122 125 128 132 137 140 127 100 53 94 104 95 74 -22 17 54 89 89 114 143 167 180 170 174 179 202 185 170 160 177 173 161 136 111 98 73 43
115 118 122 121 117 118 118 132 138 141 136 124 114 98 45 94 92 -49 -20 5 33 74 91 114 144 168 187 197 193 202 198 202 191 173 203 206 177 152 137 139 101 35 15
123 124 122 121 119 117 139 139 139 131 115 111 107 97 86 87 -63 -30 5 29 56 83 103 121 155 196 200 203 206 208 230 237 214 230 272 239 195 164 122 95 79 17 -29
128 121 119 119 123 143 138 133 123 99 98 104 103 99 94 -56 -27 8 29 53 75 98 123 148 187 215 229 218 201 201 197 202 251 312 206 136 91 69 70 78 64 55 27
119 119 121 125 130 133 126 119 113 103 97 98 95 89 -48 -30 8 31 52 66 85 113 143 173 206 219 212 213 223 217 187 169 120 83 84 71 70 66 76 52 30 8 -14
115 120 120 126 133 129 118 114 106 101 100 92 86 -40 -26 17 44 61 77 79 90 128 169 202 229 223 215 199 219 180 145 120 52 25 59 76 79 75 64 37 7 -14 -28

GFSGL_con_3kmhel_036.txt.gz
Helicity
354 336 338 313 279 250 223 185 165 155 149 151 150 150 149 141 130 124 114 105 118 113 116 118 123 147 185 202 213 212 205 202 235 239 202 169 158 132 150 130 109 99 112
343 335 325 296 258 238 211 181 158 156 149 148 152 157 143 131 126 125 116 110 110 117 113 129 137 158 173 183 191 184 201 204 243 226 202 172 165 155 141 106 113 144 187
347 321 297 272 246 223 195 170 159 149 155 155 161 147 136 130 123 113 103 102 104 111 117 129 142 163 162 158 170 194 198 189 204 213 213 195 215 157 140 146 124 158 180
309 292 269 245 223 193 174 169 163 156 148 159 139 134 131 118 103 96 101 98 106 118 134 149 154 145 134 146 165 180 203 205 186 192 214 200 188 166 137 145 122 158 175
281 266 246 223 204 190 181 171 172 140 154 135 134 132 124 104 94 89 92 101 118 137 136 134 131 121 112 151 190 199 175 170 174 188 205 143 130 102 127 158 121 131 211
246 233 216 215 201 191 178 172 152 157 143 132 137 124 104 93 73 78 97 126 139 138 128 128 169 128 150 118 115 98 101 97 138 135 134 144 145 155 108 123 181 195 235
229 217 214 205 199 182 171 159 154 147 133 137 117 95 94 90 70 82 98 145 146 129 133 165 177 176 137 160 105 65 64 79 83 115 133 144 72 105 119 138 163 205 236
223 213 200 196 188 176 172 155 146 135 132 102 91 95 90 86 86 97 100 138 126 142 167 167 166 152 132 84 102 128 106 95 119 121 112 111 110 96 105 133 140 150 228
203 193 178 175 182 166 161 150 137 124 103 99 88 81 92 86 98 104 93 118 148 157 163 145 135 120 64 25 103 104 93 102 87 41 48 43 50 45 58 105 123 110 139
174 182 193 188 168 154 145 141 107 92 101 88 85 83 77 108 87 72 84 143 149 161 150 146 98 84 27 42 85 86 92 96 95 84 75 73 73 103 54 91 113 128 139
213 215 200 174 163 151 129 107 115 101 92 90 86 96 99 95 95 77 106 140 149 160 154 139 128 40 35 39 34 82 89 65 29 31 95 112 128 132 137 143 123 143 157
218 209 187 171 150 133 140 115 98 95 94 94 96 99 107 103 76 97 104 120 111 149 130 128 111 38 34 31 44 29 16 23 76 92 108 129 128 150 165 154 152 172 206
210 189 170 162 152 135 115 102 94 92 92 89 94 106 111 101 119 81 96 84 74 101 126 72 52 48 39 50 24 16 18 88 83 99 123 137 150 168 155 145 162 168 198
200 181 167 154 132 114 104 93 93 90 92 94 100 106 115 115 118 128 121 120 88 102 91 107 77 62 41 34 54 61 91 83 74 117 149 161 157 142 151 147 154 166 174
184 168 146 128 125 109 96 84 88 85 84 94 101 109 120 130 120 96 120 116 120 94 86 115 95 75 76 74 73 91 102 103 121 139 141 141 143 131 157 142 161 154 109
154 138 131 121 109 107 103 101 100 82 76 82 89 113 134 106 99 107 83 94 74 66 100 99 92 88 84 78 97 119 133 113 142 141 136 147 142 147 145 143 132 135 53
148 127 117 122 112 106 109 112 109 104 85 84 106 115 114 106 101 86 101 75 87 73 94 98 100 97 100 112 126 141 156 165 141 151 161 184 169 161 103 119 120 39 78
131 143 123 109 105 104 106 106 110 115 111 118 113 109 96 77 72 81 89 88 92 74 88 93 99 103 118 124 143 154 164 159 145 154 171 162 166 153 139 128 92 60 71
127 115 110 107 104 107 111 112 114 116 126 127 123 100 86 63 52 75 70 104 84 63 75 85 99 119 128 143 164 160 159 172 146 167 167 161 153 141 149 145 89 63 39
119 119 115 111 113 113 114 115 116 123 122 116 122 116 107 85 111 92 89 85 62 66 70 91 115 127 142 162 174 179 192 186 167 148 140 157 168 159 156 145 101 75 76
105 104 122 116 113 113 111 114 122 115 115 120 116 100 52 98 112 102 81 4 36 55 86 100 117 146 174 187 192 192 193 197 171 156 165 177 174 163 146 138 132 105 41
106 110 113 118 116 111 109 118 116 113 115 113 111 98 46 101 103 31 -11 24 36 74 105 117 155 185 199 208 207 211 209 203 182 179 199 197 184 165 150 145 127 89 9
114 121 126 120 115 107 117 115 112 113 105 103 100 96 94 95 36 -14 31 37 58 93 109 134 173 207 204 196 200 216 226 231 213 230 250 244 214 180 133 93 76 51 -18
124 130 126 115 113 122 117 116 115 90 92 97 93 93 92 46 -14 34 45 59 81 109 134 164 194 215 216 198 201 205 200 213 251 316 231 168 113 92 89 84 34 16 -15
132 127 121 117 117 117 116 119 104 98 98 93 94 86 26 -15 30 55 63 75 100 135 161 181 210 218 205 198 205 184 165 141 121 80 89 88 103 81 71 49 4 -20 -31
126 120 113 114 119 124 125 109 102 106 104 100 91 21 -10 33 69 89 91 91 118 160 185 212 234 223 216 198 196 138 120 81 60 25 60 81 79 69 52 27 -15 -37 -38

GFSGL_con_3kmhel_039.txt.gz
Helicity
335 367 395 358 313 273 231 198 178 154 131 120 114 113 114 122 129 127 112 100 98 96 106 116 117 129 146 157 170 186 199 190 237 234 194 134 99 82 84 71 69 88 129
381 406 397 360 303 260 216 185 156 150 129 115 109 114 119 130 124 108 98 92 94 102 112 131 132 147 134 138 166 166 167 163 204 187 159 143 120 80 71 91 129 119 98
400 410 363 309 273 235 198 174 154 135 123 114 112 121 124 122 97 82 81 87 100 112 127 126 123 121 126 144 145 145 145 158 154 183 183 192 134 103 124 106 78 94 82
367 347 306 256 234 206 184 162 141 127 126 105 112 111 112 91 80 85 83 96 112 118 118 112 108 125 138 122 111 104 152 172 157 169 205 174 156 118 118 107 89 96 90
335 306 264 241 222 196 173 154 143 141 123 98 96 107 93 81 86 87 93 107 114 114 104 107 126 124 82 98 154 179 170 165 164 181 208 125 112 112 104 95 42 122 119
301 275 229 214 194 178 164 154 151 139 89 92 109 100 93 88 79 85 101 111 118 112 108 114 121 92 87 82 121 106 118 124 113 128 115 125 108 109 65 124 141 103 149
263 217 201 188 186 175 158 150 139 91 90 107 96 88 95 83 73 89 90 117 119 110 111 109 104 113 103 131 100 71 78 55 70 105 108 104 112 11 60 109 90 121 164
219 202 183 187 184 163 152 135 97 94 108 90 92 89 78 78 84 86 89 112 112 112 102 85 98 105 111 96 115 131 86 67 83 90 85 106 113 70 83 102 80 95 185
191 185 180 169 159 141 132 102 108 102 92 91 73 77 86 86 81 84 97 111 117 94 80 74 94 102 85 58 111 99 79 72 64 34 42 56 43 27 63 129 149 152 150
183 178 163 150 136 126 105 116 100 89 97 83 81 81 74 77 80 83 93 112 90 102 97 103 93 103 55 50 84 86 87 56 65 58 72 63 47 56 57 98 128 148 155
198 174 151 139 141 118 116 98 96 99 88 88 87 87 84 90 88 88 93 105 105 121 130 126 115 56 36 36 34 76 74 55 38 62 64 62 70 75 82 94 84 124 155
164 169 163 144 125 115 116 107 97 95 99 90 85 94 101 92 91 96 80 88 99 142 123 112 95 36 32 33 50 36 18 23 65 57 58 92 89 103 123 117 110 133 150
184 167 145 134 128 110 110 103 98 95 82 83 89 94 98 101 103 72 68 79 88 109 118 66 44 46 36 54 35 15 17 55 52 60 88 105 110 123 119 108 112 111 123
164 137 128 130 121 109 101 97 85 75 83 93 94 92 94 91 86 78 86 107 89 100 79 102 76 61 54 43 39 43 59 58 60 78 102 116 120 113 115 95 93 86 79
144 132 132 124 115 108 95 71 72 70 70 79 83 92 82 84 85 84 118 111 125 105 87 105 80 61 52 46 52 65 68 69 84 93 104 105 106 96 110 94 102 77 31
142 128 118 112 103 94 84 87 85 96 96 98 94 102 106 81 90 111 88 97 85 74 99 83 61 57 54 56 69 88 97 90 102 110 112 115 121 118 105 108 105 108 21
134 117 113 105 91 88 92 101 105 113 97 99 102 95 88 94 105 97 104 80 87 75 81 62 65 62 74 101 113 121 131 131 124 125 128 144 144 134 86 117 119 92 46
120 124 97 86 91 97 102 105 100 99 96 96 97 106 102 93 85 84 96 84 85 71 64 60 71 85 109 119 132 140 150 149 135 131 122 100 118 131 133 133 137 46 49
108 96 92 96 99 112 104 103 107 104 98 98 105 102 99 66 57 75 80 97 65 18 30 64 82 116 128 140 155 154 150 161 122 113 114 130 147 151 162 149 150 62 14
100 118 115 107 107 106 109 113 109 103 104 109 107 103 90 76 97 87 75 55 -10 23 62 84 109 128 143 153 155 151 161 158 144 138 151 175 176 171 165 150 140 94 32
100 106 121 109 110 112 111 109 102 106 111 106 99 87 47 90 92 79 10 -15 13 59 80 101 129 149 163 162 158 162 171 188 179 179 190 197 193 179 144 107 105 95 43
103 102 108 114 111 107 107 109 114 115 111 106 90 83 48 85 78 -3 -8 19 52 75 103 131 158 173 181 178 170 179 187 199 197 188 193 192 191 149 116 86 78 61 24
106 113 116 111 110 110 120 124 123 116 106 87 82 79 74 71 -6 3 29 56 79 102 123 143 170 192 182 180 183 200 212 219 205 212 226 205 185 158 122 51 -15 -18 -13
115 115 114 117 115 129 131 126 119 101 88 83 81 79 70 -6 -0 43 57 80 106 130 154 167 181 203 198 188 192 197 206 209 210 291 236 166 115 86 39 -1 -17 -16 -29
115 119 126 131 134 134 127 122 111 95 86 84 83 71 21 -10 39 62 83 104 137 158 170 165 183 193 189 195 199 198 188 135 124 141 108 92 84 59 44 -5 -21 -22 -15
118 126 129 134 135 132 126 113 99 93 92 85 78 48 -16 36 72 96 118 130 151 161 172 179 196 194 193 183 180 146 119 107 120 56 83 96 83 52 36 21 -0 2 25

GFSGL_con_3kmhel_042.txt.gz
Helicity
220 236 284 380 381 312 255 226 216 183 150 133 112 99 97 91 88 89 105 117 124 119 116 115 110 110 114 126 142 157 174 187 220 219 199 169 149 123 120 112 117 91 112
237 291 378 387 342 274 242 236 194 175 150 129 112 101 91 94 98 100 114 119 110 112 115 110 104 123 122 139 160 171 194 200 213 183 172 149 139 120 100 96 94 99 92
301 384 399 315 263 270 244 218 187 164 146 127 105 92 93 99 94 105 115 106 101 100 106 106 116 132 136 162 167 185 191 186 175 194 187 160 151 129 87 109 75 75 70
381 363 336 276 274 262 230 200 177 152 133 121 106 99 100 93 98 107 97 90 94 100 105 110 126 133 141 149 157 159 171 175 154 171 181 183 162 113 108 92 72 64 78
390 354 298 287 263 247 218 187 160 144 133 118 100 98 93 99 108 99 86 90 96 104 107 117 126 136 118 132 175 159 163 172 166 170 196 185 120 103 77 65 75 64 77
341 304 271 268 245 217 185 159 148 136 127 99 96 99 97 97 107 82 92 100 101 105 108 117 128 124 133 124 133 113 108 126 142 159 157 132 88 84 74 61 64 24 15
277 255 251 234 209 180 159 149 138 136 99 99 103 98 94 95 95 96 93 92 110 110 112 120 133 159 144 151 116 61 76 70 85 112 112 86 83 64 81 53 18 16 128
223 230 213 190 178 158 146 143 138 93 100 99 101 97 88 92 92 86 88 85 104 113 116 119 140 142 131 107 96 123 123 91 81 95 75 69 74 90 79 14 9 42 161
201 189 166 151 149 138 143 132 91 93 103 98 90 85 91 88 95 89 86 98 114 115 120 109 124 90 69 67 116 117 94 71 59 45 32 22 29 12 49 95 92 93 117
159 163 156 148 144 144 121 86 103 104 98 87 85 74 84 82 87 74 89 121 121 138 124 104 85 92 77 62 99 96 91 58 53 47 51 45 39 43 31 79 115 116 112
168 174 169 146 134 106 98 105 100 100 94 87 75 79 79 86 89 97 101 112 135 145 120 108 102 87 57 59 49 71 72 54 30 46 56 56 50 54 66 72 87 112 121
178 164 135 116 105 104 106 104 105 98 82 82 81 80 92 101 109 103 101 117 124 134 108 97 100 55 50 36 49 45 27 25 64 66 61 62 69 83 86 89 77 99 130
150 131 126 111 113 114 116 108 92 86 83 81 86 88 93 108 107 109 107 102 86 94 107 74 37 49 38 45 40 22 29 65 64 69 77 86 88 96 88 97 88 86 91
130 122 113 125 126 115 103 93 85 85 85 85 80 82 90 94 111 136 120 99 75 103 88 86 65 49 41 40 40 50 65 66 72 84 86 89 86 80 91 87 79 78 88
128 128 131 122 115 103 94 89 90 92 77 71 85 97 101 111 129 106 98 101 112 98 82 87 78 66 59 52 57 60 68 69 73 76 92 92 74 69 90 85 90 89 91
135 123 116 109 102 102 100 89 80 63 67 86 100 105 116 113 108 103 86 68 80 65 91 87 76 64 56 56 56 57 72 74 90 100 105 99 104 93 83 97 98 97 98
125 117 110 107 109 101 86 82 87 99 89 89 103 122 121 105 104 99 97 78 70 80 89 78 70 64 64 64 67 82 109 110 104 106 106 109 105 106 85 122 116 108 103
132 129 115 107 92 82 85 92 100 103 100 113 125 123 104 91 85 90 105 78 86 76 67 62 65 68 66 66 79 98 117 127 130 122 121 122 129 124 128 130 122 109 111
118 106 94 87 87 92 97 102 101 101 110 110 109 102 109 76 65 79 84 83 58 9 42 60 67 69 73 85 100 116 121 149 131 125 133 138 145 130 146 133 117 71 38
105 99 89 91 98 105 107 103 103 111 110 107 107 110 100 84 80 73 64 52 -36 6 44 58 63 69 86 108 126 127 133 144 135 135 144 148 155 154 149 116 70 87 65
84 92 100 104 114 108 100 107 114 117 115 111 108 99 77 85 76 62 45 -29 -9 25 47 56 66 95 120 133 135 136 149 159 150 147 156 168 162 151 129 74 45 69 70
90 101 111 116 104 101 114 120 119 118 114 112 102 92 68 79 67 43 -23 -0 11 38 54 69 98 127 154 164 164 172 177 178 172 158 172 206 185 169 143 51 49 28 9
107 115 112 106 108 116 122 122 121 122 116 106 102 90 76 67 45 -25 11 19 30 47 62 83 115 164 168 170 176 195 208 216 206 203 239 244 203 180 141 12 -28 -18 -16
112 112 109 119 126 126 127 127 128 116 110 109 96 82 72 48 -22 14 26 30 51 72 88 109 145 164 175 173 174 177 195 225 234 296 289 205 123 76 -31 -29 -23 -9 1
109 112 120 125 125 131 133 128 123 119 118 104 88 76 48 -26 10 33 40 52 82 101 120 127 158 158 162 162 158 162 190 166 197 142 107 103 78 53 11 -15 -1 9 22
115 118 120 127 137 135 129 126 122 121 106 95 78 50 -15 7 43 57 63 81 93 122 142 154 155 152 161 140 127 148 142 123 66 49 92 92 79 62 31 23 30 36 53

GFSGL_con_3kmhel_045.txt.gz
Helicity
230 277 247 232 278 401 428 357 340 251 209 182 169 133 113 106 97 92 114 119 106 99 106 122 134 132 135 140 150 161 178 185 210 227 216 213 207 175 159 138 110 123 109
266 256 238 254 348 427 405 334 227 205 195 196 145 129 118 106 101 112 113 109 100 98 122 134 122 126 135 135 151 160 184 190 207 194 216 201 166 133 123 114 116 134 119
247 241 265 329 405 410 342 235 206 223 219 166 142 123 108 108 111 113 116 101 95 112 121 119 121 128 134 150 167 184 199 219 227 232 219 193 172 149 125 125 123 95 114
252 269 332 369 367 323 289 246 245 210 182 154 133 120 113 110 109 115 94 90 103 107 106 111 116 127 135 164 204 211 218 227 221 225 209 184 162 132 128 124 110 112 86
283 332 391 371 333 284 276 263 233 200 171 149 124 108 106 111 123 107 101 106 101 99 104 108 123 151 152 146 185 191 193 210 204 188 177 166 153 119 106 105 102 81 94
354 405 366 315 273 264 254 218 200 178 152 126 112 107 112 108 121 104 100 97 88 96 117 130 145 144 160 175 153 151 139 163 146 151 153 152 116 112 105 91 78 91 96
408 363 275 247 262 240 215 200 172 152 122 111 102 119 99 99 119 96 86 82 92 100 120 135 150 166 178 183 172 130 140 70 50 90 122 128 113 101 94 117 105 95 118
355 342 208 228 225 204 200 177 150 125 110 107 112 92 93 95 108 85 86 76 94 109 123 128 144 155 160 158 177 162 136 106 90 111 116 115 106 98 126 121 99 98 126
276 223 157 191 200 179 170 153 133 121 111 99 100 90 83 80 124 95 90 100 110 108 115 141 149 144 117 110 137 146 114 109 76 46 58 26 16 10 40 100 110 113 117
124 160 158 169 163 160 147 136 121 111 107 95 84 71 85 78 100 114 107 93 110 146 158 136 107 122 113 98 111 115 104 90 76 62 67 64 58 59 28 73 109 131 134
151 159 164 163 161 144 117 109 110 101 83 74 69 65 78 96 103 98 95 115 138 151 138 139 144 91 78 47 59 86 86 71 56 69 81 87 85 80 80 85 91 123 142
165 180 178 148 110 103 114 98 91 83 73 74 88 89 100 105 113 111 102 88 78 128 135 136 116 44 39 38 52 47 37 37 88 91 93 95 90 92 92 88 75 100 149
181 155 124 116 113 93 84 88 82 81 86 89 93 86 95 121 118 111 108 93 104 130 129 86 34 35 36 55 45 33 45 88 89 96 108 124 122 124 109 103 103 113 112
134 116 113 103 92 92 88 85 86 85 84 82 88 102 107 105 120 163 149 136 107 115 94 93 67 37 44 52 59 70 84 86 86 101 121 141 143 133 135 125 124 133 139
127 109 104 93 99 95 92 86 84 105 101 97 106 102 101 117 137 128 113 114 107 96 77 98 81 70 73 73 76 76 82 91 98 119 139 145 147 139 142 120 132 142 145
117 101 99 96 95 87 79 81 85 94 93 85 85 101 115 104 115 107 85 57 67 55 102 84 71 73 75 74 78 85 99 92 119 134 142 140 140 140 140 148 138 134 138
111 108 98 95 94 92 94 98 95 91 66 60 72 103 99 105 114 102 78 72 60 75 87 69 75 77 76 81 85 100 119 126 119 145 143 142 140 138 99 142 148 149 140
126 120 104 103 100 98 102 95 88 89 99 122 143 128 111 105 89 73 93 77 85 74 62 64 71 72 75 85 105 130 145 138 135 134 139 144 151 154 155 161 167 126 98
104 105 101 96 103 98 86 81 87 103 117 126 134 129 128 87 66 80 95 91 72 52 11 62 67 68 88 114 141 151 150 149 132 144 150 155 161 158 162 167 125 44 29
114 115 103 93 87 83 88 94 106 117 124 133 135 127 110 87 90 84 81 60 42 -24 30 58 64 87 114 146 157 153 149 155 159 162 164 168 171 176 134 66 70 68 95
92 93 87 88 95 95 95 109 128 136 143 137 119 100 79 100 85 82 61 40 -12 11 46 65 85 118 144 161 157 157 167 184 184 188 195 196 199 179 141 59 54 71 110
87 92 95 96 91 101 122 129 139 143 129 117 109 101 76 91 86 66 44 -6 11 42 69 86 122 147 156 160 159 172 187 202 215 210 216 222 216 200 145 84 62 68 29
92 95 95 100 107 109 133 147 143 136 122 116 115 102 91 89 69 45 -3 15 39 78 96 117 142 159 155 159 175 190 211 248 243 253 289 279 244 205 149 72 21 12 17
101 101 98 109 129 138 145 148 142 123 120 117 109 95 93 71 41 -3 18 36 76 111 125 145 158 157 165 173 175 180 221 253 265 317 237 200 135 68 34 13 9 33 37
94 94 107 125 134 139 143 145 145 142 133 123 106 93 70 42 -5 32 50 65 97 125 145 142 149 154 162 157 153 164 187 158 163 111 130 116 102 87 71 60 53 58 43
96 106 118 129 137 145 151 158 160 150 141 117 95 68 43 -0 40 66 84 108 116 127 146 147 147 139 152 140 138 124 103 123 89 63 108 106 106 106 89 81 75 68 55

GFSGL_con_3kmhel_048.txt.gz
Helicity
422 549 562 494 381 333 377 386 403 381 328 286 267 207 189 176 135 113 104 98 101 109 124 134 138 145 131 146 160 164 177 197 203 204 196 174 199 178 164 165 136 141 143
588 545 474 399 366 379 401 423 386 333 289 282 242 209 193 174 131 119 110 115 109 115 132 142 129 134 147 151 159 161 191 201 215 185 196 204 211 184 172 155 146 133 129
522 415 353 318 315 329 365 355 357 288 334 311 249 218 194 142 126 124 124 122 117 127 121 117 113 134 143 153 171 195 207 198 217 234 223 209 198 177 158 148 135 119 103
398 301 282 290 330 371 389 370 343 356 299 229 203 197 146 121 115 118 123 120 131 121 103 109 120 127 137 160 174 178 182 199 200 222 229 212 176 140 145 146 129 120 105
272 263 295 323 365 393 375 378 323 259 243 199 211 144 113 98 118 126 124 140 125 108 102 111 130 135 126 134 165 193 200 211 218 206 188 178 151 136 126 117 138 122 110
261 295 324 372 380 373 371 273 310 228 226 170 128 103 105 108 118 132 130 116 96 101 112 110 121 120 132 146 156 158 165 178 187 178 174 154 130 122 133 138 143 120 108
294 330 358 356 379 349 298 226 187 181 152 135 114 109 102 111 123 122 100 94 95 94 99 110 125 139 145 175 154 134 136 105 90 115 122 121 113 107 139 144 144 134 146
345 355 377 361 376 242 231 213 183 136 122 124 108 101 101 100 111 105 100 98 89 91 98 108 131 149 161 159 176 184 165 139 110 115 105 105 116 92 100 116 102 120 116
409 454 403 279 177 163 160 147 138 136 111 109 103 99 106 117 91 105 103 94 101 101 113 132 148 163 146 117 166 156 125 106 82 29 20 19 17 13 39 97 102 105 106
325 299 252 162 121 135 135 136 124 123 111 93 96 82 80 84 78 84 86 99 108 116 132 142 104 132 113 91 120 115 103 81 82 87 85 74 68 99 42 89 105 123 122
132 113 79 86 107 118 129 103 101 96 89 81 80 81 68 66 75 78 87 110 110 120 139 135 135 85 74 58 47 79 72 65 58 84 85 100 113 112 125 127 120 133 141
84 110 109 107 103 89 94 95 90 85 92 91 93 84 84 106 112 100 84 93 98 141 129 132 126 67 49 32 42 35 28 46 80 90 103 117 126 131 130 131 135 141 177
120 148 124 91 81 77 76 69 76 79 77 82 85 87 99 109 113 140 163 131 118 124 132 91 60 48 35 41 40 35 50 91 101 105 120 133 141 150 137 131 127 136 163
103 80 76 89 79 74 78 70 67 81 86 90 98 100 95 103 125 134 125 122 103 116 92 100 76 43 34 47 53 73 92 94 90 100 122 139 148 140 141 138 137 152 158
100 84 77 59 57 70 67 67 81 83 90 88 88 98 104 106 113 103 102 108 107 88 75 88 79 61 52 64 75 86 98 102 102 113 126 142 146 137 155 147 142 143 154
85 57 51 62 72 74 79 81 76 79 81 84 88 101 115 98 88 89 75 62 75 68 98 85 60 52 59 67 74 87 109 102 129 136 144 151 156 158 157 147 154 143 162
72 74 76 86 90 89 84 86 82 78 79 74 78 71 87 90 98 84 69 78 86 94 86 65 53 56 71 81 101 123 138 150 146 158 158 168 173 173 113 150 133 156 119
99 123 102 95 92 92 87 86 93 94 96 105 112 113 113 113 102 95 98 100 85 83 76 51 36 68 81 99 121 132 147 153 150 156 177 174 165 166 161 152 39 38 64
106 98 90 91 87 88 92 94 96 103 106 111 126 132 125 98 98 95 93 87 79 63 45 -19 69 82 99 120 140 147 152 165 151 169 179 176 180 176 175 112 51 54 32
109 109 97 85 89 94 95 96 104 112 118 129 135 130 117 111 108 89 86 77 59 27 -10 20 68 99 123 143 151 160 167 180 188 195 198 204 211 195 148 78 76 81 84
85 83 94 96 97 92 94 112 117 124 136 145 139 123 94 110 87 80 74 52 20 6 21 58 87 114 145 157 161 175 183 204 213 225 236 247 234 192 132 104 112 107 105
85 89 92 91 90 100 108 115 129 146 163 163 147 124 89 103 87 71 46 25 21 36 58 82 115 144 158 171 175 184 189 216 249 258 267 257 231 193 157 146 127 106 54
84 87 87 89 99 107 122 137 157 173 174 169 152 123 102 85 64 44 19 39 46 62 77 99 138 165 162 175 183 192 214 253 272 282 315 276 227 186 159 126 69 63 58
90 86 86 96 103 124 136 157 175 176 176 162 134 105 83 56 30 15 58 74 80 95 105 119 147 164 171 168 165 168 201 232 256 300 200 142 139 119 109 117 113 93 81
82 89 98 103 115 132 153 172 173 166 151 123 92 67 50 33 31 73 92 98 111 119 134 133 150 159 153 147 141 153 174 146 147 113 125 126 120 114 107 97 78 75 67
88 96 94 109 129 146 155 150 143 130 111 95 80 69 54 63 100 109 118 122 126 141 151 142 154 151 155 146 130 124 122 115 95 55 85 113 116 105 83 80 71 63 71

GFSGL_con_3kmhel_051.txt.gz
Helicity
460 538 560 485 410 405 349 348 397 422 412 393 357 319 219 279 228 255 156 104 106 105 108 108 122 142 162 165 168 166 166 189 199 196 183 155 171 155 157 159 153 161 152
461 454 447 408 396 344 315 324 377 403 376 359 340 336 210 249 202 237 123 125 108 103 103 119 121 154 148 145 155 148 174 183 194 156 165 162 169 169 173 172 175 165 164
407 432 422 424 351 301 304 363 381 388 367 318 283 322 261 247 191 117 131 129 109 105 113 112 126 130 136 144 147 159 175 181 188 202 189 183 191 162 161 175 175 154 140
462 460 394 347 290 293 324 333 363 390 386 253 320 319 326 201 118 129 146 131 130 137 136 134 122 125 123 129 144 152 164 178 183 188 197 192 157 131 155 161 135 124 129
430 341 310 290 276 317 373 361 406 359 294 249 290 301 141 116 118 136 126 134 133 141 140 133 130 116 114 139 175 184 190 191 201 213 205 186 147 147 142 117 126 129 125
343 307 259 277 339 378 383 404 371 318 301 313 176 139 112 112 132 140 134 137 136 129 121 121 119 122 133 130 142 143 153 176 197 213 194 161 145 120 121 120 147 146 128
289 272 292 365 451 470 420 296 272 354 258 186 158 117 125 114 119 134 142 126 119 113 106 122 137 145 162 159 148 134 132 123 110 142 138 125 120 114 133 151 152 133 135
287 355 435 501 398 266 239 300 224 158 116 69 111 119 99 100 118 128 134 119 110 106 118 130 133 125 147 163 182 186 173 133 121 120 116 116 116 104 100 108 104 132 129
318 317 331 246 262 278 270 228 133 118 124 92 81 105 103 88 88 100 106 97 113 111 110 109 125 149 136 126 179 184 153 121 79 29 30 36 38 24 50 117 129 138 132
273 273 240 189 180 238 195 100 53 42 83 92 95 88 68 76 61 74 79 95 97 104 110 125 115 140 132 116 141 138 114 79 82 79 81 66 66 91 51 113 152 164 160
88 129 105 113 104 61 26 24 63 76 89 87 97 98 100 81 73 74 73 86 81 93 102 126 142 117 98 91 90 111 85 64 71 58 53 77 87 105 117 126 127 148 142
43 36 61 13 -8 1 31 51 68 72 93 96 105 113 115 109 116 112 133 135 132 142 131 131 134 80 91 70 83 54 43 61 53 67 78 93 106 119 117 122 121 132 159
-16 -4 45 29 29 35 54 62 77 85 94 98 99 98 93 100 107 125 130 140 134 135 135 95 102 97 83 84 46 42 53 74 80 85 94 107 121 135 125 125 129 131 137
93 32 8 42 51 61 71 69 80 83 86 79 86 92 88 92 95 109 116 128 127 127 92 105 104 93 69 44 53 68 93 90 88 100 116 126 123 118 124 128 134 124 108
17 23 52 68 69 70 71 70 72 53 64 71 67 70 76 95 112 127 123 114 108 102 112 104 91 80 62 67 67 78 92 100 105 115 116 109 112 115 127 129 135 128 129
64 54 48 53 60 65 66 69 80 79 77 72 74 86 94 106 119 118 92 88 126 113 112 87 75 53 55 52 63 76 105 92 119 119 122 131 140 140 136 125 126 119 138
70 60 65 66 66 69 72 83 82 68 99 128 137 139 138 143 135 120 106 117 114 107 88 77 52 52 42 70 87 103 110 126 124 133 145 163 166 167 106 136 138 122 36
83 86 65 66 67 72 72 69 74 87 101 119 146 159 153 144 142 139 131 115 89 102 89 55 43 19 61 92 105 111 127 137 139 150 172 166 173 178 169 126 70 61 77
78 70 69 70 71 75 73 83 96 109 121 132 144 168 164 131 153 142 123 89 80 75 53 17 3 72 100 107 113 123 138 145 138 169 203 212 207 175 152 119 112 95 63
80 98 86 74 76 78 85 95 107 123 140 158 172 179 175 154 139 120 90 81 70 44 7 22 44 86 114 120 130 140 147 155 180 213 238 232 218 192 182 164 147 137 134
77 75 94 80 78 80 91 99 114 140 156 174 184 173 163 169 119 84 67 58 37 19 27 46 76 111 127 135 141 155 155 182 214 238 250 260 242 223 196 194 190 174 168
75 75 74 72 75 84 95 122 144 155 170 187 188 171 150 130 93 65 44 25 35 44 52 79 109 129 141 144 146 152 165 200 228 246 278 272 248 234 218 207 186 163 155
79 77 73 73 81 101 118 135 145 160 178 182 167 134 99 71 44 35 27 53 56 63 85 99 118 132 129 135 148 166 193 234 251 278 314 290 218 145 112 113 115 109 116
76 74 78 82 86 112 121 132 150 171 173 152 127 93 66 40 27 59 78 72 72 101 120 123 128 140 144 140 141 144 188 238 257 276 154 116 108 95 97 103 90 105 122
77 80 83 89 109 116 116 138 156 156 133 104 74 52 37 53 92 96 83 78 100 132 145 130 129 133 133 142 133 136 173 159 173 110 136 120 111 112 118 89 90 118 112
79 79 88 106 112 107 124 140 136 118 91 66 48 48 86 102 90 86 90 103 119 145 147 129 130 130 135 131 122 110 116 133 105 42 88 113 101 101 113 103 98 100 105

GFSGL_con_3kmhel_054.txt.gz
Helicity
224 293 338 397 481 497 453 462 412 434 418 389 384 408 387 392 343 366 373 246 231 269 179 128 119 115 122 132 159 199 180 200 212 205 185 165 165 146 154 166 158 174 165
262 327 367 386 389 413 361 371 378 384 366 390 401 421 403 323 384 261 299 275 161 92 99 85 95 115 122 140 182 156 182 188 211 171 183 181 169 166 175 168 183 180 179
298 329 336 298 300 296 340 335 325 339 380 409 433 408 331 357 287 282 223 208 231 181 123 103 129 142 155 177 163 165 177 182 184 196 178 193 187 180 167 161 187 157 152
301 331 319 265 253 259 235 266 290 363 419 455 466 444 410 299 311 343 309 206 139 107 150 152 157 161 142 140 145 145 153 162 172 190 208 208 206 165 164 183 160 128 131
293 337 303 292 305 302 334 346 395 456 488 482 393 364 309 262 244 210 146 149 141 159 167 168 159 146 119 126 152 145 169 193 201 228 233 248 199 161 175 131 123 121 117
292 315 336 348 368 344 393 414 488 521 544 375 388 193 212 118 105 120 151 168 163 146 145 160 156 155 172 169 162 165 170 202 221 233 233 197 171 151 122 119 118 103 84
297 317 342 355 301 411 398 462 452 424 303 305 193 152 135 129 111 121 139 152 134 136 143 146 150 145 150 162 167 177 184 164 154 185 195 157 137 117 123 117 103 114 118
250 355 262 251 325 359 367 355 372 329 298 170 109 84 84 70 75 97 115 112 129 122 114 114 121 131 145 154 177 201 202 174 159 164 145 133 132 114 93 92 91 120 144
183 189 219 215 334 295 325 325 307 171 128 92 73 72 47 66 74 74 105 110 109 104 100 123 124 131 142 135 175 193 177 149 111 47 45 45 50 37 48 107 118 117 125
111 117 168 229 246 220 173 129 114 77 58 35 18 29 75 80 59 75 87 85 89 107 121 119 132 149 128 112 167 177 154 117 110 85 94 67 68 81 53 108 129 137 132
123 154 151 154 101 72 47 63 46 8 19 46 82 101 130 115 99 100 116 118 110 99 99 115 135 120 120 141 135 146 112 79 90 59 59 72 84 93 106 112 125 148 134
16 12 18 10 9 14 16 -13 -2 20 41 77 94 112 117 114 132 141 147 143 138 121 108 125 138 109 131 117 120 75 48 71 69 68 75 88 98 107 106 107 112 121 151
-8 3 -4 -5 -16 -1 25 44 60 67 81 91 96 101 104 117 122 134 135 129 120 130 133 115 142 125 109 98 59 52 60 76 71 78 86 99 109 117 112 111 114 125 144
-9 -3 0 13 26 33 42 50 64 76 79 79 92 105 105 108 110 114 120 135 135 135 118 142 121 95 74 52 53 66 81 78 76 85 98 104 106 115 119 119 119 106 105
-5 -8 5 22 38 55 65 57 61 61 75 85 87 88 94 108 125 158 161 152 138 131 134 95 85 85 72 60 65 69 81 87 86 96 104 113 124 126 137 128 133 134 134
26 23 29 40 44 49 61 82 94 88 88 84 93 93 114 121 174 172 163 155 155 110 102 74 75 65 48 46 47 67 90 71 97 105 119 153 163 161 155 139 119 70 63
43 37 48 61 64 69 71 73 73 78 121 149 162 174 202 215 216 207 160 142 110 107 75 70 58 43 49 56 68 78 91 105 111 130 161 180 185 190 118 141 124 118 135
59 78 71 71 69 69 73 83 98 113 125 145 182 224 239 231 226 195 163 128 96 85 78 57 44 1 62 66 76 92 111 124 123 145 184 187 195 192 188 189 181 164 157
81 82 79 74 70 83 94 106 113 125 145 167 193 232 229 192 205 187 152 100 64 56 51 27 18 42 62 76 94 116 131 138 122 154 180 186 190 191 215 214 208 147 105
89 94 81 77 87 95 100 110 125 142 159 181 199 211 206 197 164 125 89 58 47 37 27 35 47 67 77 97 112 124 134 140 163 178 186 191 193 189 210 210 200 183 182
82 80 96 91 91 92 101 117 125 137 157 177 192 176 151 153 86 61 29 25 35 49 50 59 74 78 89 103 116 133 142 165 183 186 197 194 188 202 193 190 197 202 204
86 85 84 86 87 96 105 114 121 145 171 181 168 147 115 94 59 36 37 71 74 74 78 81 86 93 101 118 127 137 148 178 193 197 217 199 205 208 189 144 135 156 146
85 87 88 86 87 103 106 112 141 163 162 150 131 98 68 40 21 40 66 81 78 87 88 76 80 99 108 121 139 141 153 193 219 230 254 240 214 170 143 135 134 120 116
87 88 89 83 86 95 102 132 149 145 133 123 93 56 30 8 -7 23 54 65 80 97 94 82 99 120 114 119 128 127 153 200 221 247 165 140 149 136 130 132 123 132 106
89 89 84 84 90 96 114 135 141 134 117 94 59 25 11 -1 0 23 38 52 79 88 97 89 101 116 116 119 113 114 131 124 145 119 109 99 113 108 114 126 138 117 97
88 84 83 86 91 102 124 130 132 125 107 77 42 24 22 10 6 21 33 39 50 80 103 97 108 114 118 109 107 96 91 91 113 66 76 89 88 97 96 88 83 96 98

GFSGL_con_3kmhel_057.txt.gz
Helicity
109 103 135 215 273 305 344 396 391 416 403 430 432 403 400 390 390 423 416 415 445 340 379 310 197 216 153 127 147 166 147 186 195 194 183 172 168 144 141 162 143 157 156
104 119 185 249 260 289 322 338 377 363 353 373 349 394 441 437 413 421 378 364 314 309 386 255 273 140 195 163 140 151 151 159 193 175 181 178 172 154 150 155 158 166 177
116 116 136 181 209 221 257 259 282 307 326 367 414 489 525 467 432 374 356 346 304 269 265 238 152 177 139 133 130 141 153 164 188 206 171 178 164 152 171 168 180 173 179
69 90 130 168 171 220 255 251 255 287 357 409 451 467 431 426 399 376 384 286 294 177 142 173 145 130 125 143 148 135 152 172 178 185 186 203 192 154 181 171 187 178 173
88 116 147 176 187 219 237 268 319 374 417 449 505 521 490 451 337 411 322 287 126 84 88 122 122 141 134 128 147 150 159 175 184 195 210 237 204 173 171 183 192 161 130
137 193 205 260 300 335 378 363 406 401 452 480 487 428 392 365 337 268 221 92 99 97 87 112 124 154 163 163 150 147 165 190 199 220 230 211 174 181 180 167 166 136 91
246 285 293 275 324 366 342 366 382 457 437 422 400 329 322 242 135 117 84 87 84 93 118 131 130 143 154 145 136 138 155 143 160 187 193 175 173 145 154 144 125 122 122
181 204 199 201 245 233 297 366 355 277 285 270 232 204 142 74 32 47 60 80 108 114 109 116 115 110 113 113 138 168 184 163 161 171 157 143 138 120 111 109 101 118 132
66 58 38 104 159 159 265 197 192 203 175 199 157 78 9 10 43 62 84 85 87 108 101 105 102 107 95 112 157 171 156 144 114 53 63 54 52 44 59 111 123 120 115
76 91 141 146 114 90 68 112 92 75 95 95 26 3 37 65 62 85 73 86 98 108 119 111 103 125 116 109 161 162 143 117 112 96 96 72 73 84 57 119 139 147 124
81 106 115 86 57 105 78 36 43 42 21 -5 33 73 98 106 100 118 145 113 103 104 109 123 136 121 104 120 112 139 107 81 97 64 66 81 88 96 107 118 125 154 138
51 64 20 -11 20 8 23 10 2 1 35 46 59 85 95 103 116 129 136 147 145 134 126 137 132 92 101 98 108 76 65 68 59 66 77 90 97 105 111 116 116 129 162
-27 -11 -6 -12 -10 -17 -3 6 18 30 42 53 61 68 77 88 105 143 165 165 157 161 134 118 123 110 107 107 85 71 58 59 61 73 83 98 119 135 135 143 145 140 146
-17 -19 -13 5 4 3 11 12 30 36 44 50 64 78 94 124 141 145 151 162 150 147 135 127 120 109 91 77 63 52 62 71 73 84 100 113 125 140 150 161 164 128 116
-10 -8 -0 5 15 28 36 32 41 43 54 66 81 101 115 136 158 171 171 169 163 138 147 108 102 94 86 62 61 69 76 78 84 99 112 122 139 146 166 149 167 164 167
11 2 7 20 28 34 45 61 73 74 77 101 121 140 148 134 158 175 183 185 176 136 120 82 71 63 41 40 50 68 83 69 96 107 115 143 161 159 160 159 167 174 183
25 18 24 32 35 37 35 46 59 79 138 166 160 159 179 195 204 200 177 172 130 110 65 45 41 30 33 45 60 74 92 109 118 124 145 162 169 168 115 161 170 180 195
35 50 39 39 43 52 62 70 81 94 102 116 153 180 193 202 233 188 136 101 73 50 41 28 34 37 47 63 80 91 104 113 115 129 156 154 138 150 166 182 190 188 199
54 52 55 60 64 70 71 80 91 104 121 136 159 183 190 199 184 134 82 39 15 11 20 54 62 61 71 87 97 109 123 129 110 130 150 153 157 167 190 189 200 144 117
68 83 75 70 71 73 79 92 102 113 127 147 162 168 159 156 116 70 31 20 7 18 50 66 66 76 87 94 103 110 116 129 140 163 167 173 189 191 204 203 203 197 187
77 75 84 77 75 78 89 98 103 118 136 148 154 146 105 112 63 34 12 -3 12 21 42 65 75 83 93 101 108 115 124 145 164 177 185 182 190 196 201 213 222 213 181
81 81 76 75 80 90 98 106 116 127 131 132 145 136 96 75 43 25 4 2 12 31 52 72 87 91 100 101 106 116 122 139 167 185 184 193 195 210 209 221 187 178 170
87 85 83 85 89 103 112 113 118 115 117 124 123 112 82 49 25 19 11 7 15 28 48 64 77 95 103 116 122 128 134 158 187 192 211 212 199 149 146 153 132 142 161
86 86 91 95 102 106 103 107 107 113 125 121 110 90 61 36 20 18 17 15 19 40 64 81 84 94 93 95 109 125 144 172 187 222 231 185 143 122 137 145 125 126 133
92 97 98 102 108 103 101 112 114 123 124 121 107 82 52 34 24 27 25 24 31 45 65 78 87 87 89 93 94 103 110 94 106 129 151 165 142 115 136 139 140 123 103
97 99 104 110 106 101 106 111 117 126 125 120 104 74 48 37 31 32 29 26 30 38 52 72 88 98 92 88 94 66 56 62 77 97 103 137 135 121 116 113 128 124 111

GFSGL_con_3kmhel_060.txt.gz
Helicity
193 171 160 148 138 148 185 235 271 296 294 303 324 357 372 392 381 393 403 426 437 445 451 428 326 361 273 242 259 194 181 160 225 174 144 156 152 133 125 128 113 127 135
227 213 196 155 119 159 196 235 239 246 246 279 316 352 386 404 408 418 454 457 419 395 403 339 337 304 239 170 141 95 121 144 159 158 157 146 128 119 117 121 123 138 151
198 161 133 116 133 153 187 180 189 204 222 254 317 359 384 424 466 477 485 474 404 398 306 318 283 218 153 102 81 115 114 129 150 164 147 126 115 114 134 135 140 144 151
84 62 42 86 141 145 163 169 212 258 316 318 365 406 454 510 547 586 536 441 401 279 263 235 203 119 73 89 104 107 134 131 131 141 149 153 139 118 144 133 131 148 168
-17 -9 56 148 172 209 235 261 277 284 306 348 431 471 493 467 439 412 417 253 256 255 206 126 76 27 56 104 133 123 113 133 140 152 150 164 159 143 136 153 172 160 148
65 121 156 195 226 245 257 257 257 346 337 383 410 441 431 415 378 239 265 265 196 113 88 70 91 117 134 106 111 121 116 136 151 157 165 157 150 156 170 154 162 137 121
78 105 127 144 198 197 224 255 230 239 250 312 311 308 323 225 144 182 135 118 59 43 65 92 111 97 109 105 106 128 144 120 124 150 164 163 170 144 151 131 113 122 131
112 52 82 108 133 124 171 149 241 245 262 232 218 225 185 152 139 118 66 38 73 90 91 75 80 99 102 103 119 132 126 114 131 154 157 142 131 105 101 105 106 137 172
44 18 67 96 77 138 199 153 147 191 203 155 180 136 91 53 66 45 32 65 66 83 89 102 90 99 102 110 126 117 112 128 114 70 60 37 30 22 46 109 131 145 155
10 -12 6 90 145 119 110 120 131 119 143 122 75 29 29 33 13 48 77 68 78 99 107 107 101 100 88 95 147 150 138 113 93 72 68 52 58 69 46 109 149 172 165
31 39 54 116 111 46 52 21 16 15 23 38 31 31 57 73 97 99 83 70 78 99 100 110 122 133 140 143 124 130 88 60 71 43 47 68 75 88 103 119 133 187 168
23 23 17 -4 -14 -16 1 3 6 3 8 14 36 55 62 70 81 95 110 121 119 120 141 149 150 150 135 114 96 52 38 51 40 52 65 83 96 106 111 120 129 151 199
-28 -20 -22 -18 -18 -19 -8 -8 4 11 21 22 31 37 47 60 85 123 140 154 158 174 167 186 156 120 93 79 54 49 42 47 53 62 71 91 104 121 124 135 140 152 185
-9 -12 -17 -7 -4 -0 8 11 18 20 27 34 47 57 62 79 104 126 147 159 186 194 168 136 97 75 52 40 43 38 50 57 56 65 78 94 104 127 136 142 153 141 146
-0 -4 -4 3 16 28 25 16 22 14 27 42 54 74 94 108 127 167 183 177 165 123 128 78 48 37 37 36 48 62 67 65 71 82 93 99 121 124 142 134 165 166 192
10 5 9 17 17 18 22 31 53 65 80 84 84 96 115 133 137 165 165 137 105 65 54 17 17 13 16 42 56 69 80 69 91 102 113 135 146 143 143 157 159 175 188
26 23 25 28 26 28 29 36 43 46 93 108 121 135 146 142 147 152 128 91 36 28 3 3 2 17 41 66 72 80 92 105 119 129 139 156 165 173 139 183 177 182 196
32 47 34 33 35 38 40 45 55 68 75 75 101 126 144 146 154 116 89 58 14 3 -1 -7 7 23 48 66 74 83 95 101 110 130 160 154 161 173 171 183 188 183 190
51 44 42 42 41 49 54 65 73 77 77 76 90 121 133 149 131 88 65 36 10 -3 -3 8 26 32 49 66 78 93 110 121 110 117 139 155 154 163 190 199 204 131 106
52 65 59 55 57 60 63 68 70 74 76 76 83 99 114 146 122 81 48 22 9 14 12 25 32 37 47 73 89 102 115 129 140 148 157 162 163 178 207 214 214 192 174
68 67 76 70 65 65 67 70 71 74 73 73 78 89 89 133 101 71 41 20 25 25 29 38 48 51 54 72 90 101 115 132 155 166 173 178 181 190 203 224 231 220 199
78 78 73 72 69 72 72 72 71 72 69 74 82 91 77 100 81 61 43 34 31 36 41 49 64 74 79 83 88 95 105 125 146 173 177 196 215 210 194 194 179 185 168
89 88 82 76 72 77 80 74 73 72 72 80 88 95 98 88 71 66 53 37 30 37 47 56 67 85 92 99 114 117 130 142 146 162 185 222 234 226 170 166 165 161 171
92 86 84 80 80 80 77 74 76 72 73 83 96 102 100 91 72 61 52 35 30 35 48 62 76 87 87 90 102 109 131 146 135 159 189 242 198 132 148 162 167 134 156
92 90 86 81 79 83 75 79 76 76 82 95 108 114 103 88 70 58 51 39 34 33 35 57 85 86 84 91 101 104 103 56 83 93 127 151 143 122 147 160 135 147 117
95 90 88 89 88 85 80 83 82 85 91 109 118 117 110 91 65 53 43 31 30 28 32 68 82 88 84 93 107 80 36 28 56 55 62 117 116 121 140 126 117 128 103

GFSGL_con_3kmhel_063.txt.gz
Helicity
197 197 223 236 238 218 200 187 163 152 146 148 188 211 212 294 331 354 371 378 419 429 435 475 533 522 495 431 439 292 244 216 151 167 157 133 109 95 109 114 103 97 94
200 208 220 221 202 190 175 155 152 161 170 181 200 224 243 288 322 364 379 396 443 506 516 521 484 376 310 288 230 164 182 146 146 137 118 102 105 91 79 93 100 98 97
154 169 177 172 139 114 118 131 149 182 226 252 271 266 256 323 401 421 470 511 536 499 438 394 370 270 215 214 209 144 118 93 99 130 110 104 115 95 76 70 77 93 99
114 94 95 85 77 83 169 214 217 212 237 244 299 329 360 393 433 470 493 495 477 384 336 345 228 203 156 125 85 84 98 94 101 120 112 106 93 81 92 89 100 104 110
82 105 80 29 76 170 214 227 271 325 347 362 366 398 396 415 394 417 418 378 323 290 273 182 148 116 74 48 90 86 88 109 104 104 102 105 96 98 115 118 114 105 101
20 63 62 106 152 143 145 175 199 267 297 341 388 359 364 355 309 282 240 253 226 186 122 100 83 77 80 96 96 78 78 99 108 123 127 117 127 125 113 116 109 107 102
15 84 88 81 77 88 139 152 167 222 240 223 166 242 207 180 209 210 214 184 92 64 69 82 79 100 107 104 107 115 110 126 144 146 142 135 124 113 115 99 68 64 68
45 50 18 61 88 94 122 199 233 241 186 130 171 199 169 161 138 106 82 53 61 81 96 106 121 100 94 102 95 114 130 147 154 139 118 104 85 66 52 49 52 61 81
47 8 18 30 84 96 149 169 124 123 153 132 121 107 101 57 43 65 56 46 61 78 64 74 87 103 104 116 135 131 136 125 92 78 69 56 37 21 44 68 67 81 93
33 26 18 53 65 55 55 76 63 75 73 55 58 27 32 23 37 42 40 48 72 75 77 96 111 116 123 132 152 126 107 80 72 77 62 50 49 47 44 70 80 92 95
34 34 50 54 24 13 12 1 14 29 26 13 16 10 40 38 25 41 54 52 69 95 115 136 148 144 144 119 103 97 58 36 57 32 40 47 48 51 61 71 80 108 128
49 57 30 -8 -20 -17 1 2 6 5 8 4 11 19 25 41 63 71 80 93 106 119 132 131 125 129 116 92 68 28 16 21 27 37 43 44 44 52 61 68 68 92 131
-6 -10 -16 -14 -16 -16 1 4 6 7 8 6 13 20 28 41 63 104 128 126 124 132 123 134 107 67 34 16 8 2 15 31 41 46 47 50 63 73 76 74 80 93 121
3 -2 -13 -2 3 3 3 -0 3 2 6 11 23 38 53 73 81 83 103 125 140 124 119 70 15 -11 -7 -4 4 17 30 36 40 48 58 59 63 69 74 77 88 81 86
9 -2 -0 8 14 18 20 13 15 11 19 33 39 47 57 78 92 114 126 117 100 69 50 -2 -21 -23 -10 5 14 19 32 42 50 55 58 57 61 64 75 95 119 112 120
18 12 12 19 20 24 27 29 35 40 52 62 57 59 62 92 120 125 118 91 62 36 18 -11 -16 -8 -1 2 10 15 37 44 53 58 69 77 79 79 94 111 123 134 147
30 29 29 30 26 29 18 19 33 44 71 70 75 85 97 105 133 113 98 72 53 31 8 -4 1 -0 -4 3 9 16 32 45 58 72 85 97 102 109 103 132 139 147 146
33 52 40 34 31 29 32 38 37 37 45 56 65 74 80 104 118 107 100 73 56 21 4 7 3 2 4 9 11 16 28 41 54 74 93 108 129 146 140 139 147 162 157
51 47 47 45 39 45 41 43 45 49 54 53 52 61 70 88 104 99 93 76 46 27 17 16 11 13 16 22 25 26 30 42 51 76 90 125 148 157 166 166 162 118 101
54 69 61 52 49 46 47 50 50 51 49 49 52 59 61 88 96 88 77 66 45 28 18 21 20 25 26 31 37 38 43 45 61 81 99 130 149 165 179 167 168 179 178
71 66 64 58 55 52 54 54 53 52 47 47 53 57 44 93 90 86 70 57 37 30 20 19 28 35 37 42 50 58 65 76 95 103 117 125 136 164 173 177 181 180 170
82 73 68 66 64 62 60 62 59 54 52 52 54 59 56 87 91 81 65 48 39 30 27 27 36 45 52 61 65 69 79 100 111 107 109 113 129 162 189 195 181 181 143
92 92 83 72 65 70 75 67 60 56 55 57 61 65 77 82 91 88 71 53 38 30 24 28 37 50 56 73 84 98 108 117 124 119 112 122 145 165 202 198 148 167 146
98 92 84 77 78 75 71 66 61 52 59 67 71 77 86 92 91 83 67 50 40 30 26 27 36 43 62 77 93 107 126 132 121 121 120 155 169 163 170 139 152 164 156
100 99 89 83 78 78 70 70 63 66 70 71 77 86 99 102 98 87 68 52 44 32 26 27 40 31 44 69 86 94 98 47 73 92 110 121 131 120 111 135 153 150 128
107 101 94 91 81 77 77 69 68 78 77 78 86 93 103 104 99 90 73 52 43 31 30 40 38 10 11 5 48 82 38 26 37 37 85 116 127 107 125 132 127 169 120

GFSGL_con_3kmhel_066.txt.gz
Helicity
196 218 236 250 266 261 260 246 222 190 158 133 123 122 110 123 168 248 321 355 360 394 384 465 459 404 347 393 392 373 363 375 293 322 227 178 148 124 111 111 110 76 77
145 177 208 225 226 223 214 204 189 172 143 123 109 124 141 155 174 219 280 318 356 387 390 387 388 353 366 349 329 305 317 261 282 172 192 179 146 153 155 115 112 106 95
131 132 148 174 190 201 187 158 160 169 174 167 158 148 170 190 216 279 333 402 421 410 371 364 326 286 283 248 224 234 219 208 142 155 151 132 113 121 128 116 115 110 106
99 127 138 144 134 121 98 105 139 162 172 195 208 223 229 244 282 335 382 425 425 383 330 310 279 266 235 237 198 191 141 116 112 111 117 139 126 100 96 79 98 109 100
91 111 87 87 103 123 124 128 155 168 184 218 246 257 283 304 315 354 344 345 339 327 326 295 245 246 203 165 135 116 127 131 135 133 118 118 113 98 117 135 120 104 102
61 47 75 89 82 101 122 125 150 170 177 206 266 322 343 376 326 336 244 243 260 242 229 235 212 138 105 111 103 85 100 111 127 138 137 112 104 135 128 106 116 140 140
44 72 75 79 71 92 92 95 137 174 211 287 343 313 302 253 197 182 189 191 208 166 165 147 92 82 70 80 77 88 95 99 104 121 121 123 123 122 144 100 85 74 60
59 76 75 86 45 51 60 103 125 116 131 143 162 184 167 114 171 147 118 117 110 86 73 82 89 92 82 90 87 95 111 123 138 145 125 99 94 75 64 53 44 42 49
55 51 54 36 43 48 79 72 87 122 115 94 78 51 52 32 28 31 28 46 37 41 73 80 101 98 92 84 123 140 135 137 113 86 60 37 20 12 32 60 58 65 74
49 44 46 62 44 53 38 55 60 53 62 35 45 10 19 22 24 40 41 23 35 54 78 96 104 115 140 153 137 124 109 89 65 41 34 33 43 48 57 70 83 89 90
50 61 45 36 39 34 16 7 7 12 16 18 23 23 25 20 33 44 55 69 89 100 110 125 137 134 131 120 90 54 18 1 18 24 40 50 61 67 80 87 88 118 126
57 56 41 14 -4 0 12 -5 2 8 15 16 20 21 26 40 60 69 82 94 103 109 123 128 123 106 79 34 -2 -6 -8 3 26 34 45 57 68 73 78 80 77 98 126
23 12 8 6 1 -5 6 11 10 6 6 9 14 24 35 47 68 91 95 104 124 119 114 101 75 46 4 -10 -11 -4 5 24 32 43 52 54 56 54 51 63 79 87 107
17 16 7 14 15 10 5 3 5 4 11 20 31 40 50 59 73 89 94 101 106 94 88 69 53 11 -12 -12 -6 8 21 27 34 40 48 48 53 61 67 72 74 70 78
21 16 20 21 25 26 18 12 17 20 23 37 45 51 56 68 87 100 96 93 99 89 70 53 23 2 8 5 5 12 18 24 30 37 40 51 64 72 74 76 83 87 102
36 29 28 31 27 28 30 36 56 59 61 63 55 52 59 64 90 107 97 97 89 81 70 57 39 33 23 12 13 17 22 26 31 35 43 59 69 77 79 84 94 94 108
38 42 37 32 30 33 34 37 44 51 64 70 59 58 63 79 101 94 98 85 90 76 85 69 52 43 26 17 20 24 27 30 33 38 45 56 69 76 81 96 108 108 110
34 41 43 37 36 37 34 33 32 33 36 43 57 60 73 88 88 82 86 72 90 94 84 65 51 42 25 20 21 27 32 36 44 48 53 66 74 78 91 113 124 111 118
44 45 48 48 46 46 44 44 47 48 46 46 49 58 68 71 74 80 89 88 86 94 87 61 48 37 30 25 25 34 38 45 49 57 61 70 76 88 104 126 139 84 77
41 52 59 59 60 54 51 52 53 52 51 51 50 51 56 57 61 73 83 86 86 83 74 62 49 38 31 26 30 41 51 50 55 64 74 82 90 103 122 131 140 137 146
68 75 68 67 63 57 54 56 63 59 56 56 54 56 43 52 63 75 82 88 86 80 69 61 49 41 32 25 31 44 54 62 72 86 91 95 97 109 110 115 137 139 152
78 85 83 72 67 65 63 68 68 64 63 59 57 60 59 73 80 83 87 95 88 71 61 56 49 39 34 29 38 41 50 62 77 88 97 108 101 107 112 131 138 162 148
95 92 88 81 73 75 75 71 71 69 68 65 65 68 82 89 92 94 99 101 94 74 60 55 51 46 36 33 43 45 67 92 93 91 100 105 120 117 125 146 154 134 142
100 86 74 85 83 78 73 75 79 76 74 72 70 76 92 103 103 100 101 102 96 74 57 49 43 33 36 43 42 50 90 113 107 105 94 141 158 149 187 173 140 117 153
116 78 80 88 86 81 80 86 92 87 82 80 78 88 101 111 112 114 111 107 101 84 59 46 43 34 34 43 12 -1 72 40 64 104 132 135 143 120 116 136 87 135 140
86 80 89 95 94 94 93 97 93 91 88 84 86 95 103 116 121 123 117 105 99 83 55 48 41 34 30 16 -10 -16 -22 -13 35 31 80 117 106 116 126 -28 20 116 135

GFSGL_con_3kmhel_069.txt.gz
Helicity
166 166 184 210 224 235 251 260 250 223 220 192 166 145 135 131 140 202 236 277 329 350 358 351 360 343 332 318 304 259 262 203 193 214 239 251 266 266 208 179 139 165 127
136 140 163 180 214 243 253 262 264 271 274 269 231 189 173 150 147 140 156 180 203 243 271 313 319 310 261 260 191 210 215 247 215 230 223 212 171 139 128 116 97 84 98
122 138 153 163 160 189 209 204 187 181 189 207 214 204 196 203 194 168 164 194 212 227 250 298 288 262 242 211 219 158 171 199 228 236 210 120 110 101 97 109 115 105 99
91 99 115 132 142 146 150 142 129 106 123 136 158 156 170 179 210 228 225 243 275 308 371 364 291 267 222 237 183 195 174 146 133 125 111 124 131 101 95 91 101 139 114
73 78 80 88 88 114 139 148 129 137 154 169 155 171 163 177 191 232 248 287 300 334 341 296 211 178 172 168 182 126 171 137 134 126 95 86 109 112 117 149 142 133 121
49 70 82 81 92 104 94 106 108 95 118 142 158 202 180 191 240 260 269 278 285 272 224 164 134 176 164 188 155 135 101 64 93 106 119 107 113 155 179 163 166 123 97
64 75 66 56 90 102 96 81 87 99 150 155 200 227 245 236 225 212 231 238 243 131 173 94 118 87 85 65 67 89 94 95 97 121 135 146 149 151 139 92 73 66 75
61 64 51 53 74 57 70 85 118 112 108 104 98 107 106 90 134 147 133 114 71 68 53 40 17 21 69 84 86 91 110 117 123 132 122 87 68 71 69 78 74 71 68
57 57 53 55 53 79 112 116 105 107 83 61 48 45 40 41 51 52 40 20 19 23 24 29 49 73 99 103 108 131 148 149 107 69 29 9 8 24 43 74 80 77 82
54 52 45 55 56 63 50 54 26 21 16 16 8 14 29 29 30 35 27 24 28 46 75 93 120 126 133 145 141 133 129 82 32 28 32 33 35 54 50 101 96 104 112
50 46 48 43 43 34 27 15 8 6 1 1 5 7 21 34 45 62 78 87 96 100 103 119 129 140 132 123 110 79 47 9 14 31 39 44 58 70 95 114 129 139 134
42 45 36 21 15 17 20 2 4 2 7 11 17 24 35 55 66 80 84 90 97 109 125 131 131 117 95 75 46 15 7 16 31 37 43 55 65 73 81 91 95 111 140
26 14 14 24 25 16 16 14 13 9 14 23 25 34 45 50 62 68 81 87 103 107 118 111 85 75 61 34 20 17 18 30 36 45 45 51 57 57 65 77 90 99 113
9 17 28 35 34 29 17 11 18 20 23 24 30 36 49 53 59 67 78 89 94 95 107 89 86 69 51 32 31 33 36 35 38 42 47 44 43 49 59 71 77 85 102
30 35 37 33 39 39 39 35 30 34 37 43 54 55 55 71 92 91 89 90 98 93 85 86 90 91 80 60 53 42 40 39 46 47 48 47 50 53 59 66 71 84 113
46 44 36 34 34 37 46 59 80 66 68 75 72 72 69 77 88 81 69 71 74 87 90 100 107 102 88 74 61 50 43 39 42 48 51 55 60 67 74 81 86 84 110
49 57 46 38 39 48 49 55 56 54 61 64 66 68 63 65 82 69 63 60 70 85 98 114 117 118 95 76 65 53 42 40 40 56 69 69 75 79 69 91 100 95 108
72 66 52 47 50 52 58 53 51 49 46 67 62 59 61 57 65 62 60 53 79 107 108 111 119 112 89 78 70 59 51 48 49 60 71 78 83 90 96 111 115 115 108
85 76 65 59 57 63 65 62 62 55 49 56 63 64 66 59 56 53 61 74 86 97 112 115 113 103 87 77 74 63 56 57 54 70 81 96 108 122 118 129 124 68 50
88 79 76 75 83 76 73 70 63 59 59 61 63 69 85 69 62 72 81 82 88 99 111 118 113 107 88 82 69 64 61 52 53 62 76 93 110 112 119 123 125 111 116
111 98 80 85 84 80 80 75 71 71 70 71 75 84 76 76 76 88 93 98 105 118 131 127 120 105 88 76 69 66 64 65 64 61 88 107 109 115 125 138 135 140 137
116 109 110 96 99 93 80 81 82 78 77 76 80 89 77 86 92 98 104 113 123 132 134 130 122 106 94 81 66 67 59 61 65 75 101 104 113 113 119 134 138 138 151
126 129 126 116 109 90 90 88 90 85 81 86 90 89 92 96 102 113 118 129 138 140 136 130 121 108 93 87 74 63 68 83 75 90 99 102 107 121 123 135 156 157 160
128 130 123 122 120 93 89 96 93 84 89 94 98 99 102 107 111 116 128 141 144 142 142 133 119 98 84 79 76 81 85 79 65 96 101 125 143 129 171 181 182 161 152
192 159 139 138 116 89 93 99 103 101 101 100 106 107 110 112 112 117 130 140 145 145 140 130 114 89 70 68 69 69 61 -16 -30 31 123 133 134 139 149 152 153 147 98
190 174 178 136 100 98 109 112 114 115 112 113 117 116 114 114 112 120 133 138 140 134 123 119 102 76 57 55 57 48 -5 -13 -22 -29 -6 99 101 130 123 125 116 137 11

GFSGL_con_3kmhel_072.txt.gz
Helicity
150 157 206 231 231 246 246 251 262 290 269 294 251 248 233 221 196 159 164 183 203 227 250 271 292 277 279 266 252 247 237 235 146 189 244 149 190 155 201 171 129 126 119
161 167 205 220 243 241 243 242 247 244 248 260 266 241 226 205 193 199 212 220 222 235 237 242 236 232 249 232 211 206 169 185 169 126 161 146 152 158 133 116 103 90 104
125 136 176 201 200 196 175 167 183 171 173 185 174 169 163 168 163 166 185 218 237 224 221 215 211 214 243 222 191 188 184 140 161 127 142 125 118 110 84 72 92 110 96
101 123 136 138 134 135 140 134 127 110 102 119 136 157 164 187 184 177 183 218 240 251 262 268 259 216 195 194 217 126 96 140 110 142 124 96 85 91 97 110 121 110 119
99 99 90 92 105 114 120 130 134 137 152 143 135 168 151 155 158 157 171 173 189 218 215 214 190 201 216 165 153 91 77 98 109 78 63 74 97 108 100 125 141 139 92
94 81 80 86 88 110 119 118 111 130 125 129 172 165 159 140 123 155 156 138 180 199 209 212 185 221 208 241 114 87 75 45 51 71 95 99 97 121 148 134 74 55 75
87 92 86 98 119 142 121 86 91 90 96 99 125 106 110 88 109 119 149 129 142 168 159 130 109 112 77 61 14 27 82 82 95 104 108 130 138 125 63 57 57 74 97
112 91 92 106 100 96 89 67 76 91 89 92 75 58 50 35 55 65 72 48 50 53 57 42 21 32 36 21 75 74 74 91 94 129 143 107 62 43 55 59 69 62 71
94 95 88 75 70 69 67 55 66 72 65 58 35 14 17 6 29 39 39 38 50 58 62 68 72 72 109 126 130 132 126 134 120 94 49 12 11 12 23 75 73 83 68
76 80 73 56 50 34 11 14 19 23 20 8 -16 -8 14 5 35 37 54 55 69 82 89 112 138 142 140 136 143 139 123 100 82 42 37 34 23 34 29 70 95 93 75
68 68 54 23 18 8 -3 -3 4 -9 -18 -13 4 6 10 27 36 60 73 81 93 99 111 116 115 128 125 120 114 106 81 46 33 40 50 47 47 57 68 82 87 95 94
53 46 32 5 -13 -10 -2 -2 3 4 9 11 19 21 26 41 62 60 72 85 102 106 113 127 129 99 93 89 91 71 41 33 47 54 56 58 61 57 56 59 52 54 88
44 26 6 -7 -16 -25 2 5 1 6 20 28 28 31 32 42 46 56 61 70 78 84 91 85 89 89 93 95 81 58 46 54 61 65 61 59 54 51 58 60 70 78 92
0 -4 -9 4 20 27 20 16 24 31 40 33 34 43 39 40 57 74 80 90 95 102 90 78 77 83 84 86 79 61 59 60 64 67 65 51 51 54 62 72 71 75 83
-7 12 26 24 33 54 68 50 55 44 39 53 52 56 65 76 67 73 66 65 68 59 59 76 89 100 108 116 105 82 71 68 71 63 63 60 60 63 68 73 77 85 95
29 35 35 39 45 53 66 83 68 59 71 79 74 66 51 66 76 69 56 53 50 50 72 77 91 104 117 118 112 100 88 78 72 69 66 61 63 70 76 80 91 95 99
40 41 44 47 51 55 64 67 61 47 55 58 56 56 62 57 72 56 47 42 35 62 81 89 96 105 117 119 115 102 95 79 71 70 71 68 70 79 60 89 96 103 103
58 61 54 56 57 60 71 72 69 64 57 51 43 55 53 46 52 48 43 44 62 81 93 93 90 103 116 118 109 108 99 86 81 76 73 78 83 94 100 107 114 98 105
92 79 73 80 77 79 84 82 73 72 67 72 75 58 47 45 39 38 50 71 67 66 72 90 105 119 129 122 111 106 102 99 83 77 71 65 80 93 99 119 116 58 58
100 92 94 93 91 99 91 88 84 76 72 66 65 64 87 75 74 70 89 93 85 78 82 97 109 123 137 136 118 110 109 102 96 87 75 77 78 71 87 90 111 118 120
136 122 102 106 102 97 97 92 85 83 76 70 67 75 68 94 75 81 92 92 92 97 106 114 121 133 142 143 121 116 102 93 82 75 83 89 67 54 102 118 124 124 123
161 141 136 119 112 111 105 100 99 90 82 78 74 78 61 88 87 84 94 98 104 117 132 134 136 145 153 147 128 95 84 73 77 86 93 58 29 67 80 114 115 121 131
185 163 143 133 124 111 113 112 110 94 88 84 83 86 91 97 98 102 106 111 114 123 134 141 142 145 152 141 132 123 86 86 87 96 7 -12 15 52 111 125 133 139 145
248 223 195 145 147 122 118 120 106 82 86 89 91 96 98 97 101 101 104 111 118 126 135 139 141 135 132 129 126 117 112 94 92 73 -1 5 43 65 126 139 168 185 188
253 232 212 181 183 146 115 121 106 96 99 102 101 107 106 108 107 108 103 115 118 126 133 138 138 121 106 98 90 85 87 33 37 25 35 104 124 124 137 139 129 162 137
247 210 189 207 205 155 148 127 108 112 117 119 119 122 126 126 110 115 109 112 113 124 128 140 133 107 91 86 78 53 18 12 6 -14 -44 83 102 108 114 127 110 132 129

GFSGL_con_3kmhel_075.txt.gz
Helicity
112 133 160 194 206 209 218 227 225 231 227 222 199 192 195 206 221 210 227 215 210 208 215 213 234 236 226 226 204 198 182 204 201 183 162 151 132 129 162 139 133 95 94
130 152 169 183 185 191 202 209 208 217 231 225 202 194 182 193 214 208 201 196 178 178 209 236 238 243 239 218 192 194 196 200 176 175 152 158 142 132 144 123 79 71 89
126 141 157 165 174 182 183 184 193 187 184 192 185 170 145 152 167 179 176 191 193 179 194 217 211 211 197 210 223 211 195 195 187 142 181 129 124 131 97 78 115 95 121
110 109 123 141 150 158 155 144 138 136 135 149 138 122 137 162 165 178 186 177 156 165 202 215 201 190 177 164 168 180 201 214 222 260 126 124 124 98 107 125 118 145 151
87 95 110 127 137 139 144 144 150 162 149 118 103 113 123 137 142 171 181 173 143 161 198 201 169 169 165 155 162 152 132 162 132 135 108 111 111 97 112 139 158 145 101
85 89 97 113 127 133 140 137 150 124 118 135 160 118 114 109 121 117 110 104 96 98 115 113 140 157 178 201 181 149 91 68 49 71 42 84 101 139 159 145 88 55 80
100 101 112 109 111 119 123 125 101 122 164 163 110 84 96 69 70 64 69 45 50 52 59 60 64 61 65 68 59 51 49 87 106 105 108 114 127 136 114 63 48 61 71
97 100 107 96 104 106 110 102 115 147 134 75 72 78 57 34 41 33 35 23 38 52 66 82 97 96 97 105 101 110 109 88 95 123 119 105 87 49 42 50 47 54 68
109 95 85 93 89 94 111 97 127 99 47 14 7 19 19 6 38 38 31 35 53 69 87 95 117 125 128 148 156 151 139 150 139 122 87 41 7 7 22 79 71 87 77
85 83 82 72 71 93 80 78 60 21 -17 -21 -7 -2 23 21 44 37 38 39 60 72 80 107 130 146 144 131 142 140 142 118 112 93 58 37 37 40 49 69 83 98 83
90 90 86 66 56 48 41 13 -9 -29 -5 3 8 8 17 26 36 59 65 56 65 78 84 89 98 118 110 107 114 115 101 87 71 51 48 54 60 67 73 82 83 85 91
91 77 57 42 28 13 2 -13 -18 -6 7 12 23 24 17 18 35 40 51 63 70 72 76 73 71 68 82 88 97 86 80 76 68 63 70 74 69 62 62 65 59 59 72
61 45 29 8 6 -10 -10 -11 -11 -2 16 20 28 33 20 11 19 40 43 45 50 59 61 54 61 65 73 84 87 78 89 90 83 89 82 74 60 50 56 58 63 65 68
49 29 11 -3 -16 -21 -18 -5 9 17 32 40 42 36 27 40 45 48 54 58 66 59 54 46 46 63 82 88 100 105 101 93 95 95 88 70 65 65 67 69 70 75 65
7 6 -3 -9 10 21 19 23 38 30 30 46 41 46 54 53 39 49 49 48 45 38 49 58 69 84 97 112 123 128 123 113 118 108 104 98 84 74 77 72 75 79 81
14 9 10 27 33 44 72 75 57 57 69 66 57 50 46 53 61 58 45 35 29 32 59 64 72 80 90 102 116 125 125 126 121 121 114 105 97 89 85 85 86 86 87
32 26 25 36 44 51 54 69 76 62 63 57 53 53 52 49 56 46 37 25 18 46 68 72 73 79 90 101 116 125 144 136 121 115 110 102 92 93 71 94 97 89 72
49 38 41 45 46 55 57 56 63 64 60 51 34 45 42 45 43 40 35 43 48 65 79 76 74 79 91 111 125 130 140 143 132 118 108 101 94 79 82 86 90 75 62
60 50 53 48 48 56 69 77 72 68 68 74 70 51 41 42 40 34 35 67 61 64 72 73 80 90 103 120 135 133 148 146 128 120 112 98 104 89 82 88 67 2 11
82 69 79 73 72 86 90 91 86 79 80 80 76 68 73 72 82 66 59 81 87 82 85 85 89 108 118 133 141 136 146 132 113 112 113 103 89 84 79 47 -1 23 65
129 117 93 102 102 105 105 95 86 88 85 84 77 73 71 93 81 80 75 84 83 88 97 103 112 123 136 139 141 136 127 108 95 79 91 85 84 80 59 -35 -28 -3 87
159 148 152 131 128 124 109 101 97 96 92 94 88 82 54 89 99 92 87 85 92 106 117 117 120 139 152 153 151 146 119 96 79 67 81 83 80 47 -24 -20 -22 55 95
190 206 199 171 147 118 118 114 110 102 101 100 96 91 88 90 96 100 100 100 111 122 120 122 123 127 148 151 158 162 145 105 93 104 72 67 62 27 29 67 104 106 115
216 224 224 206 211 183 150 125 131 84 97 103 99 96 96 96 99 104 112 109 111 118 115 118 129 128 126 127 136 140 134 104 85 85 82 74 72 69 95 108 123 126 139
238 263 262 247 233 209 216 158 192 143 116 113 96 99 99 101 108 117 119 113 119 114 102 113 129 127 110 101 102 107 105 46 53 65 93 106 121 126 134 143 135 129 110
278 265 271 259 237 227 211 221 231 156 167 128 96 107 110 116 123 127 123 113 117 106 98 113 123 113 108 108 102 77 45 38 46 29 54 69 78 95 109 114 114 146 122

GFSGL_con_3kmhel_078.txt.gz
Helicity
118 128 148 164 171 178 190 206 219 237 249 244 233 228 213 207 201 193 188 173 172 190 216 207 199 191 207 220 230 238 222 171 184 195 199 189 184 167 154 101 131 133 135
103 119 136 148 159 173 188 199 203 219 241 227 213 207 203 196 193 185 157 162 170 187 191 194 168 162 199 190 181 193 175 157 145 181 182 155 168 133 189 147 155 129 90
104 118 134 143 151 165 177 188 198 194 199 201 190 170 164 164 167 158 153 191 204 199 171 161 143 160 185 159 161 161 158 155 145 140 157 152 191 216 142 136 131 111 95
110 124 133 133 131 140 157 178 187 179 169 162 160 151 153 152 137 139 176 186 197 169 153 151 139 163 160 157 158 160 161 149 151 175 157 186 176 118 138 136 136 140 132
105 115 115 106 123 143 166 165 160 166 154 139 144 142 134 123 101 151 153 165 157 154 150 134 126 127 141 127 100 114 139 153 153 137 138 118 133 127 97 114 135 138 123
96 89 79 89 105 120 129 131 147 154 164 150 148 119 117 130 141 122 93 93 86 84 75 70 87 89 90 110 111 109 110 103 108 107 105 109 88 97 121 155 162 138 113
90 79 73 80 102 109 114 129 146 151 140 138 135 138 153 115 87 84 80 41 31 35 45 52 69 80 96 105 113 126 124 128 117 130 136 125 137 140 149 148 105 76 79
93 77 70 83 101 117 130 130 131 115 111 114 149 155 129 72 62 47 42 32 46 53 54 64 81 94 99 128 144 147 148 148 139 133 138 132 126 109 98 64 55 63 64
108 88 73 81 107 101 113 104 93 90 106 120 97 81 69 41 45 39 36 35 43 54 62 70 94 107 123 130 139 150 153 156 153 162 123 93 67 30 26 82 80 94 85
98 79 76 91 92 93 96 83 82 68 61 48 51 40 36 34 29 35 34 30 43 48 54 67 83 98 104 100 115 116 120 121 128 117 101 77 45 42 66 69 78 105 101
95 86 95 89 77 83 78 59 44 36 35 35 38 33 36 37 38 43 44 41 42 50 57 60 63 74 70 75 91 96 93 102 100 94 84 71 69 81 82 78 77 89 100
93 92 99 80 64 47 33 14 18 25 39 35 35 34 28 30 34 36 37 43 45 49 51 48 46 45 58 62 82 76 84 110 105 106 108 107 107 104 92 79 63 62 73
96 87 69 56 39 18 3 11 21 23 29 33 37 37 29 27 25 29 33 35 38 49 47 36 37 44 56 70 83 84 114 113 117 126 122 115 106 88 79 82 77 69 66
78 48 43 44 19 -2 0 9 18 22 33 37 43 43 42 37 34 39 44 45 46 49 44 43 44 58 75 86 99 107 114 118 130 129 121 107 104 105 110 105 101 91 78
54 49 31 12 13 9 6 9 21 20 36 47 40 53 65 51 42 43 44 41 41 35 59 56 66 79 89 101 109 112 120 130 146 140 144 138 131 125 119 108 105 96 85
47 27 14 17 19 25 39 60 38 34 32 35 46 60 45 41 46 50 43 39 35 37 66 66 68 76 86 100 111 118 128 138 149 149 151 145 139 133 127 129 126 115 87
28 28 23 30 52 64 64 77 81 60 57 53 52 51 49 48 48 48 45 38 34 44 74 67 71 79 89 101 112 121 126 149 152 152 155 149 135 128 105 110 103 93 76
34 37 49 59 69 71 67 63 68 67 60 57 43 50 44 44 42 42 42 59 63 74 82 77 76 82 92 106 117 122 127 143 154 153 151 139 123 117 105 99 100 87 73
55 58 65 68 72 70 76 74 73 68 64 67 78 62 45 38 42 40 40 83 82 76 78 80 87 92 101 114 119 118 140 147 145 151 145 121 112 104 79 88 74 25 -13
69 71 91 89 82 90 92 86 81 76 75 78 82 81 90 78 100 95 89 92 94 93 93 93 106 111 114 117 120 130 139 135 131 133 115 109 97 84 63 60 48 12 -38
107 111 94 124 116 116 118 108 107 107 100 98 90 90 79 119 107 100 95 100 104 109 104 110 124 124 127 126 137 140 141 150 133 122 100 83 90 64 72 69 49 32 28
142 129 144 132 138 139 125 125 120 113 110 104 98 95 62 104 119 111 109 104 109 114 122 129 130 135 136 143 149 153 149 141 146 123 88 75 75 63 64 68 71 81 90
140 159 173 190 197 159 156 134 130 132 122 118 114 104 109 109 108 112 112 113 117 114 127 143 140 127 129 141 162 172 164 148 144 143 118 87 79 72 75 77 86 96 106
195 159 169 179 210 216 206 191 180 136 126 137 173 129 105 115 105 101 110 118 125 122 141 146 140 121 114 123 145 159 162 148 148 140 142 114 96 77 81 83 86 99 119
212 218 228 217 222 245 231 215 216 207 215 209 254 179 163 143 108 93 112 123 124 129 129 136 133 113 102 106 122 132 132 80 104 124 147 136 122 112 117 127 128 126 132
217 232 236 247 232 258 253 223 221 236 228 236 265 167 167 151 125 98 115 121 124 122 125 131 114 100 102 113 116 100 70 67 79 72 108 131 136 127 126 111 98 126 114

GFSGL_con_3kmhel_081.txt.gz
Helicity
113 116 126 141 152 167 172 181 194 202 214 217 217 226 234 229 218 225 231 219 189 180 193 174 172 182 199 195 201 199 213 196 202 188 141 128 141 154 167 167 156 173 128
91 103 115 130 143 155 174 190 200 212 227 225 231 240 242 234 228 221 219 203 173 167 144 146 175 170 198 189 181 192 176 160 165 169 136 136 145 146 176 153 153 230 118
73 83 106 126 139 149 162 177 194 201 217 231 224 218 213 214 214 208 194 192 190 165 170 192 182 173 182 170 175 165 123 136 150 153 168 157 163 166 172 186 180 106 104
65 83 103 127 138 148 161 179 189 189 191 195 198 186 178 170 178 187 186 192 188 207 202 165 141 123 114 114 119 119 107 136 152 164 175 160 164 172 168 134 144 140 108
74 92 100 118 131 143 156 158 169 174 169 160 154 155 146 157 136 141 160 153 182 200 169 128 94 81 84 72 66 79 90 108 125 148 157 157 150 152 146 142 139 131 133
89 88 84 94 97 98 106 125 142 157 153 142 141 140 143 136 147 132 111 138 142 109 74 62 81 82 88 98 105 121 122 124 146 162 174 194 188 180 172 175 168 157 154
90 77 82 81 83 88 97 111 126 133 136 158 152 141 156 139 129 137 126 87 56 41 44 55 63 65 82 92 106 124 148 165 155 155 181 188 191 173 181 175 154 147 131
83 70 77 75 83 93 107 118 132 138 148 146 151 164 140 115 112 92 84 57 56 59 54 56 66 66 67 90 101 116 130 140 143 154 168 156 149 145 152 141 114 84 73
73 65 80 83 85 100 122 126 129 140 142 139 140 128 106 90 75 65 55 43 54 59 56 59 64 78 81 92 99 110 120 130 142 159 142 129 125 108 75 96 97 121 113
86 85 103 106 94 101 110 123 118 117 122 121 107 81 64 40 50 51 44 40 53 50 56 69 68 69 74 71 89 91 98 99 116 121 116 112 105 89 96 98 104 129 122
112 112 104 86 94 107 116 103 90 101 88 75 65 61 57 50 44 53 50 46 48 54 58 56 58 59 52 56 73 73 74 82 91 99 107 114 116 115 117 115 108 119 134
117 101 98 99 99 88 92 92 78 56 50 41 38 44 46 51 56 55 50 52 51 53 54 53 47 40 47 48 65 52 65 99 95 102 111 122 134 127 117 117 107 96 100
105 101 97 100 89 70 57 44 46 34 36 29 34 44 40 46 48 52 43 46 52 53 48 38 30 34 50 59 62 69 106 101 106 119 127 130 130 114 113 122 124 112 97
110 100 98 89 65 44 30 32 38 35 30 33 42 44 47 42 37 42 54 60 54 52 41 44 39 45 57 61 74 94 103 109 120 129 134 133 131 130 126 135 140 131 124
110 99 96 62 40 35 18 26 25 16 39 48 44 54 66 53 44 48 56 51 46 37 60 57 63 72 76 82 93 104 117 126 141 128 135 141 139 145 152 149 146 134 126
106 95 82 66 47 38 42 43 22 26 22 28 37 58 50 45 51 52 44 40 42 43 74 67 68 73 77 88 97 110 126 123 136 140 139 145 151 157 156 166 160 145 108
77 86 76 44 47 49 53 61 75 77 74 54 49 47 52 60 53 53 47 46 43 48 84 77 75 78 83 93 105 124 133 127 142 138 141 150 155 147 131 129 126 119 85
59 43 70 66 59 64 64 68 84 92 81 71 51 55 56 55 51 48 48 59 79 81 92 88 84 84 94 109 122 134 125 135 142 142 149 155 162 141 136 121 106 85 67
68 76 81 80 79 74 89 92 93 90 83 83 88 77 59 47 47 48 44 95 100 95 96 92 95 96 105 116 131 136 132 134 147 151 157 170 153 155 113 99 77 28 21
74 66 85 97 99 105 113 103 93 92 99 100 100 100 105 99 114 103 102 109 120 115 111 109 102 110 122 129 140 144 133 129 150 171 159 153 141 150 122 90 73 58 59
99 99 79 114 118 126 130 115 114 126 120 116 110 114 82 135 126 119 118 120 119 120 119 123 118 117 132 145 152 148 148 139 148 168 187 147 139 128 130 102 81 73 65
144 139 149 137 140 150 141 150 152 140 134 130 126 125 76 119 137 124 119 114 117 119 127 131 128 128 147 164 161 157 156 150 153 164 178 179 149 143 134 115 103 98 85
143 156 154 157 163 140 171 189 183 180 156 137 142 146 154 144 145 153 128 119 118 113 122 138 131 124 149 159 167 170 170 162 166 183 178 172 170 161 165 144 126 118 113
170 167 176 187 169 154 165 187 210 197 213 215 218 192 173 173 214 212 153 153 137 105 109 128 131 129 144 145 152 164 172 162 175 174 183 181 166 141 153 147 147 134 130
187 182 188 197 202 187 184 198 210 230 234 230 239 237 237 250 245 225 207 214 171 140 104 118 126 119 116 122 128 137 139 95 137 164 191 193 170 155 163 168 158 150 139
177 171 190 210 223 228 224 222 238 262 247 225 245 245 247 243 258 207 198 174 174 145 127 139 138 113 111 129 124 114 89 84 104 89 141 186 192 176 193 183 156 182 145

GFSGL_con_3kmhel_084.txt.gz
Helicity
159 149 144 143 140 138 141 149 153 158 174 181 188 193 204 207 215 230 232 208 224 211 201 198 207 208 208 204 197 176 184 183 174 183 159 150 151 148 157 166 147 133 110
109 104 112 116 124 134 148 160 169 174 190 188 195 206 219 228 238 231 246 244 235 225 198 194 187 191 195 181 163 165 148 138 133 136 126 140 152 161 156 164 156 121 93
83 85 98 111 120 134 141 153 161 175 195 211 220 226 233 238 239 239 236 240 226 207 187 166 164 155 146 148 138 142 132 120 110 118 119 118 123 123 128 136 135 133 101
73 69 74 83 97 117 135 153 166 174 190 204 204 200 198 207 214 214 212 215 219 209 186 189 149 129 127 116 90 75 69 83 89 106 111 112 114 121 143 145 142 128 116
59 53 55 75 97 119 142 158 163 165 163 160 170 173 165 158 143 160 179 185 183 194 209 155 121 92 95 87 70 78 84 87 98 118 125 133 144 156 162 152 162 152 128
58 48 58 76 84 95 113 131 145 154 158 158 161 153 153 141 147 141 144 154 164 153 130 105 102 123 110 101 96 101 96 96 113 126 135 150 154 166 174 178 171 174 183
73 56 58 70 81 90 92 101 117 139 151 167 163 154 162 145 136 127 129 128 104 69 59 71 85 81 86 87 100 126 129 130 123 111 126 130 146 152 176 172 157 154 138
102 91 81 75 74 86 97 101 121 132 140 148 161 154 146 117 124 111 92 62 60 64 64 69 70 64 63 87 95 105 110 116 103 110 120 116 119 127 130 129 123 112 101
103 89 90 72 83 91 104 112 125 141 156 168 152 137 130 122 95 65 57 57 63 66 61 57 69 74 79 87 86 90 94 94 100 116 108 108 108 95 93 105 105 134 129
96 98 105 80 92 100 114 127 137 149 146 131 132 124 108 79 52 47 47 41 57 56 64 66 63 62 74 71 72 72 85 74 83 84 84 88 101 113 128 116 130 147 142
134 141 115 102 102 106 124 130 138 142 133 120 124 118 85 50 38 42 46 44 47 54 54 54 55 57 56 55 65 61 59 65 73 78 86 94 109 126 134 129 140 151 159
143 129 121 106 96 101 112 128 112 111 105 102 89 74 57 53 44 46 51 52 51 50 49 49 45 44 50 50 63 46 65 86 82 92 97 103 115 123 127 129 124 126 117
136 119 102 92 93 104 115 110 95 80 85 68 57 49 35 38 49 48 48 58 49 52 50 45 45 35 53 58 51 58 91 85 92 102 105 106 109 107 115 130 129 129 116
114 103 101 110 110 106 101 75 76 60 53 48 45 46 42 40 37 49 62 63 62 66 61 56 42 47 51 53 62 77 79 87 103 114 112 103 107 117 129 137 152 140 138
117 115 117 100 107 97 61 36 32 29 42 52 44 51 57 48 44 45 57 57 58 50 64 57 56 59 59 61 66 73 84 99 118 112 113 119 113 121 131 146 152 141 139
131 128 128 106 113 79 58 47 16 25 22 19 27 47 50 45 46 48 50 51 50 51 77 66 64 64 64 66 67 77 100 109 115 122 131 125 122 126 131 158 168 147 131
122 130 116 101 98 69 59 48 48 49 34 23 22 33 41 52 48 50 57 59 54 56 85 83 78 76 73 71 76 94 100 114 130 125 122 126 128 133 119 153 154 143 121
100 88 98 104 89 63 56 56 72 85 77 74 65 54 45 52 53 56 62 72 96 78 97 91 90 91 90 85 82 97 106 111 130 131 131 132 139 137 136 155 156 150 120
116 89 77 95 84 63 74 80 82 87 81 81 88 78 60 54 56 56 56 113 113 107 108 108 104 101 97 97 95 103 121 126 131 137 142 140 149 147 140 151 143 102 87
105 91 104 110 111 107 106 103 100 95 94 92 95 94 116 101 121 115 114 129 140 130 126 121 119 120 117 116 110 118 131 138 135 139 152 168 178 163 154 151 154 148 135
120 109 85 119 126 125 123 117 118 126 117 114 104 117 96 144 139 140 135 138 144 140 136 136 129 125 128 128 130 133 145 144 147 149 156 157 182 194 155 153 154 157 139
137 124 133 142 137 144 136 142 149 143 132 129 133 142 90 134 155 156 150 143 147 132 133 141 149 128 122 132 134 139 149 149 155 161 158 161 171 186 175 168 171 159 154
173 156 139 156 167 139 143 160 167 163 161 165 172 179 193 180 180 172 160 159 162 178 170 159 205 164 140 127 134 151 164 163 166 175 165 166 176 180 185 178 180 167 158
162 141 153 163 177 175 164 167 169 147 165 170 193 210 219 220 223 226 230 223 228 200 191 230 217 156 162 151 160 166 161 167 184 173 179 188 181 167 186 179 173 162 157
137 150 156 164 168 181 169 179 178 175 186 202 208 215 238 233 224 211 226 254 247 216 208 195 154 158 150 148 153 133 142 101 148 168 196 201 184 181 191 194 185 180 169
138 141 150 151 163 177 189 205 221 227 214 200 206 234 248 239 236 241 240 233 217 191 169 161 162 147 145 142 125 109 90 90 108 101 157 199 207 208 211 204 189 212 188

GFSGL_con_3kmhel_087.txt.gz
Helicity
175 190 207 214 209 192 180 170 160 156 167 172 180 181 192 201 212 232 239 237 228 233 199 192 200 194 184 168 160 180 192 172 160 158 141 116 105 98 103 107 98 98 100
172 177 176 168 160 153 154 155 153 156 165 170 186 200 211 221 227 225 241 243 242 243 244 220 191 160 161 152 163 163 158 139 132 128 97 86 89 95 97 96 100 84 85
158 149 131 126 120 116 118 127 142 148 162 175 185 203 212 219 238 250 252 259 253 239 210 177 160 143 149 151 149 122 101 91 85 86 95 89 100 98 103 108 103 98 88
87 105 113 104 104 105 109 120 131 145 158 172 177 186 203 211 221 222 226 229 227 214 197 182 159 147 131 123 89 72 77 89 96 104 103 104 108 108 113 111 117 125 116
83 77 79 75 82 95 111 123 138 147 160 169 170 176 176 178 177 185 190 189 186 205 195 174 149 122 105 73 61 78 86 92 97 107 112 108 114 119 119 120 120 120 125
77 73 69 63 72 89 106 116 131 144 145 149 158 156 157 149 142 143 153 167 166 155 153 146 130 119 83 84 99 111 104 92 97 97 101 110 118 115 111 115 116 116 121
88 88 76 66 60 65 84 98 107 125 130 140 145 145 147 132 115 116 139 146 142 131 101 78 79 72 79 89 110 124 120 114 108 88 97 99 105 96 103 100 100 98 99
94 94 83 74 76 72 68 83 104 116 119 124 154 153 152 134 122 113 123 129 110 77 57 62 61 66 76 81 83 91 94 99 83 83 93 88 84 77 71 76 78 70 65
95 90 88 86 75 69 79 87 103 125 135 139 139 147 155 136 109 103 93 86 67 60 62 57 62 65 78 83 76 79 77 77 83 88 82 85 71 58 60 70 69 77 94
94 94 96 101 87 70 77 97 129 122 136 139 160 147 127 114 90 68 51 50 58 59 57 58 65 65 71 73 72 64 68 61 60 60 63 71 85 97 106 83 90 94 106
142 135 133 111 109 99 102 118 136 144 142 135 141 127 107 83 52 34 37 45 47 51 50 53 58 59 62 63 66 54 58 56 59 59 70 78 88 98 101 101 104 115 120
168 162 160 132 111 110 105 122 131 134 127 126 118 105 96 74 37 38 42 46 44 48 48 49 47 51 57 52 48 38 58 60 57 68 81 94 105 108 102 97 100 105 103
163 151 140 116 110 102 107 130 127 116 104 96 85 79 71 52 49 27 37 44 48 49 46 45 42 35 54 47 42 45 67 56 66 77 89 100 106 103 90 90 94 98 105
142 145 126 121 114 107 106 109 105 85 75 63 62 54 52 40 37 51 61 57 48 54 50 52 49 53 47 52 62 65 56 56 66 81 97 105 101 96 95 95 98 106 115
127 142 134 118 113 116 103 91 64 50 65 65 43 46 48 40 29 35 50 54 55 50 71 67 66 61 63 65 64 61 59 64 78 92 101 105 102 98 94 101 112 121 124
139 151 154 136 145 110 101 78 15 20 6 12 24 39 42 36 31 30 37 44 50 55 77 74 68 65 66 71 68 64 62 61 74 91 103 111 105 94 92 101 123 127 114
121 147 155 151 144 118 96 58 43 26 13 8 8 17 24 38 31 39 46 48 48 56 76 74 77 79 77 80 76 72 74 71 88 101 108 104 100 97 89 98 112 120 108
110 109 142 152 133 112 90 54 46 61 58 46 44 31 26 35 38 44 50 59 84 66 96 83 80 85 91 90 86 84 73 73 85 100 110 108 104 97 97 99 111 118 114
122 108 107 116 108 91 102 77 49 51 59 73 81 73 53 43 47 50 51 98 105 100 103 97 95 102 103 100 96 93 83 79 86 101 116 115 110 111 104 100 101 90 100
102 87 108 113 102 90 98 79 71 70 72 74 75 82 112 101 107 105 100 122 122 108 120 118 115 119 115 120 117 109 99 89 81 93 108 115 115 124 113 115 106 107 120
126 104 80 111 118 117 114 98 91 97 91 94 83 101 92 136 125 131 129 125 128 132 137 136 136 139 152 141 140 145 140 116 102 89 102 114 124 124 118 117 115 116 124
129 120 122 140 123 135 128 118 120 113 108 111 105 113 82 127 138 141 143 141 144 146 150 156 155 164 187 169 199 170 155 139 119 101 108 124 132 130 131 131 129 125 133
138 139 128 134 166 131 124 133 142 131 122 123 130 138 166 165 168 173 165 150 164 167 169 169 173 203 180 187 193 152 156 157 139 126 128 130 141 143 151 145 141 142 143
136 147 145 139 156 177 167 171 157 113 126 134 150 170 182 193 189 184 202 207 204 195 204 207 206 204 203 168 154 148 151 148 142 130 144 149 146 146 152 148 149 147 146
141 146 149 146 139 139 147 162 189 196 175 166 165 160 163 196 211 212 213 230 219 215 203 200 200 179 145 129 145 131 132 89 120 125 148 156 152 156 156 155 151 152 151
105 117 134 150 145 143 160 153 155 171 189 189 192 200 192 189 195 223 245 249 239 229 219 204 185 147 124 136 118 110 83 74 78 81 146 158 158 157 158 163 150 170 151

GFSGL_con_3kmhel_090.txt.gz
Helicity
188 170 161 162 164 171 186 192 189 181 174 166 167 158 160 167 179 194 234 246 259 282 270 236 217 187 190 186 171 164 151 153 148 157 129 111 80 61 60 66 81 91 84
166 162 170 171 178 174 177 175 165 156 160 164 167 161 161 169 180 192 207 207 210 226 238 221 189 190 190 170 156 145 144 141 125 127 97 71 73 73 74 85 97 102 106
133 130 130 138 155 171 153 150 145 140 148 155 165 176 184 188 194 202 212 229 236 233 213 207 198 173 164 145 127 121 107 91 82 78 88 77 80 85 90 98 113 105 97
142 145 140 134 99 101 113 116 129 142 144 149 163 175 192 195 196 206 214 228 240 240 233 203 187 156 133 122 107 97 69 80 85 91 91 86 90 96 93 99 95 94 94
119 110 97 92 80 85 86 95 107 117 133 146 151 157 173 189 187 185 197 203 205 216 203 193 176 161 150 119 80 74 77 74 79 90 92 94 92 87 96 100 92 84 84
92 88 82 71 71 74 74 89 102 112 119 130 140 152 154 156 150 162 165 170 166 160 175 183 174 156 125 99 110 116 93 80 95 102 97 89 93 97 92 91 88 91 94
76 82 77 72 64 66 66 74 89 104 115 131 140 131 132 129 122 148 159 175 175 168 154 144 129 96 82 81 95 102 119 134 130 93 90 92 89 87 96 80 83 77 71
76 80 81 74 70 73 70 64 78 94 105 107 141 142 138 134 121 133 172 175 155 140 123 96 65 59 63 54 57 83 91 97 101 99 100 91 92 77 73 72 66 60 54
82 77 81 79 80 78 71 52 76 95 124 125 131 134 143 135 110 118 136 133 127 111 77 59 52 56 66 54 66 74 82 91 98 97 98 91 74 59 54 69 72 76 86
83 87 92 100 95 81 76 83 95 104 117 123 137 123 113 109 93 97 103 101 83 64 58 55 57 61 57 62 60 61 61 69 67 63 62 62 62 88 83 62 75 88 98
127 123 123 120 118 125 128 134 106 109 118 124 118 114 117 99 89 87 78 66 48 52 51 50 49 54 54 58 60 62 68 68 73 67 60 65 72 78 83 93 96 99 97
160 153 148 144 156 153 147 138 110 116 124 116 110 111 115 97 79 61 43 34 39 49 48 50 51 48 53 53 57 67 63 70 73 64 66 78 83 90 92 91 93 94 93
143 132 138 145 148 134 131 128 134 128 131 115 108 100 103 90 61 45 37 35 39 53 55 60 66 51 54 55 49 46 61 65 65 68 75 83 90 100 88 80 84 88 85
116 121 131 152 138 113 124 130 126 121 110 91 82 80 83 72 54 46 41 39 41 57 60 62 62 60 51 48 50 59 58 55 57 65 76 92 99 94 90 87 89 96 94
105 111 123 138 137 122 117 125 109 90 86 70 63 58 62 59 41 32 40 51 50 53 65 68 67 65 58 59 60 60 61 60 69 74 86 88 90 97 93 90 92 103 102
92 105 118 141 165 142 126 106 50 49 36 29 40 29 40 40 32 22 27 34 42 55 72 72 66 63 62 65 68 71 72 70 73 82 86 89 94 98 96 94 97 109 108
77 93 101 126 160 162 140 109 89 47 23 5 4 16 19 41 28 30 27 35 45 58 64 65 63 71 75 78 79 80 82 84 103 95 93 96 97 102 98 98 106 111 108
77 85 97 108 128 139 139 100 88 53 45 30 7 11 9 20 34 33 39 51 69 58 64 63 70 84 91 92 94 94 98 109 112 108 103 98 98 99 99 101 105 110 106
104 103 103 113 122 110 117 104 90 53 47 47 53 46 26 24 35 40 44 81 92 90 96 81 87 99 106 108 111 114 114 119 127 126 112 102 98 97 98 103 102 90 93
96 82 89 130 117 105 112 102 98 83 58 55 58 69 88 90 91 94 95 104 106 106 107 104 111 118 123 130 134 139 153 157 145 150 119 115 103 105 104 106 105 105 113
112 101 68 124 133 131 129 107 102 97 80 72 68 91 94 127 119 121 128 126 126 126 126 128 138 145 148 157 156 158 166 182 160 182 128 122 119 115 112 108 102 107 116
92 105 100 129 145 136 139 127 113 116 104 91 86 98 74 114 121 123 129 129 135 137 147 154 152 157 176 181 183 185 196 199 179 175 142 137 128 119 122 116 112 116 128
107 111 112 110 141 115 124 139 142 139 119 106 110 121 151 148 132 133 137 146 159 165 170 182 190 193 196 200 199 206 223 213 176 175 150 138 136 132 132 128 127 128 136
105 113 117 119 122 138 144 144 164 148 144 142 140 141 144 159 171 160 154 164 185 205 212 217 211 200 210 227 216 214 208 173 173 160 143 157 145 133 139 142 137 136 140
89 105 118 124 135 135 143 143 151 158 160 161 163 159 156 137 129 150 164 181 205 229 233 242 253 230 228 222 209 201 154 127 164 151 151 147 142 148 150 148 142 141 136
70 77 88 112 128 130 134 137 139 136 149 157 158 167 177 180 172 168 163 177 209 239 253 263 247 228 221 195 180 165 103 114 124 107 144 151 151 153 151 141 126 143 131

GFSGL_con_3kmhel_093.txt.gz
Helicity
179 135 148 180 182 175 165 152 155 151 160 157 158 159 151 150 147 166 178 189 229 240 254 258 262 242 219 188 180 192 185 183 180 193 176 131 94 66 52 62 73 80 88
230 201 176 159 153 140 150 159 168 179 181 186 175 169 162 155 154 166 181 208 221 239 264 270 272 232 193 152 170 174 175 156 170 175 137 97 64 66 64 66 78 84 94
208 192 146 126 132 131 129 129 130 131 139 147 155 160 163 171 173 184 185 200 226 225 229 226 199 186 187 182 175 155 149 135 142 116 97 79 74 61 65 75 96 98 101
177 159 149 149 145 134 136 138 130 117 104 111 128 132 141 152 174 187 203 221 241 258 269 255 228 207 172 157 145 136 122 116 89 94 88 85 76 82 86 99 89 89 96
147 149 155 155 155 139 125 115 97 96 99 109 111 123 138 152 173 168 187 201 211 220 220 222 216 213 208 162 129 122 103 61 70 99 82 87 92 83 100 111 113 93 87
128 141 138 125 111 103 88 83 74 69 79 98 115 135 145 144 142 165 170 181 186 201 218 200 189 185 186 183 172 159 132 83 101 100 111 83 107 119 100 105 105 87 100
105 102 93 86 82 78 72 62 57 63 75 102 127 129 140 138 126 148 185 217 227 224 210 187 171 175 148 138 114 115 135 146 143 99 94 119 107 104 109 88 91 79 84
88 81 78 81 85 87 82 74 62 61 67 80 97 124 138 132 122 141 154 166 158 151 148 138 126 120 99 62 77 85 91 124 145 125 138 129 126 90 89 76 65 75 71
81 83 84 87 96 87 84 63 58 52 62 77 78 106 126 147 116 117 154 160 147 138 131 105 104 78 58 55 71 74 91 97 118 130 132 118 111 99 93 78 82 98 100
98 101 101 106 100 97 92 100 119 78 84 68 103 112 110 126 111 94 115 129 129 117 100 99 80 58 51 57 63 69 76 76 83 80 78 84 81 92 85 82 98 104 115
128 145 132 130 124 119 137 148 143 143 123 98 113 104 101 92 95 94 104 112 123 91 72 59 51 52 49 72 91 80 69 99 75 69 78 80 71 81 86 111 119 110 109
161 151 150 148 149 145 138 138 140 151 134 97 106 107 99 97 90 81 93 97 83 69 57 56 59 47 54 71 79 85 88 90 73 70 76 75 76 96 102 117 118 110 99
144 141 149 135 126 123 132 144 159 141 132 110 107 105 106 105 99 82 69 60 49 69 62 55 58 53 60 64 63 61 77 66 71 80 77 91 96 120 120 94 90 89 87
117 112 127 122 114 126 149 151 149 150 144 125 99 97 108 104 95 86 68 60 51 70 61 59 65 59 50 53 68 58 62 60 72 72 84 100 106 89 86 97 107 103 106
93 99 119 110 110 126 139 146 139 138 147 140 104 86 92 92 74 52 57 56 61 58 58 79 78 69 67 67 63 69 72 72 77 72 104 103 86 87 94 101 110 113 115
95 102 103 103 110 135 144 142 92 95 87 67 51 47 68 46 28 17 24 31 37 41 69 76 69 70 71 71 78 81 78 72 84 100 103 95 97 105 94 99 113 123 117
94 96 96 86 105 127 154 144 135 102 67 55 35 29 27 45 26 24 14 23 31 43 73 72 75 83 82 85 99 103 104 102 110 122 114 112 117 112 92 101 106 111 119
92 91 120 96 108 120 136 143 143 135 110 79 25 14 12 10 18 23 27 30 64 56 82 80 85 89 101 103 109 115 125 140 148 138 128 145 145 137 120 118 113 118 109
83 103 119 118 126 124 136 136 130 124 104 70 60 36 18 9 10 26 28 79 95 97 101 94 100 108 109 116 125 134 144 152 155 163 151 162 166 171 129 128 121 87 97
79 72 85 119 122 112 133 124 119 117 116 87 75 73 71 46 67 83 95 102 107 106 113 115 129 128 132 144 149 156 164 158 168 186 186 185 179 177 156 141 129 126 130
90 106 48 105 127 124 134 132 128 128 122 123 103 92 49 79 94 114 131 132 136 130 136 143 142 151 162 164 172 175 175 179 187 197 208 207 202 173 171 140 132 133 138
94 109 109 104 134 128 124 140 139 133 122 120 119 102 68 88 93 113 131 149 150 148 157 168 165 167 182 195 197 204 214 208 204 220 234 236 210 184 174 147 141 135 142
81 94 103 103 113 113 123 134 134 136 137 134 136 131 122 141 149 144 148 159 171 170 177 186 187 192 198 202 217 237 237 232 238 258 265 245 199 195 178 159 146 146 151
71 77 86 96 109 120 124 130 138 117 132 146 154 165 173 156 155 148 145 155 170 182 193 206 221 210 216 236 245 247 234 229 249 273 282 219 207 190 180 162 154 149 154
56 61 69 80 94 105 112 121 129 133 139 146 152 158 174 179 188 167 158 167 181 205 221 243 248 231 233 257 273 269 237 217 266 283 252 206 211 200 188 166 158 156 159
67 66 62 62 67 80 93 103 112 118 125 134 141 141 148 156 160 168 172 188 183 168 166 200 220 228 243 265 255 261 207 189 215 212 225 230 226 209 187 162 160 171 165

GFSGL_con_3kmhel_096.txt.gz
Helicity
277 291 305 245 166 147 168 179 175 167 161 146 130 138 147 162 151 155 150 143 166 196 214 232 261 235 266 256 213 191 183 185 218 250 225 167 134 85 71 75 61 79 97
275 323 317 311 184 135 132 137 154 143 133 135 146 155 156 165 167 148 152 157 167 199 239 245 235 229 209 209 144 175 169 208 207 201 182 157 121 85 70 72 72 93 93
276 295 297 281 242 222 170 149 139 134 134 139 150 160 157 152 168 181 141 150 168 188 203 220 224 230 233 199 176 197 193 181 184 173 156 129 90 68 73 81 83 87 80
276 290 271 249 235 226 185 178 174 163 153 160 158 155 162 162 168 178 202 213 242 252 248 210 200 199 193 190 193 165 156 155 153 151 116 92 92 89 89 92 82 75 76
205 216 219 232 219 188 171 159 158 158 147 135 120 112 128 150 159 176 193 224 231 234 246 250 241 226 204 167 164 154 145 144 137 124 98 94 98 103 97 91 98 82 80
159 174 165 163 155 150 148 147 138 122 105 92 101 118 118 112 143 162 173 184 193 209 228 225 214 207 191 214 211 190 137 115 112 98 79 96 92 112 113 108 98 88 70
135 145 139 141 138 123 115 111 105 102 104 108 97 75 89 107 102 142 197 212 216 219 219 214 204 189 191 184 184 177 167 146 112 87 102 99 119 110 115 107 91 77 73
117 116 106 113 118 117 113 114 127 119 108 81 49 43 55 93 107 152 173 191 192 176 164 163 164 177 155 147 135 125 121 143 150 146 154 146 126 108 98 84 74 67 73
103 109 103 102 110 112 124 128 113 107 96 87 67 40 36 85 117 115 147 194 188 167 142 130 139 146 115 110 94 68 95 113 125 146 143 137 131 126 96 94 87 100 101
93 105 118 125 129 119 121 116 113 111 92 106 84 37 14 91 108 94 110 151 160 144 147 158 99 98 90 65 59 62 81 73 94 115 125 123 119 105 105 100 87 108 111
115 143 150 144 148 143 157 148 123 115 115 111 99 82 45 86 104 89 87 118 123 113 111 116 99 69 60 56 70 55 63 74 63 77 95 96 93 92 100 106 109 109 120
172 179 166 159 168 184 169 145 127 129 132 123 114 89 53 64 67 63 66 88 96 95 88 71 57 48 44 57 79 83 76 80 83 91 89 78 78 83 99 109 107 112 117
166 150 150 149 149 156 147 130 143 147 149 141 129 107 92 89 87 53 59 64 70 67 67 55 49 37 39 54 65 66 71 93 83 85 80 79 92 104 112 90 72 83 92
114 111 133 134 135 134 130 136 139 150 156 142 135 119 97 98 86 82 86 71 50 72 62 72 63 56 59 62 67 61 81 72 74 74 71 87 111 107 86 73 89 88 91
86 101 122 129 115 118 127 133 135 136 152 163 150 143 110 105 74 80 83 84 84 66 77 88 92 90 82 83 77 64 70 73 82 84 91 119 100 86 67 76 95 89 95
106 119 142 124 107 120 124 114 82 88 84 79 90 116 99 56 60 47 32 30 25 22 82 86 79 78 81 77 71 75 86 73 85 82 92 111 105 94 90 97 109 102 98
104 110 128 112 92 112 120 118 105 100 74 63 69 72 65 63 55 42 25 22 21 36 75 74 81 82 80 81 87 98 101 101 105 107 112 110 113 117 104 135 114 95 108
97 90 104 113 103 110 114 109 121 121 115 117 80 63 61 30 41 40 31 22 63 46 99 90 89 94 98 97 100 116 122 123 126 132 143 146 142 159 157 151 140 125 124
108 109 98 92 100 95 120 115 111 109 107 108 115 65 59 40 43 43 22 74 88 76 97 116 105 106 106 114 115 117 132 145 160 175 155 160 161 191 179 179 154 84 101
104 89 87 89 96 118 119 105 110 105 99 100 114 110 107 79 95 111 120 112 80 91 119 119 122 129 132 136 131 137 152 137 158 168 163 164 171 190 190 191 167 136 116
90 92 67 103 125 112 114 99 104 114 106 110 116 139 123 111 94 131 153 112 98 126 142 147 150 153 154 156 162 168 165 166 172 175 186 188 204 186 192 200 169 146 145
72 86 93 85 103 122 122 115 109 122 120 115 114 125 94 128 114 126 164 140 113 140 166 172 176 177 187 196 194 197 192 185 190 198 213 219 215 197 212 198 171 167 167
74 70 76 83 85 73 90 108 115 117 113 114 118 128 146 145 145 134 139 147 126 138 167 191 182 190 201 203 211 211 213 209 218 278 266 236 225 235 246 217 178 184 178
34 40 47 55 74 79 86 93 104 101 111 110 115 124 133 150 157 157 143 138 129 150 197 218 210 203 207 221 228 226 219 234 258 277 255 255 250 241 266 220 195 194 174
54 57 56 54 51 54 63 72 88 99 109 113 117 119 121 132 147 157 136 145 151 155 147 182 207 207 213 244 259 277 255 245 305 296 324 280 266 268 259 210 201 199 174
37 47 55 62 68 71 68 64 66 72 79 88 103 112 121 126 130 137 145 153 166 171 152 169 176 151 166 189 214 238 239 230 254 261 350 314 308 288 255 201 202 193 175

GFSGL_con_3kmhel_099.txt.gz
Helicity
247 263 269 244 250 262 271 243 244 197 179 184 187 161 143 140 147 148 144 136 130 142 149 164 180 204 211 212 232 217 228 236 209 261 268 221 181 143 114 102 103 83 79
305 291 291 292 250 269 180 263 286 121 133 140 151 151 160 167 162 132 117 127 124 131 144 164 192 190 216 208 202 205 215 222 207 250 256 230 181 135 116 86 67 77 74
265 262 263 250 244 299 323 241 178 153 146 155 150 129 137 151 156 163 131 117 127 145 151 159 182 194 193 193 209 195 183 194 195 214 229 210 174 142 108 87 76 85 76
250 242 234 228 227 253 249 237 212 170 158 133 134 139 134 139 157 158 159 148 164 177 178 168 165 173 175 174 191 178 168 183 179 202 191 175 155 115 105 105 90 89 93
194 209 209 211 206 234 251 215 176 160 154 148 147 143 136 123 126 140 147 158 163 183 205 213 207 187 176 155 174 173 192 187 183 181 162 155 111 114 101 98 94 100 95
149 148 147 157 175 186 179 177 179 174 163 146 128 101 89 84 105 123 129 135 152 164 179 201 206 199 176 162 152 144 142 172 184 154 130 99 97 101 115 118 119 107 75
110 109 114 127 140 141 143 141 134 129 126 126 121 101 79 57 58 88 142 141 150 162 169 176 192 193 191 181 182 217 219 171 118 100 87 72 100 90 126 121 104 89 79
99 100 107 112 112 109 115 120 126 120 112 112 106 99 89 62 43 87 126 143 160 160 164 172 181 176 172 178 178 189 178 161 127 89 85 85 91 94 95 82 88 99 99
92 87 88 96 107 109 109 110 117 124 116 94 90 88 98 94 48 44 109 135 151 154 154 150 153 142 112 129 150 144 147 141 111 109 105 120 109 99 98 129 111 110 98
78 70 81 94 102 99 100 103 120 111 99 100 94 95 91 102 58 44 113 133 148 154 149 120 102 105 82 94 113 112 84 72 93 125 133 153 139 102 105 86 81 101 100
74 90 105 108 119 121 135 137 123 113 114 100 96 101 99 101 78 46 91 118 124 128 119 128 97 76 67 72 58 69 48 63 68 92 106 113 110 104 103 106 104 91 95
104 122 128 141 158 161 159 156 128 120 110 99 103 101 101 108 61 29 52 67 72 104 90 87 71 66 54 47 49 32 36 63 91 93 103 87 88 91 91 96 100 106 97
124 127 133 137 140 145 152 130 119 115 118 112 116 119 110 91 103 54 36 49 70 91 86 62 46 47 31 39 48 48 62 86 95 103 88 77 75 77 89 94 83 77 78
115 115 122 122 114 123 132 124 113 122 121 117 117 120 127 119 121 93 67 57 55 82 64 60 51 52 53 52 57 55 84 85 87 86 82 90 117 109 88 79 71 63 77
98 96 99 107 105 114 109 108 103 104 119 128 125 135 145 130 130 77 70 98 96 82 96 101 101 92 82 73 63 63 79 75 72 77 98 108 97 96 86 82 83 83 85
85 94 107 123 127 122 108 86 48 49 52 53 65 100 107 83 89 45 46 69 68 41 94 93 77 68 71 70 69 70 75 58 70 84 99 106 105 100 87 92 98 99 100
77 87 108 122 119 109 105 88 72 55 37 58 53 54 54 77 61 55 43 53 60 60 105 94 68 66 68 71 74 78 77 79 88 87 110 112 119 109 97 112 129 142 129
86 91 106 116 116 102 105 91 69 68 69 85 70 71 57 58 69 43 56 59 78 59 127 96 52 71 76 71 75 83 89 96 99 108 115 111 123 149 154 155 161 165 157
103 111 115 105 109 95 104 93 84 79 75 78 91 66 52 47 95 64 59 92 120 119 113 107 97 101 72 70 94 105 107 108 115 131 119 136 146 166 151 153 157 128 139
88 88 90 98 109 95 97 98 114 89 77 82 90 90 110 88 113 109 91 101 133 142 111 108 121 106 107 111 116 116 120 116 123 128 129 156 178 177 154 164 174 178 152
92 89 80 84 89 91 95 102 109 110 73 73 84 98 87 125 112 122 129 134 145 166 156 119 102 132 131 121 121 129 130 133 143 152 180 178 186 177 177 184 181 186 179
65 78 78 74 72 81 94 98 97 92 90 82 91 98 46 89 122 116 124 122 127 140 118 109 116 133 153 156 158 154 157 153 168 179 180 186 196 187 245 231 199 206 187
31 43 61 68 69 65 72 86 98 102 98 97 92 92 107 108 118 136 137 127 134 148 173 165 113 107 148 160 178 185 184 179 194 223 229 220 233 268 272 228 225 209 206
44 47 50 50 53 52 53 61 73 68 83 94 98 102 105 113 119 116 128 144 142 141 166 175 146 113 115 156 177 205 206 195 215 218 220 275 296 258 223 230 219 213 223
28 32 43 52 60 68 72 72 68 71 79 86 88 93 95 102 107 112 120 127 132 149 137 142 147 145 135 144 180 178 179 155 219 244 330 322 292 242 253 249 243 245 232
23 26 28 32 40 46 52 58 61 69 71 72 80 93 95 89 98 96 96 103 117 123 128 140 143 128 124 145 139 139 130 145 212 226 305 290 286 294 300 282 254 266 233

GFSGL_con_3kmhel_102.txt.gz
Helicity
181 197 191 205 213 203 196 199 208 208 199 196 196 185 162 137 134 119 112 108 94 96 106 121 125 145 164 177 197 204 196 197 254 243 219 232 180 183 176 132 95 126 125
180 202 211 218 221 215 223 245 240 261 273 229 188 152 144 131 122 112 107 111 104 108 111 126 142 158 160 178 183 164 181 235 224 270 272 256 215 187 168 128 100 107 91
203 228 240 246 246 245 241 252 225 178 200 167 155 138 127 118 109 105 108 108 119 121 118 117 146 168 169 188 195 200 207 231 247 186 225 250 234 214 193 156 132 101 88
206 210 219 218 214 214 207 191 178 170 191 174 155 134 120 120 122 118 108 109 116 139 142 125 128 137 136 158 175 178 180 183 200 206 213 225 215 192 185 160 114 97 94
188 192 189 194 194 181 178 174 170 172 184 182 167 156 145 133 124 117 111 107 112 122 151 158 144 153 140 151 172 182 165 158 183 210 220 209 199 196 148 124 107 105 104
138 144 161 179 180 170 167 160 155 160 169 164 153 130 121 111 107 101 101 89 107 119 118 142 163 168 145 136 144 149 157 175 183 199 187 165 142 146 139 125 138 129 99
128 130 133 141 137 123 121 126 134 138 144 147 137 118 102 96 84 75 93 96 107 120 130 134 145 163 177 167 183 199 157 139 142 153 160 127 115 86 135 148 142 134 105
96 93 98 110 114 116 121 117 123 128 125 116 106 101 102 99 94 71 80 83 93 126 135 129 129 138 150 170 177 192 185 181 163 132 110 97 80 92 99 105 121 146 136
83 84 85 94 99 101 101 107 113 117 116 118 115 106 99 100 96 109 120 88 66 118 148 143 129 126 116 124 137 154 166 163 153 146 124 103 97 98 103 158 148 162 119
68 68 76 82 83 85 88 98 116 121 114 116 116 110 98 105 111 103 123 88 55 125 144 130 104 107 91 97 125 103 129 109 134 145 152 169 144 116 97 99 121 136 115
71 69 68 70 76 82 103 124 116 121 114 98 100 103 107 104 104 77 110 110 83 116 123 114 110 82 76 72 88 100 89 83 82 96 110 109 138 128 123 133 108 92 104
73 77 80 85 99 122 132 133 134 117 108 96 87 96 97 92 81 74 64 84 80 100 100 91 92 71 71 66 74 68 58 58 80 90 98 104 99 113 108 126 118 110 107
90 86 98 113 119 133 154 137 115 106 108 99 103 98 89 95 103 67 77 89 71 78 70 69 58 57 57 54 54 43 28 87 81 102 93 89 86 93 112 128 121 112 112
97 101 113 123 122 126 127 116 111 108 106 106 105 96 96 101 110 118 126 107 64 78 73 73 58 57 69 62 57 54 82 76 75 83 85 94 118 122 104 103 99 89 95
102 105 108 115 119 131 121 114 105 104 103 103 101 108 107 98 115 112 130 124 86 95 109 111 107 96 90 80 67 60 69 69 82 80 106 112 115 109 102 96 100 103 95
103 110 116 131 130 131 139 120 77 61 40 15 23 81 106 63 50 62 73 60 50 74 123 129 137 127 86 76 64 48 73 61 77 92 102 112 110 109 105 107 113 113 114
88 96 100 108 136 139 127 114 100 80 38 9 9 23 34 66 63 66 68 52 65 73 96 122 127 155 140 87 60 75 78 84 102 104 116 105 105 110 82 115 123 127 124
99 96 99 110 140 147 136 131 114 106 85 66 48 26 35 31 46 73 67 86 123 85 96 126 134 147 114 96 74 57 80 87 93 94 103 104 112 132 130 129 139 138 140
103 110 122 125 132 134 141 136 119 98 89 87 78 57 43 30 34 54 90 122 108 91 119 125 162 152 124 76 71 85 90 102 102 111 108 115 126 130 111 125 139 113 130
80 91 124 133 124 134 124 134 126 92 94 93 89 83 75 65 79 87 149 150 109 68 111 124 152 145 119 91 99 96 97 87 95 109 114 131 132 146 145 157 148 156 156
61 86 119 118 112 110 105 93 97 105 102 102 102 94 63 81 77 92 119 144 136 88 102 159 170 140 120 117 145 104 101 86 108 125 141 144 160 164 169 174 179 176 180
41 44 65 82 91 91 86 86 91 97 95 93 97 104 60 77 106 110 106 114 130 126 118 130 140 149 131 139 112 118 121 121 138 145 144 154 174 173 187 200 191 200 212
52 52 55 61 69 77 76 73 78 83 84 89 92 90 98 99 102 106 116 129 130 129 131 154 133 129 143 134 131 143 126 127 147 176 184 193 202 215 215 216 233 233 271
54 57 60 63 67 71 74 69 70 70 77 81 79 83 94 105 114 116 115 116 122 126 130 139 140 143 142 149 165 140 140 136 164 150 168 194 220 198 233 245 247 276 265
37 39 38 38 42 44 48 57 68 75 81 84 78 75 81 86 79 84 92 108 115 120 120 126 126 124 119 116 136 149 165 134 176 211 224 216 218 236 266 287 306 321 238
31 32 32 32 33 42 48 49 50 55 59 63 67 71 73 78 88 89 94 108 110 114 113 122 122 106 103 123 119 108 110 125 158 140 227 266 281 300 313 300 300 330 260

GFSGL_con_3kmhel_105.txt.gz
Helicity
130 178 182 177 161 153 146 151 147 151 150 150 158 190 175 161 173 151 125 102 88 81 83 77 75 86 103 117 123 145 155 183 198 240 242 207 240 219 197 198 175 148 155
134 154 164 166 172 185 189 183 167 172 177 165 148 132 127 123 130 130 108 87 74 71 75 84 81 95 97 121 139 139 153 181 215 260 262 256 243 248 212 199 175 151 155
139 149 158 166 178 181 179 180 177 186 187 160 172 144 138 131 126 116 102 97 85 78 82 82 96 97 101 126 143 154 161 181 207 206 226 270 242 195 217 220 200 178 176
153 152 149 149 153 163 174 184 183 169 165 172 161 153 151 148 142 129 115 103 95 102 116 114 113 117 108 114 122 139 164 169 199 202 219 225 230 232 238 237 195 163 153
160 157 145 162 175 178 178 171 163 163 162 160 163 161 145 143 140 141 131 113 103 98 105 113 116 123 122 118 131 134 163 171 174 189 188 195 205 255 236 216 191 160 117
149 145 154 166 171 169 153 146 158 175 174 160 151 139 142 140 143 136 117 103 97 84 77 92 110 133 144 130 128 131 128 157 163 189 193 185 184 191 224 203 213 168 118
134 141 134 142 139 137 148 153 149 143 137 141 143 135 122 109 110 105 100 87 82 78 74 81 103 131 156 168 179 169 137 123 135 156 162 155 168 157 194 188 154 146 112
112 115 125 128 129 130 127 116 123 123 119 110 106 101 99 99 106 107 114 104 102 98 82 67 94 127 145 143 147 151 154 162 158 144 123 114 112 122 138 135 149 163 160
104 101 99 98 108 117 114 107 108 105 102 95 93 99 101 103 109 103 100 107 110 114 83 8 77 125 123 118 130 141 151 155 161 164 128 130 116 94 114 166 166 170 145
83 88 96 102 105 101 97 95 96 90 86 97 91 91 89 93 88 94 106 107 95 110 96 55 96 111 101 102 115 117 137 141 137 169 180 199 167 103 89 113 134 154 140
89 95 95 88 87 84 89 100 89 98 99 87 81 83 75 72 77 82 81 114 98 101 95 90 105 84 80 80 98 100 102 104 101 135 135 143 132 118 114 118 117 120 128
85 88 83 82 87 95 103 104 104 106 95 77 63 56 73 80 67 63 64 67 104 117 97 105 95 58 61 64 76 77 75 88 112 108 110 101 90 85 108 127 125 123 105
93 93 96 100 101 108 118 117 133 116 101 84 74 73 77 78 75 44 45 56 80 120 111 91 72 51 50 65 67 70 49 101 100 98 85 55 69 77 102 137 139 143 145
92 94 99 104 110 114 123 135 134 116 108 94 77 75 76 79 79 87 98 102 102 110 109 96 81 71 70 76 60 66 77 95 98 88 65 67 102 109 91 112 116 117 114
100 94 94 102 108 117 127 144 143 146 131 104 87 92 99 91 82 73 87 124 129 116 122 126 110 100 101 131 92 68 69 66 73 64 75 85 81 90 106 102 109 103 87
104 103 106 118 130 139 147 144 89 83 80 72 47 69 79 36 39 49 57 53 65 82 151 122 114 121 117 135 134 100 59 45 56 69 71 82 84 89 116 126 106 91 102
97 103 114 109 118 135 142 136 123 119 63 56 53 51 21 20 46 57 44 55 58 93 155 121 116 110 122 144 144 128 111 74 76 69 86 84 111 105 90 110 104 129 102
97 99 95 104 113 129 138 143 159 139 128 128 101 78 58 36 38 47 65 61 96 95 174 131 123 115 124 132 153 166 140 78 62 73 83 88 106 118 126 120 132 148 120
86 87 89 99 120 136 148 153 174 157 145 130 121 84 71 55 45 30 31 130 138 127 125 136 142 130 140 144 131 97 85 80 86 104 94 106 109 129 115 126 134 104 95
77 91 88 84 105 138 144 142 153 148 129 131 119 93 115 112 91 72 66 119 175 140 129 125 129 129 168 172 150 121 99 69 79 92 92 120 129 135 127 135 151 165 153
73 69 77 72 84 100 115 117 114 123 128 113 93 105 74 119 97 86 94 89 121 140 125 135 130 130 163 171 153 129 104 66 98 111 129 135 140 144 132 128 149 166 183
61 61 59 56 61 67 73 81 89 92 92 88 88 92 72 97 102 101 104 101 105 104 85 110 120 115 131 164 169 150 113 108 111 75 122 142 155 163 171 171 170 187 192
68 70 69 69 75 85 80 78 74 68 66 65 64 64 77 85 88 89 88 98 113 119 119 120 118 113 118 123 141 154 148 141 107 104 122 139 159 177 192 193 198 209 219
52 57 61 58 60 66 65 65 73 101 101 83 72 59 64 70 79 82 88 95 105 116 130 133 121 105 112 118 133 147 144 138 146 116 114 123 148 148 179 207 221 244 239
37 37 37 37 37 38 42 45 47 51 56 61 64 58 50 62 68 73 94 101 108 113 110 120 129 115 100 98 107 115 125 96 143 173 193 187 191 194 228 235 264 293 291
43 41 39 36 34 33 34 42 44 48 51 56 60 58 56 54 58 60 64 58 69 87 91 108 116 109 102 108 104 95 83 77 108 109 177 207 226 250 255 266 293 326 294

GFSGL_con_3kmhel_108.txt.gz
Helicity
101 131 162 185 189 187 189 173 167 156 140 129 122 139 128 120 117 110 111 115 111 117 112 80 65 67 67 76 88 104 117 127 122 203 209 178 219 175 146 216 214 212 182
112 136 157 174 183 194 187 172 153 148 133 118 134 142 129 129 122 112 102 104 107 104 94 91 82 87 86 88 100 93 109 133 157 173 212 232 236 235 195 216 245 213 164
136 156 169 168 176 175 166 154 148 139 139 146 151 144 134 134 130 126 117 115 117 114 113 111 105 102 100 100 100 112 125 142 172 194 202 218 233 242 258 272 246 218 218
158 147 148 147 148 150 146 155 162 151 155 159 155 150 141 136 140 143 137 132 130 129 129 127 123 117 104 103 105 107 124 132 154 188 232 233 218 219 261 236 245 254 199
138 142 141 145 161 169 178 180 174 171 163 150 136 140 142 151 147 146 135 130 132 133 129 124 117 116 119 111 117 126 130 144 153 168 197 208 186 202 198 228 242 238 190
129 136 147 162 165 167 158 161 172 172 163 156 162 162 169 146 143 134 122 120 117 113 107 106 108 116 131 142 144 141 138 146 150 163 176 171 169 174 226 206 251 238 175
170 161 154 157 164 162 158 161 159 146 149 170 176 161 141 123 128 124 120 103 106 108 106 111 109 101 99 123 161 184 184 161 114 127 139 149 162 164 208 237 230 191 149
148 135 142 149 158 156 150 147 161 167 151 140 132 124 122 108 98 85 86 82 90 104 112 126 119 91 37 73 144 157 157 149 143 126 112 113 116 141 165 171 197 207 158
118 123 119 124 128 127 138 142 144 137 131 121 108 106 96 69 68 73 85 78 91 109 113 120 125 107 30 83 145 153 155 152 148 145 114 120 120 117 163 205 178 174 120
110 111 120 112 107 109 118 118 131 132 121 103 90 71 57 50 58 66 69 84 84 93 95 99 112 101 63 89 127 128 135 129 137 144 148 170 186 136 137 143 140 150 129
105 98 99 101 105 104 120 123 128 125 108 88 74 57 44 39 39 47 60 87 82 87 86 93 104 103 103 103 109 99 101 95 109 120 126 129 148 147 137 123 103 99 123
99 96 93 93 111 129 128 125 108 97 91 86 60 64 50 43 35 42 41 43 58 94 87 87 94 88 108 105 92 70 59 86 95 104 100 93 104 120 110 103 110 130 105
97 91 92 113 106 98 105 99 110 100 99 90 82 70 74 61 51 36 37 29 38 98 103 85 68 75 72 80 71 78 67 101 96 99 99 93 77 62 78 92 120 138 146
100 99 99 97 97 101 105 108 117 118 113 106 96 93 94 73 56 69 78 84 67 91 101 102 91 85 73 76 93 102 106 95 101 87 89 88 78 78 61 63 97 97 113
102 97 104 88 88 94 95 107 115 124 138 125 114 109 95 92 83 62 53 77 85 89 119 131 124 118 103 106 103 108 105 103 102 92 71 66 68 70 63 76 109 93 119
100 103 97 96 95 102 112 123 104 110 111 79 67 96 98 55 53 25 20 39 48 51 121 140 119 115 108 109 100 106 102 105 124 105 72 65 71 64 93 93 85 87 85
96 102 103 110 109 110 115 117 113 130 98 79 74 66 47 52 40 29 20 46 42 58 113 152 128 125 124 115 113 116 121 128 113 80 72 71 90 68 59 91 84 88 96
82 94 84 85 84 90 97 106 125 128 127 134 128 118 88 66 52 50 35 40 100 82 109 119 122 152 143 125 127 126 129 131 101 96 100 83 83 82 108 104 110 113 113
81 79 80 75 74 76 90 115 138 143 134 132 152 150 106 107 83 66 69 95 124 129 117 114 134 150 147 139 142 139 125 122 112 104 94 65 90 108 100 112 124 83 105
76 95 89 69 57 52 64 88 118 130 139 118 141 131 126 121 105 97 102 89 87 105 148 125 129 145 145 148 159 145 131 121 107 75 63 88 96 109 113 128 153 143 118
59 58 77 60 61 51 57 62 81 97 113 107 110 110 95 104 88 96 90 95 94 91 103 112 113 125 124 136 143 146 137 117 127 140 105 51 95 113 110 126 142 147 146
62 58 56 56 59 62 61 67 64 60 67 73 79 82 85 92 89 84 79 83 95 97 98 97 106 117 128 128 130 134 130 132 138 126 108 77 92 112 133 127 134 152 162
63 58 54 54 55 64 64 69 75 83 81 73 67 62 62 65 71 71 67 68 73 83 98 111 103 96 106 117 130 135 128 119 141 159 144 143 136 93 84 115 146 156 164
59 41 42 43 45 50 48 49 52 65 63 56 59 68 73 77 79 76 74 85 92 90 99 98 99 94 91 97 107 113 123 122 129 140 138 162 160 140 171 182 179 176 180
62 34 30 30 28 26 28 34 35 36 41 44 47 50 48 47 49 59 54 60 62 62 66 81 94 88 81 79 78 79 88 84 115 129 161 159 166 171 186 209 197 193 185
18 16 17 23 29 33 33 32 29 30 31 33 41 47 43 43 43 45 48 55 58 64 75 76 88 101 92 83 83 79 71 69 74 68 122 161 175 180 192 193 179 218 222

GFSGL_con_3kmhel_111.txt.gz
Helicity
77 89 114 126 144 154 158 157 170 169 162 162 142 156 149 134 118 121 119 104 106 106 99 96 96 91 94 98 105 110 120 145 156 184 170 144 154 190 210 206 181 171 207
96 118 135 146 161 194 197 175 164 178 159 142 138 150 142 134 130 122 125 118 117 120 115 102 93 94 97 102 106 112 122 136 166 167 175 162 172 170 193 232 218 212 203
125 132 131 136 161 182 184 173 177 174 158 141 142 156 162 143 140 138 131 127 133 134 131 126 118 106 101 105 107 105 115 127 147 160 156 153 192 192 226 238 282 263 229
148 150 140 139 145 159 169 185 182 170 175 172 176 177 169 142 140 123 124 131 127 127 126 120 118 115 108 102 105 113 120 128 153 173 180 184 180 200 226 245 241 243 238
174 167 157 142 141 154 172 179 182 183 178 169 175 189 177 156 138 142 145 137 129 128 121 111 109 112 116 119 115 121 134 146 160 180 202 193 183 191 183 207 241 248 192
198 189 157 159 163 168 173 176 184 197 204 198 199 173 161 148 153 154 135 120 119 122 126 119 121 131 140 134 130 139 143 161 173 190 200 194 184 173 198 215 254 261 215
146 127 126 144 170 175 180 191 198 199 197 207 181 148 140 139 137 139 142 119 115 106 101 105 117 125 137 136 110 84 173 225 205 176 162 155 155 147 179 196 220 219 195
160 163 160 164 170 166 170 176 186 175 163 140 140 152 143 130 122 115 110 88 77 75 81 93 101 114 117 113 100 40 102 168 177 163 138 123 121 120 141 140 166 232 221
121 130 139 162 184 193 195 170 162 159 161 147 136 124 119 110 88 66 54 42 47 75 92 93 91 99 100 104 114 78 67 138 156 174 156 130 120 105 136 178 166 202 169
94 104 117 126 136 137 136 143 145 132 125 121 119 111 93 85 50 32 24 33 52 66 76 82 80 82 85 90 108 101 61 110 127 122 122 145 161 149 133 128 116 157 144
90 105 115 118 117 127 138 134 137 140 137 124 110 99 81 34 14 -12 -3 33 43 44 50 71 83 83 82 90 94 110 90 105 109 107 104 112 127 127 121 130 102 95 120
96 101 94 90 100 108 120 123 122 122 116 113 113 96 63 29 -4 -2 -6 8 29 36 41 65 73 69 79 85 96 97 80 96 98 102 101 111 117 110 103 105 114 111 87
83 85 95 102 103 102 110 113 119 115 116 103 103 94 77 73 55 30 22 27 27 70 85 63 61 66 73 85 89 97 94 110 110 99 89 98 91 77 76 96 104 103 93
126 126 119 113 111 117 115 109 109 108 108 112 111 96 87 87 85 83 75 50 25 47 87 80 93 93 83 86 102 118 120 101 103 93 86 87 84 76 70 66 80 81 87
93 94 103 116 127 124 109 99 95 97 113 119 113 115 113 87 76 63 75 64 38 45 101 113 115 102 95 98 110 113 106 100 97 105 87 88 76 80 69 63 82 79 70
82 90 85 86 70 118 89 92 89 79 76 77 103 122 123 78 78 65 63 52 29 34 107 118 103 90 82 88 96 97 99 89 92 93 86 92 93 75 64 69 69 89 102
92 99 97 99 93 83 79 97 109 111 87 81 78 84 89 100 76 65 47 34 28 39 92 118 110 99 84 82 85 92 92 90 100 94 92 86 70 60 54 61 56 73 64
80 95 86 89 93 95 92 91 97 105 116 124 112 95 93 105 108 105 82 64 107 72 113 97 93 95 93 85 86 91 88 82 83 84 82 76 64 59 63 68 76 80 83
68 77 90 94 91 90 85 77 72 80 102 133 156 146 123 114 114 116 90 115 108 114 113 102 86 97 98 98 92 94 90 82 82 88 99 112 88 81 83 67 63 60 77
78 92 89 81 84 87 82 68 56 62 82 104 121 131 130 132 154 137 123 115 101 82 103 106 94 94 89 84 89 91 89 78 82 91 89 90 89 97 82 70 85 102 99
72 81 99 89 80 77 75 69 53 59 66 80 96 110 94 112 123 115 104 95 100 99 86 83 86 86 87 83 83 81 87 77 84 90 88 95 105 104 80 83 85 112 125
80 72 70 74 74 76 76 76 76 77 82 79 79 87 99 95 93 87 87 90 92 86 85 77 74 78 86 94 94 93 85 86 85 92 90 94 94 94 108 92 96 100 112
97 84 74 74 71 74 85 84 88 91 97 103 102 96 93 100 102 97 88 87 81 73 75 72 70 71 80 90 99 99 90 88 96 109 103 105 108 104 110 108 139 149 149
90 95 96 93 82 68 62 67 70 76 74 74 73 76 81 86 88 92 89 86 82 81 76 70 68 62 73 74 78 86 90 89 99 97 101 113 119 110 123 123 127 129 130
89 98 109 114 101 72 55 42 35 39 40 42 46 49 52 53 54 54 52 53 52 56 79 91 95 101 105 108 95 83 71 51 78 96 112 110 105 113 132 142 140 142 138
66 56 44 41 44 39 33 28 35 44 49 46 44 42 49 51 48 49 53 55 57 58 47 48 51 64 74 70 77 101 127 120 96 73 96 124 142 137 140 131 120 152 150

GFSGL_con_3kmhel_114.txt.gz
Helicity
34 -15 -54 -48 -69 -59 -55 -46 -4 69 106 184 163 130 152 149 128 121 122 111 98 93 86 97 97 97 100 98 96 97 106 117 134 155 156 154 164 143 144 170 174 163 176
58 58 17 35 46 59 52 69 117 142 170 183 166 158 157 154 138 118 113 98 96 97 96 91 89 90 93 96 104 98 104 116 147 132 157 151 159 152 167 180 183 180 178
55 91 109 112 118 139 163 169 183 179 192 182 169 184 177 155 142 121 114 115 110 115 117 119 124 107 104 101 103 96 107 126 138 155 152 152 149 159 200 229 211 211 202
90 105 111 114 134 161 178 192 195 194 209 199 183 182 169 160 150 146 136 136 139 148 146 143 140 119 107 106 102 104 96 111 124 140 160 169 164 175 194 218 235 221 208
124 136 148 147 162 174 176 184 205 215 205 197 184 181 182 180 180 173 162 153 145 135 135 127 122 122 112 116 114 111 110 114 117 137 168 186 183 185 176 195 225 224 201
134 160 178 185 173 168 170 181 183 193 200 196 195 199 212 220 203 180 148 147 138 118 118 111 108 88 84 111 131 145 128 91 106 155 190 191 176 172 186 206 237 232 200
167 170 166 158 163 159 154 157 170 189 202 211 212 205 196 176 161 165 171 150 128 122 102 90 94 106 107 120 120 121 118 108 87 139 153 177 179 160 167 182 190 196 187
145 161 159 157 160 169 178 189 198 202 198 204 210 195 177 157 137 147 129 108 99 96 90 91 99 105 111 115 115 116 114 108 79 106 126 130 135 117 118 129 152 201 194
134 141 139 141 145 156 171 180 189 201 208 201 181 168 151 138 106 83 71 76 70 56 57 76 90 88 95 86 95 101 110 117 108 111 154 164 123 97 114 162 167 193 166
105 122 136 148 152 159 173 186 204 191 192 186 176 150 125 96 64 55 43 45 16 15 34 58 57 64 88 81 84 95 110 127 116 96 125 147 145 150 158 137 135 161 175
88 97 104 111 119 124 134 136 133 143 144 141 124 112 98 93 79 46 17 7 4 34 56 54 47 59 76 77 78 97 104 128 121 105 121 128 118 116 121 134 128 126 145
78 91 89 98 111 111 114 124 114 110 113 123 129 134 126 112 85 64 28 -14 23 67 76 68 42 55 80 81 79 77 91 111 120 101 107 112 107 105 109 117 122 115 114
72 79 80 83 90 91 95 108 112 109 114 120 128 131 121 113 98 54 58 56 6 46 53 24 52 60 66 75 69 75 83 103 108 112 100 96 92 92 97 102 100 99 109
98 92 93 94 106 114 126 119 115 116 117 116 112 113 119 121 113 107 88 71 56 55 30 18 48 78 73 82 86 84 91 90 94 101 97 100 89 82 83 90 85 87 81
87 82 124 149 127 132 123 133 145 143 130 128 122 124 127 131 130 108 89 103 107 65 77 96 96 98 99 87 84 84 87 87 92 88 90 91 91 83 77 90 83 81 80
57 62 76 73 70 76 86 94 126 153 115 112 123 126 124 117 115 128 106 88 80 61 80 81 93 107 107 93 80 78 80 81 84 85 84 88 90 84 80 87 87 65 63
87 91 81 86 83 79 71 73 90 81 57 60 63 75 82 115 112 117 93 75 76 82 109 107 112 115 108 103 86 73 72 79 99 95 89 90 91 86 82 73 61 51 54
100 86 74 72 76 87 96 101 102 105 110 112 95 104 111 100 92 87 81 99 144 134 147 125 111 101 98 98 92 82 74 78 88 85 88 89 90 89 81 72 59 53 59
118 123 121 95 74 67 70 78 83 83 77 81 108 134 145 134 125 104 96 162 170 171 131 121 120 115 106 94 72 78 87 96 102 103 89 92 92 95 85 75 60 45 48
106 107 94 73 74 78 76 80 82 85 80 71 76 96 142 159 170 161 155 172 168 143 131 118 109 114 116 99 93 89 89 89 100 99 93 92 89 91 86 88 75 93 99
94 111 136 142 125 104 95 95 97 90 80 73 80 91 83 111 128 141 143 147 138 130 120 107 112 103 99 101 95 92 87 88 97 98 100 96 90 79 73 74 88 107 109
109 107 120 143 156 141 117 100 106 118 122 103 98 111 127 120 118 125 126 125 120 120 122 117 107 98 96 98 100 91 86 84 88 102 107 108 107 84 72 70 79 89 104
81 89 92 94 110 110 104 103 109 108 107 115 106 105 121 125 130 132 127 121 119 113 112 107 91 80 81 87 105 104 90 85 89 95 99 97 106 106 107 93 93 101 111
63 65 75 83 77 81 86 90 89 90 89 84 86 85 87 90 88 87 88 88 87 84 83 92 91 87 81 82 87 93 92 82 89 98 95 100 95 88 98 108 115 100 105
67 64 59 65 59 71 93 100 97 89 75 65 56 51 49 53 57 60 59 57 59 58 68 65 71 82 83 90 84 88 109 121 81 78 96 98 96 97 108 109 102 97 106
78 75 67 68 55 52 43 51 65 74 78 84 68 59 52 45 47 49 48 48 52 57 60 60 59 60 64 65 65 68 72 81 93 107 118 99 100 108 115 110 97 117 111

GFSGL_con_3kmhel_117.txt.gz
Helicity
110 108 63 -1 -71 -82 95 132 253 339 300 162 106 145 131 197 131 165 149 144 139 141 123 103 88 82 86 89 102 101 102 116 121 102 131 125 109 114 123 127 165 167 178
87 73 -6 -11 -59 -4 -53 -20 30 -10 71 73 35 110 113 144 118 117 126 132 125 118 110 95 96 118 95 107 101 102 127 110 134 109 121 112 102 113 124 140 151 169 183
-1 -12 -15 -13 -5 -15 -21 -35 -11 45 1 48 148 167 165 142 127 129 124 133 135 135 133 125 130 114 116 124 99 95 105 112 115 125 120 129 133 138 154 163 164 185 190
54 51 49 41 55 53 55 72 86 126 196 200 187 153 160 167 173 178 183 185 182 170 169 157 132 118 126 120 112 109 135 101 87 87 111 118 121 144 151 156 188 207 185
21 46 61 72 103 134 163 195 206 197 181 219 230 200 203 212 209 212 213 199 181 169 162 147 145 159 144 146 124 123 96 96 100 111 110 117 134 147 157 164 172 192 184
96 101 112 117 127 149 189 193 203 214 244 234 224 221 239 247 235 229 218 206 182 151 144 147 127 112 105 120 136 150 167 136 86 73 64 61 97 143 173 176 187 196 191
122 134 146 144 154 167 161 175 187 183 195 217 211 209 207 209 206 217 208 188 189 187 168 138 123 119 105 105 106 113 111 128 128 117 83 55 101 139 160 168 171 177 177
123 134 134 128 130 134 145 151 181 189 205 223 240 235 237 225 208 198 199 198 180 155 126 113 104 97 113 121 119 143 113 109 131 135 106 70 79 111 129 135 146 164 170
111 126 135 141 156 147 158 156 165 192 205 202 206 206 208 206 182 176 178 162 137 100 82 71 72 77 117 105 110 125 114 123 143 138 135 107 88 102 116 156 161 195 161
111 117 126 134 136 150 160 170 179 180 198 208 212 205 197 183 162 143 144 155 124 94 67 53 34 44 84 86 100 106 120 146 148 132 126 129 124 140 161 136 127 150 166
98 113 122 132 144 155 177 180 200 213 223 213 200 179 163 158 142 117 101 132 103 67 40 41 62 50 44 51 77 104 116 135 118 122 124 123 110 117 120 117 114 113 137
88 91 93 113 139 138 140 147 156 161 162 157 159 160 147 130 135 100 98 78 120 95 69 79 81 61 56 60 90 99 103 112 107 113 117 105 113 109 114 112 107 109 114
80 81 82 81 82 83 98 116 129 128 133 144 157 151 146 142 138 114 92 75 58 85 97 92 79 59 50 55 63 81 88 109 100 113 106 110 122 123 111 101 101 107 111
103 98 109 92 90 93 98 96 100 117 124 131 147 146 151 168 160 159 136 122 93 107 114 125 97 52 52 78 94 82 97 98 112 113 102 114 122 107 100 98 95 95 89
96 69 78 97 103 136 145 138 147 175 174 159 146 144 167 170 144 134 152 160 171 151 180 188 132 97 95 99 95 89 99 111 114 109 108 110 106 111 105 110 90 83 79
82 66 58 63 66 87 85 77 82 90 108 113 119 137 149 175 176 146 151 182 165 154 212 174 117 86 88 102 103 103 110 95 113 106 110 100 109 113 107 103 86 80 78
91 96 83 87 103 102 98 98 80 65 36 38 57 56 79 111 98 87 75 88 122 153 210 178 134 120 101 110 112 108 109 110 111 116 114 110 117 100 86 108 95 87 80
90 83 89 96 100 111 123 125 124 107 107 97 57 50 38 37 47 56 64 96 161 127 168 156 136 142 138 124 119 111 100 105 120 118 108 112 119 118 92 85 101 98 86
97 104 110 99 109 110 119 132 134 119 100 93 105 92 89 86 89 93 109 186 185 168 154 172 170 160 142 139 133 122 102 102 107 128 115 119 116 110 102 104 103 72 65
93 88 87 97 93 87 106 108 115 111 104 102 92 81 89 100 117 136 162 180 174 152 157 162 165 158 153 138 128 128 130 110 107 116 107 98 96 102 101 105 110 115 98
93 97 98 90 91 99 90 94 107 115 114 101 92 91 81 82 85 95 112 130 137 141 145 146 136 127 128 121 131 132 120 116 111 109 112 112 95 91 86 97 97 105 111
86 85 84 83 81 77 86 92 81 84 96 117 121 114 129 117 112 105 111 121 124 122 119 115 118 115 121 122 119 115 109 100 95 98 99 105 116 112 106 101 103 105 118
81 72 70 71 68 65 66 65 76 84 92 103 125 126 107 117 126 129 129 130 121 114 110 111 115 110 103 99 96 92 89 89 93 101 96 95 95 105 116 115 117 116 118
78 76 75 70 67 68 67 62 67 68 64 71 86 87 83 100 104 100 96 102 94 92 88 90 108 110 107 102 102 102 94 91 93 87 83 84 83 86 93 93 97 107 121
74 70 72 75 80 77 70 58 47 54 61 70 71 70 67 76 79 77 77 75 72 71 74 91 77 80 79 84 84 88 86 86 85 96 87 91 76 73 79 89 93 95 94
89 92 90 86 79 76 75 65 57 60 64 63 89 108 76 67 74 75 65 59 57 63 77 61 59 59 56 60 62 62 66 69 71 74 88 90 97 81 81 80 77 96 96